GFSCGP_925_thetae_000.txt.gz
Theta_e
320 321 323 321 320 319 319 319 319 321 321 319 320 321 321 322 322 322 322 322 323 327 328 326 325 325 325 326 325 327 325 323 322 323 319 317 316 315 316 315 314 312 313 313
318 321 320 320 319 319 319 319 320 321 320 319 322 321 321 321 322 322 322 324 326 326 324 324 324 325 327 326 325 324 321 318 317 317 316 315 315 315 314 314 312 312 311 310
323 320 319 319 321 321 321 321 324 322 322 321 321 322 321 321 321 321 322 322 323 322 323 323 324 323 322 321 320 318 317 315 314 314 314 313 313 312 312 313 313 312 312 311
321 320 321 321 323 322 323 322 321 321 321 322 321 322 322 321 321 321 321 322 321 320 320 321 322 321 320 318 317 316 315 313 313 312 313 312 313 313 314 314 312 311 309 308
322 322 323 323 322 321 324 322 321 322 322 322 322 324 325 322 321 321 321 321 321 321 321 320 320 319 319 318 317 316 315 314 313 312 311 312 313 313 311 309 309 307 307 305
321 320 322 322 321 321 322 324 324 324 325 333 323 325 327 323 322 321 321 321 321 320 320 319 318 318 318 317 316 315 314 313 313 312 312 311 308 308 308 308 307 304 303 303
323 322 322 321 324 324 322 325 332 335 338 334 326 323 327 323 322 321 321 321 321 321 321 320 319 318 317 316 316 315 315 314 313 312 310 309 309 308 307 305 304 302 302 302
324 327 322 321 322 322 324 323 334 332 335 329 322 320 323 321 320 319 319 319 319 320 320 319 318 317 317 316 316 316 315 314 313 312 311 309 307 305 305 303 301 301 301 301
325 325 321 320 320 320 324 324 320 326 328 329 320 324 322 320 319 319 318 318 319 319 319 318 317 317 317 316 315 315 314 314 313 312 309 306 305 304 303 301 300 300 301 301
320 326 319 319 321 322 322 320 325 329 331 326 321 321 325 322 320 318 318 318 318 319 318 318 317 316 316 315 315 315 314 313 312 308 305 304 304 304 302 301 301 301 300 298
320 323 321 321 322 323 323 324 321 319 324 326 326 320 319 320 318 318 318 318 318 318 318 317 316 315 315 314 314 313 311 310 308 306 304 304 303 302 301 301 300 299 298 297
318 321 330 320 319 320 320 321 320 329 324 330 329 322 319 319 320 318 318 318 318 318 316 316 315 313 312 312 311 311 309 309 307 305 304 303 302 301 300 300 298 296 296 296
320 326 329 323 324 321 320 320 318 322 322 322 329 324 320 320 319 318 317 318 317 316 315 315 313 313 311 309 308 307 308 307 306 305 304 302 301 299 298 297 296 295 295 294
319 320 322 325 319 317 318 317 317 317 327 324 324 320 319 319 318 317 317 317 316 315 315 314 313 311 308 307 306 306 305 306 306 305 303 302 300 298 296 296 294 293 293 291
321 324 321 319 317 316 316 316 316 317 318 320 320 318 318 318 317 317 316 316 315 314 314 312 311 309 307 305 304 303 303 304 304 303 302 301 300 297 296 295 293 292 291 290
320 328 322 322 317 316 317 316 316 316 316 317 317 318 317 317 317 316 315 315 315 313 310 309 308 306 305 303 302 300 301 301 303 302 301 301 300 297 296 294 293 292 290 289
322 325 323 326 320 320 325 322 318 317 316 317 320 318 318 317 316 315 315 314 312 309 308 307 305 304 302 300 299 299 299 299 301 301 300 300 297 296 295 295 293 291 290 289
318 321 323 324 321 328 320 317 317 317 316 316 316 317 317 316 314 314 312 310 308 307 306 305 303 301 300 299 298 297 297 297 297 298 299 298 297 296 295 294 293 291 290 289
321 326 319 325 321 319 318 317 317 317 317 316 319 318 316 314 313 312 309 307 306 305 304 302 301 300 299 298 297 296 296 296 297 297 298 297 295 295 294 293 292 291 289 289
318 320 326 320 321 321 320 317 316 316 319 319 317 316 314 312 314 311 308 306 304 302 301 300 299 298 297 296 295 295 295 295 295 296 296 294 294 294 294 293 292 290 290 289
317 319 321 321 320 320 316 316 315 319 321 318 315 314 313 312 311 309 306 304 301 301 300 299 298 297 296 295 295 295 294 294 296 295 295 294 293 293 292 292 290 290 289 289
319 321 318 320 320 320 316 315 319 320 318 316 313 312 311 310 310 306 304 302 301 300 299 298 297 296 295 295 295 294 294 294 295 295 294 294 293 292 291 290 289 289 289 288
321 323 325 321 322 319 316 316 316 315 316 313 312 310 309 309 307 304 302 301 300 299 298 297 296 296 295 295 295 294 294 293 293 293 292 292 291 291 290 289 289 289 288 287
316 316 325 321 318 317 317 316 315 314 313 311 310 309 308 306 304 302 302 301 299 298 297 296 296 295 295 294 294 294 293 293 292 291 291 291 290 290 290 289 289 288 287 286
321 317 318 319 318 317 316 315 314 312 311 311 309 308 305 303 302 301 300 299 298 297 297 296 295 295 295 294 294 293 292 291 291 290 290 289 290 290 289 289 287 287 286 285
317 317 320 321 318 318 316 313 310 311 310 309 308 304 302 302 301 299 298 297 296 295 295 295 294 294 294 294 294 293 291 290 290 289 289 289 289 289 289 288 287 287 286 285

GFSCGP_925_thetae_003.txt.gz
Theta_e
319 318 318 318 318 318 318 317 318 318 318 319 318 317 318 318 315 317 322 324 322 322 322 324 322 323 324 326 326 324 322 319 322 319 317 315 314 314 314 312 312 312 312 312
316 318 318 318 319 319 318 319 321 318 319 317 317 318 317 319 318 317 321 320 320 321 322 321 319 319 320 318 317 316 316 315 315 315 313 313 313 313 312 312 312 312 312 312
319 319 319 319 320 321 320 321 320 321 319 317 318 318 319 318 319 319 317 317 318 319 320 319 318 317 317 316 315 315 314 314 313 313 313 312 312 312 313 313 313 310 309 308
319 319 321 321 321 320 324 322 321 320 319 318 315 320 319 319 320 319 318 317 317 318 319 319 318 318 317 316 315 314 313 313 312 311 311 311 312 313 312 309 308 308 305 305
321 321 322 322 321 320 323 321 321 321 320 320 319 320 320 321 321 319 317 316 315 315 315 316 317 318 317 316 315 314 313 313 312 311 310 311 311 308 307 308 306 304 303 301
320 319 320 320 321 320 320 322 323 322 322 323 323 324 328 325 321 320 319 318 316 315 315 316 318 317 316 315 315 314 313 312 312 311 311 310 308 307 307 304 304 303 301 301
321 321 320 320 322 322 321 322 324 325 323 323 326 325 326 320 319 319 319 317 316 315 315 314 316 316 316 315 315 314 314 314 312 311 310 309 308 305 303 302 301 300 301 300
324 324 319 319 320 320 322 323 321 329 322 324 317 324 321 317 316 316 316 316 316 315 314 313 315 315 316 315 315 315 314 314 313 312 308 305 304 303 303 302 301 300 300 302
326 323 320 318 318 320 324 319 318 322 322 320 320 320 319 317 317 316 316 316 315 314 313 314 316 316 314 314 314 314 314 312 309 306 304 304 304 304 304 303 301 301 300 300
319 323 318 318 320 321 319 318 321 318 322 320 319 325 325 322 320 317 314 314 314 314 314 313 313 312 311 312 311 311 310 308 306 305 305 305 304 304 302 302 300 299 298 297
320 323 320 320 320 321 321 323 320 319 317 318 318 319 319 319 317 316 315 314 313 312 311 311 311 311 311 309 308 308 308 308 309 308 306 305 304 302 301 301 300 299 297 295
317 319 316 320 319 319 319 321 321 316 323 316 314 316 317 316 316 314 315 315 313 311 310 310 311 309 308 306 306 306 306 307 307 307 306 305 303 301 300 299 298 296 295 294
319 319 318 323 322 320 319 319 322 321 311 315 314 317 317 318 317 316 314 313 312 311 310 309 310 309 307 305 305 304 303 304 302 305 306 304 303 301 299 297 295 294 293 292
319 320 316 317 318 316 316 317 317 320 315 317 315 318 316 319 317 315 314 312 311 310 309 308 307 306 305 304 302 299 298 299 299 301 304 303 303 302 297 296 294 293 292 291
319 321 319 317 316 316 316 316 315 316 315 315 315 319 318 316 315 314 313 313 311 310 308 306 305 304 303 299 298 298 298 297 296 297 299 302 302 300 297 295 293 294 292 290
320 319 316 318 319 317 316 315 315 314 315 315 316 318 316 314 313 313 312 311 309 308 306 305 305 303 300 299 298 297 296 295 295 295 295 296 300 299 297 295 296 294 291 289
315 310 312 318 317 315 314 316 319 317 316 316 315 317 314 313 313 311 309 308 307 306 305 304 303 300 299 298 296 295 295 295 295 294 296 297 298 297 296 295 295 292 291 289
311 313 308 309 309 313 319 316 316 317 316 316 318 315 313 311 310 308 306 305 305 305 304 303 300 298 297 296 295 294 294 294 294 294 295 295 296 294 295 295 293 292 291 290
316 307 306 312 311 312 316 317 316 316 317 317 316 314 312 311 310 308 306 306 305 304 302 300 298 297 296 295 294 294 294 293 293 295 295 294 294 294 294 294 293 292 290 289
315 306 309 306 309 307 312 317 315 316 314 316 314 313 311 309 304 307 306 305 303 301 300 298 297 296 295 294 294 294 294 293 294 294 294 294 294 293 293 292 292 291 289 289
307 306 306 311 304 309 314 315 315 314 312 315 312 311 311 309 304 306 306 303 301 301 299 298 297 295 295 295 295 294 294 293 293 293 293 293 293 293 293 292 289 289 289 288
310 309 313 310 310 311 314 315 312 312 315 312 311 310 310 308 307 308 302 300 300 299 298 297 296 295 295 295 294 294 293 293 292 292 292 291 291 291 290 289 289 289 288 287
315 313 313 311 311 310 314 313 314 313 312 311 310 310 308 308 307 302 300 300 299 298 297 296 295 295 295 294 294 293 293 292 292 291 290 290 290 290 289 290 289 288 287 286
314 316 311 312 316 316 315 315 314 312 311 309 309 309 308 307 302 301 299 297 296 295 294 294 294 294 294 294 293 293 293 292 291 290 290 289 290 289 290 289 288 287 286 286
311 316 315 312 315 315 314 313 312 311 310 310 310 309 308 301 300 297 295 295 294 293 294 294 294 293 293 294 294 293 293 292 291 290 289 289 289 289 289 289 287 287 286 285
316 314 311 311 315 314 313 311 310 310 310 310 310 303 301 297 295 295 294 294 293 293 293 293 293 293 293 293 293 292 293 291 290 290 289 288 289 288 289 288 287 286 285 285

GFSCGP_925_thetae_006.txt.gz
Theta_e
317 316 315 316 316 316 316 316 315 316 316 316 315 316 315 318 322 321 321 323 322 318 317 319 321 322 326 328 327 326 327 325 319 316 316 315 314 313 312 312 312 312 312 312
315 317 317 317 319 319 319 319 319 317 317 315 315 315 317 320 319 320 321 322 320 318 316 316 315 316 316 315 315 315 316 317 315 316 314 313 312 312 312 313 312 311 309 307
317 317 317 319 318 320 320 319 319 319 317 314 317 317 319 317 316 316 315 318 318 318 317 316 314 314 314 314 314 313 313 314 314 312 312 311 312 312 313 312 310 309 307 305
317 318 320 319 319 319 323 321 320 319 317 313 315 318 318 318 318 318 319 318 318 317 317 315 314 315 314 313 313 313 313 313 312 312 312 312 312 312 309 307 307 306 304 302
320 320 320 320 320 319 322 320 320 320 318 318 318 318 318 318 318 317 316 317 316 315 315 314 315 315 315 314 314 313 313 312 312 311 311 311 311 308 307 307 305 303 302 301
318 318 319 319 319 320 319 321 321 320 319 320 321 322 322 320 319 319 316 315 315 314 313 315 316 316 315 315 314 313 314 313 312 311 311 311 309 307 306 303 302 302 301 300
320 320 319 319 321 319 318 322 322 323 320 321 323 324 323 321 319 319 318 315 314 313 313 313 315 315 315 315 314 314 313 314 312 312 310 309 306 304 302 303 304 303 300 300
321 322 318 317 319 320 321 320 320 327 320 321 319 323 319 318 319 318 317 315 314 313 313 312 314 313 313 312 312 313 311 310 310 306 304 304 304 304 305 304 304 302 301 300
322 321 319 317 317 320 322 316 317 318 315 317 319 319 317 317 316 316 316 317 314 311 310 310 311 311 310 310 310 310 310 308 306 305 306 307 307 306 305 304 303 301 300 299
319 321 318 317 319 319 315 316 321 315 319 319 318 322 321 319 317 314 313 312 312 311 310 309 310 309 308 307 306 306 307 307 307 307 307 306 304 303 302 302 301 300 299 296
320 318 318 320 319 320 319 320 318 316 314 316 316 317 316 319 316 315 313 312 311 310 309 308 308 307 306 305 305 305 304 305 304 303 304 305 305 304 302 300 299 297 296 295
317 314 313 319 318 318 318 319 317 313 321 312 311 315 315 314 314 315 314 312 310 309 308 307 307 306 304 304 301 298 298 297 297 297 300 303 304 303 301 299 298 297 296 294
317 314 315 320 320 317 319 318 320 314 309 314 311 311 315 315 313 313 311 311 310 308 307 306 305 304 302 299 298 298 297 296 296 295 295 295 296 298 302 299 297 294 292 293
317 318 315 318 318 314 315 315 319 316 312 314 312 314 317 315 314 313 311 309 307 306 305 304 304 302 299 298 298 296 296 295 295 294 294 295 297 298 300 295 294 294 293 293
316 317 316 315 315 315 315 315 314 315 315 315 314 316 318 314 313 312 311 309 308 306 305 304 303 301 298 298 296 295 295 294 294 294 294 295 296 297 297 298 297 295 293 293
315 314 313 316 317 317 315 314 314 313 314 314 317 317 313 311 311 310 309 307 307 306 305 304 303 299 298 296 295 294 294 294 294 293 294 294 295 296 296 296 295 295 294 290
312 307 308 313 312 312 310 314 317 316 315 315 313 315 312 312 311 308 306 306 305 305 304 302 301 298 296 295 294 294 294 294 293 293 294 294 294 295 294 295 295 295 293 292
310 310 303 305 303 307 316 314 315 318 317 315 314 312 310 310 308 305 304 304 304 303 303 301 297 296 295 295 294 294 294 293 293 294 294 294 294 293 293 294 293 292 292 291
310 302 306 304 307 306 312 315 315 314 318 315 314 312 310 308 306 306 304 303 303 303 300 299 297 296 295 294 294 294 294 293 293 293 294 293 293 293 293 293 293 292 292 288
310 302 305 308 302 302 308 315 314 313 313 314 312 311 310 307 303 305 305 305 303 300 299 298 296 295 294 295 294 294 293 293 293 293 293 292 292 292 292 292 292 291 288 288
305 301 305 304 300 306 307 311 313 313 311 313 311 309 308 307 303 304 306 304 300 299 298 296 295 295 295 294 294 293 293 293 293 292 292 291 291 291 290 290 289 288 288 287
309 307 305 303 303 310 309 313 312 310 312 311 309 308 308 306 306 306 304 300 297 295 295 294 294 294 294 294 293 293 293 293 292 292 291 290 290 289 289 289 289 289 287 286
312 309 309 311 311 308 309 311 312 311 311 310 308 307 307 306 306 301 298 295 294 293 293 293 293 293 293 293 292 293 293 292 292 291 290 289 289 289 289 289 288 287 286 285
312 313 310 312 314 312 312 314 312 311 310 308 307 307 307 307 301 296 294 293 292 293 293 293 293 292 292 292 293 293 292 292 291 291 290 289 288 289 289 288 286 286 285 285
308 314 313 310 312 314 314 313 311 310 308 308 308 307 307 298 295 294 293 292 293 292 292 292 292 292 291 292 292 291 292 291 291 290 290 289 288 288 288 286 286 286 285 285
312 312 310 312 311 312 311 310 309 309 309 309 308 298 296 295 293 293 292 293 292 292 291 290 291 291 291 291 289 289 290 291 290 289 289 289 288 288 288 287 286 285 285 285

GFSCGP_925_thetae_012.txt.gz
Theta_e
313 313 313 314 312 310 312 313 313 312 312 316 318 318 317 318 317 316 316 316 315 315 314 319 320 325 326 326 326 326 326 325 318 315 317 315 313 312 312 311 311 310 308 307
313 315 315 316 316 316 315 314 315 314 314 317 318 316 315 315 318 317 316 316 315 314 313 313 317 320 322 323 324 324 319 315 317 317 317 315 312 312 311 309 308 305 304 303
314 316 316 317 316 318 319 316 317 315 318 316 318 319 316 317 318 317 316 315 314 314 313 312 313 316 315 315 316 315 316 315 316 315 311 311 311 311 311 308 304 302 301 301
318 317 317 316 317 317 320 318 316 316 317 321 315 323 319 319 320 319 318 315 315 313 311 310 310 312 313 312 311 311 311 311 311 311 311 311 310 310 308 305 302 302 302 302
319 318 317 317 318 318 320 317 316 315 314 314 317 319 316 319 321 320 317 316 315 313 311 311 310 310 310 310 311 311 311 311 311 310 310 310 309 307 304 302 304 305 305 303
317 316 316 317 317 317 317 318 316 316 315 317 317 317 317 319 319 319 317 316 315 313 311 310 311 311 311 311 311 311 311 311 310 309 308 308 307 306 304 304 304 305 304 303
317 317 315 316 320 317 317 317 319 320 317 319 318 319 317 316 316 318 317 315 314 312 311 310 310 310 310 311 310 310 309 307 306 306 306 305 304 304 304 304 304 304 303 302
319 318 316 315 317 318 318 318 318 322 319 320 317 322 319 314 313 315 315 313 311 312 312 309 308 306 306 306 307 307 306 305 305 305 305 304 304 304 303 303 303 303 302 301
319 319 316 315 316 318 318 315 314 316 312 316 317 317 317 316 315 314 314 312 312 310 307 306 306 307 306 306 306 306 305 303 301 300 299 299 301 300 298 297 299 301 301 301
318 317 316 315 317 315 316 314 316 312 316 317 316 318 318 318 317 315 314 312 309 307 306 305 305 304 305 305 305 305 301 297 297 296 296 295 294 294 293 293 294 295 299 298
316 314 315 316 317 317 317 316 313 313 311 312 313 316 312 315 317 313 311 310 309 307 305 303 303 303 302 302 301 299 298 297 296 295 294 294 293 292 292 291 292 297 298 297
315 313 313 317 315 316 316 317 311 309 314 308 307 311 310 311 311 311 310 309 306 305 304 303 303 301 298 297 297 298 297 296 295 294 294 293 293 292 292 292 292 294 296 296
313 313 316 317 314 314 318 317 312 309 308 315 310 311 312 311 311 310 309 307 306 304 303 302 302 301 297 296 297 296 296 295 295 294 294 293 293 293 292 292 293 293 294 294
313 313 313 315 315 312 314 317 313 311 309 311 310 311 315 312 312 309 308 306 304 303 303 301 300 299 297 297 297 296 295 295 294 294 293 293 293 293 292 292 293 293 294 294
311 314 314 314 313 313 313 313 315 314 312 313 312 310 310 312 311 309 307 305 304 304 302 301 300 298 297 297 296 295 295 294 294 293 293 293 293 293 292 292 292 293 293 294
308 310 309 317 313 311 314 311 311 312 312 312 313 312 310 310 308 308 307 305 305 304 303 302 301 299 297 297 296 295 294 294 293 293 293 293 293 293 292 292 292 292 294 293
306 305 304 304 307 306 306 308 309 310 309 310 313 311 310 311 310 309 306 305 304 303 303 302 301 301 298 297 296 295 294 293 293 293 293 293 293 292 292 292 292 292 292 292
304 303 299 303 301 303 308 308 310 312 313 311 312 311 310 311 308 307 305 304 303 302 302 301 301 301 298 296 295 294 293 293 292 293 293 292 292 292 291 291 291 290 290 292
304 300 303 303 303 304 307 312 313 313 312 312 311 310 309 306 306 307 304 302 302 301 301 301 300 298 296 295 294 293 293 292 293 293 292 292 292 291 290 290 290 289 290 289
304 298 302 298 300 301 305 308 311 311 313 311 309 308 308 306 306 311 303 301 301 302 301 298 296 294 293 293 293 293 292 291 291 292 292 292 292 291 290 289 289 288 287 287
305 301 299 299 297 303 303 310 310 314 311 310 309 308 305 307 307 304 302 301 302 299 295 294 293 293 293 293 292 291 291 292 292 292 292 291 291 290 289 288 288 288 287 287
310 307 302 300 299 306 305 311 312 310 307 309 308 306 307 305 302 303 303 297 293 292 293 293 293 292 292 291 290 291 291 291 290 290 290 290 290 289 289 288 288 287 287 286
310 306 306 305 306 305 305 308 308 307 308 309 308 306 307 304 304 304 297 293 291 292 292 292 292 291 290 290 290 291 290 289 289 289 289 289 289 289 288 287 287 286 285 285
309 306 305 308 309 307 306 306 308 308 308 308 306 306 305 305 304 298 293 291 291 291 291 291 290 289 290 289 290 290 289 288 288 289 289 289 288 289 288 287 286 285 285 285
307 308 309 307 308 308 308 308 308 308 308 308 307 306 305 303 298 295 293 292 291 291 291 290 289 289 289 289 289 289 288 288 288 288 288 287 287 288 288 286 286 286 286 285
307 309 307 308 307 308 307 308 309 309 309 307 306 304 301 299 295 293 292 292 292 291 290 289 289 289 289 289 288 287 287 288 288 288 288 287 286 287 287 287 286 286 285 284

GFSCGP_925_thetae_015.txt.gz
Theta_e
315 317 317 316 312 311 312 313 314 313 315 322 322 322 321 320 321 322 322 322 322 321 319 321 323 325 326 326 326 325 325 324 324 318 314 315 315 313 311 310 309 309 307 305
317 318 315 316 316 316 316 316 317 317 318 321 321 323 322 321 320 320 322 322 322 321 320 320 321 323 325 326 326 325 325 321 317 318 317 315 313 312 310 308 307 305 303 302
318 316 315 317 317 320 318 318 317 320 320 320 322 323 324 322 321 320 319 319 320 322 322 320 320 322 322 323 323 316 315 315 316 315 313 312 311 310 308 305 304 303 303 304
319 316 316 317 319 318 321 317 318 321 321 323 317 322 323 324 324 323 321 321 320 319 319 317 315 314 314 313 314 314 312 311 310 310 309 309 310 310 307 304 303 304 304 303
319 318 318 319 318 318 320 316 318 316 317 318 320 324 321 324 326 325 322 319 318 316 315 313 311 310 309 310 309 309 309 309 309 309 309 309 308 307 305 304 304 304 304 303
317 315 316 317 316 316 318 319 319 318 319 322 319 321 322 325 327 324 321 319 317 315 314 312 311 310 309 308 309 309 309 307 307 306 305 304 304 304 304 304 304 304 303 303
318 318 315 316 320 318 319 321 325 327 328 324 319 321 322 320 320 323 322 320 318 316 314 313 312 311 310 309 308 307 307 305 305 304 304 303 303 303 303 303 303 301 301 302
320 319 317 315 318 320 319 321 327 326 327 324 319 326 323 317 317 320 320 319 317 316 314 313 311 308 307 306 306 305 305 304 303 301 299 299 298 298 296 294 294 296 297 298
322 321 315 314 315 318 319 319 317 319 314 320 320 319 318 317 316 319 318 318 318 316 314 312 308 307 306 305 305 304 303 300 298 297 296 295 294 294 293 292 292 292 291 295
319 320 315 315 316 316 317 315 320 318 320 319 317 320 322 320 319 319 318 318 317 315 312 310 308 306 306 306 305 301 298 297 297 296 295 294 294 293 293 292 291 291 291 296
315 318 318 316 318 320 319 318 315 316 316 317 318 317 317 319 319 319 320 317 316 313 311 309 305 304 304 304 301 297 297 298 297 296 294 294 293 293 292 292 291 292 292 294
315 317 321 318 315 316 316 317 316 319 315 313 316 318 312 315 316 317 316 314 313 312 309 306 304 302 301 299 297 298 298 299 297 295 294 294 293 293 292 292 292 292 292 293
315 318 322 320 316 315 318 317 312 312 314 317 327 317 312 314 314 314 315 312 311 310 307 305 303 300 298 297 297 298 299 300 295 294 294 293 293 293 292 292 292 291 292 293
314 314 318 321 316 315 317 318 313 315 318 316 319 316 313 316 315 313 312 311 310 308 306 305 304 301 297 297 298 301 301 296 294 294 294 293 293 293 292 292 292 292 292 293
313 317 315 314 313 314 313 315 314 314 314 320 316 314 313 315 316 313 311 310 309 307 306 305 304 300 298 297 300 302 298 294 294 294 293 293 293 293 292 292 292 292 292 293
309 315 311 316 313 312 315 313 312 314 314 313 313 315 312 312 311 311 311 309 309 307 306 305 303 301 297 298 299 299 295 294 293 293 293 293 292 292 292 292 291 292 292 292
310 311 310 312 308 308 313 312 313 312 312 315 317 316 313 313 312 313 311 309 308 308 306 305 304 302 300 299 299 296 294 293 293 293 292 292 292 292 292 292 291 291 291 290
307 306 304 313 306 314 312 311 310 312 311 311 312 312 313 313 311 310 310 309 308 307 306 304 303 302 301 299 297 295 293 293 293 292 292 292 292 292 292 291 291 290 289 290
305 307 307 316 311 308 309 308 313 315 314 313 313 312 311 309 310 312 309 308 308 307 305 302 301 300 297 295 294 293 293 293 292 291 291 291 291 291 291 291 290 289 289 288
305 303 312 307 311 312 310 306 312 312 318 312 313 312 311 311 318 316 309 307 305 304 302 300 296 294 293 292 293 293 292 291 291 291 291 291 291 290 290 290 289 288 288 287
312 307 311 303 314 310 306 309 310 316 316 310 312 311 310 314 316 309 306 305 304 301 296 295 293 293 292 292 292 291 290 291 291 290 289 289 290 289 289 289 288 288 287 286
314 313 311 303 309 314 305 312 316 315 309 310 311 310 311 311 306 305 304 301 297 294 293 292 292 292 292 291 290 290 290 290 289 288 289 289 289 289 288 288 288 287 286 286
314 312 314 310 313 308 306 312 309 308 310 311 311 310 310 308 306 305 301 296 294 292 292 292 292 291 290 290 289 290 290 289 288 288 289 289 289 288 288 288 288 287 285 285
310 306 311 310 310 307 307 308 307 308 311 310 310 310 308 309 306 303 296 294 293 292 292 291 290 290 290 289 289 289 289 288 288 288 288 289 288 287 288 288 286 286 285 285
310 308 310 310 310 309 309 309 311 310 309 309 309 309 308 308 305 299 295 292 291 291 292 290 290 289 289 289 289 289 288 287 287 288 288 287 287 286 287 288 286 285 285 286
309 312 314 316 312 311 311 308 308 310 311 311 310 307 305 303 299 294 293 292 292 293 290 289 289 289 289 289 288 287 287 287 287 287 288 288 288 287 287 287 287 286 286 285

GFSCGP_925_thetae_018.txt.gz
Theta_e
318 319 318 318 317 316 316 317 317 318 321 323 322 323 323 324 329 330 329 330 330 329 327 328 329 329 330 331 331 330 327 326 325 324 321 319 319 317 314 312 310 310 309 308
319 319 319 320 318 318 318 317 320 320 321 324 324 325 324 323 326 329 330 330 329 328 329 329 330 330 330 330 330 329 328 325 323 322 321 321 319 315 312 310 308 308 307 306
320 321 319 320 320 320 321 321 322 321 322 323 324 325 326 324 324 324 326 328 328 329 330 330 330 331 330 329 329 327 324 322 321 320 318 316 315 313 312 310 309 306 307 306
322 319 320 321 321 321 322 320 322 323 323 322 323 322 327 327 327 326 326 327 328 329 330 330 328 326 327 325 321 320 319 318 315 314 314 315 315 315 311 308 307 307 307 306
322 321 321 322 322 321 323 321 323 322 323 323 324 323 327 328 328 329 329 329 330 330 327 323 321 321 320 318 317 315 314 312 313 313 313 313 311 309 308 308 307 307 306 305
321 319 321 321 320 321 321 322 322 322 323 324 323 324 322 329 328 329 328 327 327 325 321 318 317 315 315 314 314 313 312 312 311 311 310 309 308 307 306 305 303 301 300 300
322 321 320 321 322 322 323 323 324 325 326 325 323 323 321 323 325 328 328 325 324 322 319 317 315 314 314 314 313 312 311 310 309 307 305 305 304 303 301 299 298 298 297 297
321 324 320 320 322 322 323 323 323 321 324 321 323 322 322 322 322 326 326 324 322 321 319 318 316 315 314 313 312 311 310 308 306 304 304 301 299 298 298 297 297 296 296 296
322 321 319 319 320 321 322 322 322 325 322 325 321 323 323 321 322 324 326 323 322 321 319 318 316 314 313 312 311 309 307 304 302 301 299 299 298 298 298 297 296 295 295 295
323 324 320 320 320 320 322 320 324 324 325 322 319 320 319 324 323 323 325 323 322 321 320 318 315 313 312 311 309 306 303 301 300 299 298 298 298 297 297 297 296 295 295 295
321 322 322 321 322 323 322 322 319 321 322 318 316 316 321 321 323 323 324 323 322 321 320 318 314 312 311 309 306 303 302 301 299 299 298 298 297 297 297 296 295 294 294 294
320 323 326 323 320 320 321 322 319 319 319 321 324 318 317 320 321 322 323 322 322 321 320 317 313 311 310 308 304 302 301 300 300 299 297 297 297 297 296 296 295 294 294 294
321 324 326 324 321 320 322 321 319 319 321 321 330 317 317 319 320 321 322 322 321 320 318 315 312 309 308 305 303 301 300 301 299 297 297 297 297 297 296 296 294 294 294 294
316 323 324 326 321 321 322 322 319 319 321 318 320 316 317 317 319 320 320 321 320 318 316 314 311 308 306 303 300 300 302 301 299 297 297 297 297 296 296 295 294 294 293 293
321 323 320 318 318 317 318 320 320 319 319 319 316 316 314 316 317 318 319 319 318 317 315 313 312 308 304 301 300 303 303 302 298 297 297 297 296 296 295 295 294 294 293 293
317 323 318 320 318 317 318 318 318 319 319 318 318 318 317 317 317 318 318 318 317 316 314 312 311 309 305 303 301 303 303 299 298 297 297 296 296 295 295 294 294 293 292 292
320 320 318 319 315 316 321 318 317 317 318 319 319 318 317 317 317 317 318 317 316 315 314 312 311 309 306 302 303 302 301 298 297 296 296 295 295 294 294 293 293 293 292 292
315 316 315 321 313 329 315 314 314 316 316 316 316 316 316 316 317 317 316 317 316 314 313 313 311 307 305 303 302 301 298 296 296 295 295 294 293 293 293 293 293 293 292 292
313 316 318 328 318 315 312 311 312 316 315 316 316 315 315 316 316 318 315 315 316 314 313 312 309 306 303 301 299 297 296 295 295 294 293 292 293 292 292 292 292 292 292 291
311 312 319 317 333 333 315 312 315 316 317 314 316 317 317 316 322 315 317 315 314 313 312 309 305 301 299 297 296 296 296 294 293 293 292 292 291 292 292 292 292 292 291 290
320 319 325 319 327 318 313 311 315 316 315 316 316 317 317 319 318 316 314 315 313 312 309 305 300 299 297 296 295 295 293 292 292 291 291 291 291 291 291 291 292 291 291 289
321 322 323 315 326 325 310 315 320 318 317 315 316 317 318 318 316 313 312 313 312 309 303 300 298 296 294 293 293 293 292 292 291 291 291 291 291 291 290 291 291 291 290 289
319 319 320 317 318 313 312 316 316 315 316 316 316 315 316 316 315 312 310 308 305 301 299 296 294 293 293 292 292 292 292 291 291 291 291 291 291 290 290 291 291 291 290 289
315 312 317 316 315 314 313 312 312 312 314 314 314 314 314 315 315 312 308 304 300 298 295 293 294 295 293 291 291 291 291 291 290 290 291 291 290 289 288 289 290 290 290 289
316 314 316 316 315 314 314 314 313 313 314 315 314 314 315 314 314 311 305 301 297 292 294 297 294 292 292 291 291 291 290 289 290 290 290 290 289 289 288 288 288 290 289 288
313 316 319 319 315 315 315 313 313 314 315 314 314 315 311 311 311 307 300 294 296 297 297 292 291 291 291 291 291 290 289 288 289 290 290 290 289 290 289 289 289 289 287 287

GFSCGP_925_thetae_024.txt.gz
Theta_e
322 322 321 322 321 320 319 320 319 319 320 320 320 320 319 322 325 329 329 330 331 330 330 329 329 328 326 335 335 333 332 330 328 324 325 327 325 322 320 317 316 314 313 312
321 321 321 321 321 320 319 320 318 318 318 319 318 318 320 321 324 327 328 330 331 330 331 331 331 330 331 335 335 333 331 329 328 328 328 326 322 321 317 315 314 312 312 311
323 323 323 321 320 319 319 321 321 319 317 316 322 318 321 320 323 325 327 327 329 330 332 332 332 333 332 335 334 331 331 330 330 329 325 321 318 316 315 314 312 312 311 311
325 323 323 321 320 319 322 323 322 322 321 320 323 325 326 326 323 324 326 327 328 329 331 332 333 333 333 332 332 331 330 329 326 324 322 320 318 317 315 313 313 312 311 309
327 320 320 320 323 323 323 322 324 322 321 326 325 324 326 326 326 326 327 329 330 329 331 332 333 333 332 331 331 331 328 324 322 319 319 318 316 314 313 311 308 307 303 301
321 321 323 323 322 322 323 323 324 321 322 330 323 327 325 326 326 323 326 327 329 330 331 331 332 331 330 329 326 324 321 318 318 318 317 315 312 310 307 303 302 301 300 299
321 319 321 323 320 321 320 321 325 331 333 332 322 323 327 325 326 328 330 327 328 330 332 332 330 327 325 324 321 318 317 317 316 314 311 309 305 304 303 303 301 300 299 299
321 327 321 320 320 326 325 320 328 333 331 328 324 324 322 325 325 326 329 330 331 332 330 327 326 324 322 320 319 317 317 316 313 310 307 304 303 304 302 301 300 299 299 298
327 324 323 322 321 320 321 322 322 326 331 329 321 318 320 323 323 323 330 330 332 330 326 324 322 321 320 319 318 317 316 313 310 307 304 304 303 300 301 301 300 299 298 297
327 328 325 322 321 321 321 320 325 323 325 324 320 319 323 325 322 323 328 330 330 329 324 322 320 320 319 319 317 316 315 312 308 306 305 303 301 301 301 300 300 299 297 297
322 325 323 323 322 318 323 322 320 320 329 334 331 321 320 320 321 323 325 329 329 328 324 322 320 320 319 318 317 317 314 309 306 306 304 301 301 301 301 300 300 299 297 297
320 321 329 321 322 322 322 324 322 336 326 332 334 325 320 320 319 322 323 325 327 327 324 322 321 320 319 318 317 315 311 307 308 305 302 301 300 301 301 300 300 299 297 296
323 323 326 322 323 323 322 321 320 323 329 330 334 326 320 319 318 319 321 323 326 326 325 323 322 320 319 318 317 313 309 308 307 304 303 302 301 301 300 300 299 298 297 296
323 322 321 327 323 324 326 323 320 321 333 329 325 319 319 319 319 319 320 320 322 325 325 324 322 321 319 318 316 313 309 308 306 304 303 301 301 301 300 300 299 298 297 296
323 324 322 321 321 322 323 322 321 320 322 324 324 320 319 318 318 318 319 320 320 320 323 323 324 321 319 317 316 312 309 308 306 305 302 301 301 300 300 299 299 297 297 296
323 327 326 327 323 323 322 321 320 319 318 319 319 319 318 318 319 318 318 317 318 319 319 321 323 322 319 317 316 312 309 307 308 305 303 301 300 300 299 298 297 296 296 295
328 333 328 325 320 320 321 322 320 318 319 319 320 321 319 318 317 318 318 318 318 318 318 319 321 321 319 317 315 311 308 307 307 304 301 301 299 299 298 296 295 295 295 295
329 329 329 330 319 324 316 317 316 316 316 316 315 317 316 319 318 317 316 318 318 318 318 318 319 319 318 316 313 310 307 306 305 301 300 299 299 297 295 294 294 294 294 294
323 327 329 331 324 319 317 316 316 316 316 316 316 315 315 316 316 318 318 318 317 316 316 316 316 317 316 315 313 308 306 304 301 300 299 298 295 294 294 293 293 293 293 293
318 324 330 325 331 330 322 316 316 316 320 316 316 317 316 316 324 320 318 317 316 315 315 315 315 316 315 312 308 304 302 300 299 297 295 295 293 293 293 293 293 293 293 294
325 327 326 327 329 327 318 316 316 319 325 318 317 317 318 319 320 319 318 317 315 315 315 316 313 308 301 300 301 298 297 296 295 295 293 293 293 293 293 293 293 293 293 293
325 329 328 330 327 326 315 316 320 323 319 318 317 317 318 319 319 318 317 316 315 314 313 307 300 299 298 298 297 296 295 295 294 293 293 293 292 292 293 293 292 292 292 293
327 326 331 325 327 320 316 316 315 317 317 317 317 317 317 318 317 317 317 316 313 309 300 299 298 297 296 295 295 294 294 294 293 293 292 292 292 292 292 291 291 290 290 291
321 319 325 322 316 316 316 315 315 316 317 316 317 318 318 319 318 317 316 312 307 300 299 299 297 295 294 293 293 293 293 293 292 292 292 292 292 292 291 291 291 291 290 290
323 319 319 320 318 317 317 318 318 317 317 317 317 315 313 314 315 311 304 301 300 298 296 295 294 294 294 294 293 293 293 292 292 291 291 291 291 291 292 291 291 291 290 289
320 319 326 327 319 320 319 315 315 313 312 311 310 307 305 304 303 301 301 298 295 294 294 295 294 294 294 293 293 293 292 291 291 291 291 291 290 291 291 291 291 290 290 289

GFSCGP_925_thetae_027.txt.gz
Theta_e
320 318 319 320 320 320 320 318 317 315 317 321 320 318 317 317 324 324 327 328 326 324 325 325 325 329 330 330 329 330 330 331 328 320 322 325 325 321 321 317 315 314 312 312
320 320 320 321 320 321 321 321 319 316 317 317 317 316 316 318 320 326 323 324 326 326 325 327 329 328 332 331 331 332 331 329 326 320 323 326 322 321 316 316 314 312 311 311
323 322 322 321 321 322 322 322 320 319 316 315 320 317 320 319 320 324 324 325 327 326 328 328 329 332 334 333 331 331 331 329 328 326 326 326 322 316 315 314 312 312 311 311
322 322 321 321 322 320 320 322 321 321 321 316 319 320 325 323 322 322 322 323 327 326 329 329 330 331 334 333 332 331 330 329 327 327 328 324 317 314 314 313 312 311 310 308
323 324 322 322 322 321 322 320 321 323 322 323 322 321 320 323 320 323 321 322 321 327 329 330 330 333 334 333 331 330 328 328 329 329 321 318 316 314 314 312 309 305 304 302
322 320 322 321 321 320 321 321 323 323 322 323 322 322 324 324 323 324 324 323 324 323 326 328 331 332 332 331 330 330 329 323 319 321 319 317 314 311 307 305 305 302 301 299
319 320 321 322 321 322 322 321 323 324 324 326 325 324 324 323 322 324 324 322 322 326 327 329 330 330 328 329 330 326 320 317 317 317 314 313 311 308 308 305 304 301 299 298
322 323 322 321 320 323 320 322 326 328 330 326 325 326 322 321 322 323 323 321 323 326 327 327 324 323 322 321 319 317 317 316 316 314 310 307 307 307 306 304 300 299 299 298
324 325 323 324 322 321 321 319 324 327 325 328 323 317 321 322 323 324 322 322 327 326 323 323 321 321 321 320 318 317 316 315 313 311 308 308 306 307 302 301 300 299 298 297
325 325 324 324 322 320 320 320 322 322 323 323 318 320 325 322 322 324 323 327 327 324 320 320 320 319 320 319 318 317 316 313 310 307 306 305 305 301 301 300 300 299 298 297
322 326 327 324 324 321 321 320 319 319 320 322 322 320 318 318 320 321 325 328 327 324 320 318 317 318 319 319 318 317 315 311 308 305 305 305 302 301 301 300 300 299 298 297
322 322 324 325 321 321 321 322 323 318 320 319 317 319 317 316 318 318 318 325 325 323 319 317 317 317 317 318 317 316 314 310 306 306 306 303 301 301 301 300 300 299 298 297
323 320 317 318 319 322 322 321 320 323 319 320 316 318 316 316 316 317 318 319 323 322 319 317 316 317 317 317 316 316 312 308 306 306 305 302 301 301 301 301 300 299 298 297
322 322 318 317 319 321 323 324 322 319 317 318 318 321 317 315 315 315 315 317 319 322 321 318 317 317 317 316 316 316 310 307 307 306 305 303 302 301 301 300 300 299 298 297
320 320 321 323 324 323 322 323 322 320 320 319 319 321 318 316 314 314 315 316 317 316 319 319 318 316 317 316 314 313 311 308 307 305 304 303 302 301 301 300 299 298 297 296
321 323 323 322 321 319 318 319 319 318 319 317 318 318 315 314 314 313 313 313 315 315 314 315 318 317 316 315 313 313 310 308 306 304 305 304 301 300 299 298 298 296 295 295
321 317 316 320 316 314 311 313 317 318 318 317 316 315 314 315 315 314 314 314 314 315 314 315 316 317 316 316 315 312 309 307 306 307 305 301 299 299 297 295 296 294 294 294
319 319 313 315 312 308 313 315 314 315 314 313 312 313 313 313 312 313 311 312 312 313 313 313 314 317 318 317 316 312 308 307 307 303 299 299 297 296 296 294 293 293 294 293
322 314 317 313 315 314 315 316 317 315 315 314 314 313 313 312 311 315 314 312 312 312 311 313 314 315 313 313 310 307 305 300 299 298 296 295 294 294 293 294 293 293 293 293
316 314 311 313 315 312 316 315 315 314 315 316 314 314 315 313 310 316 315 313 312 311 307 301 300 300 300 300 300 297 296 295 295 294 294 294 295 294 293 292 293 292 292 293
313 312 311 309 310 315 319 315 315 311 313 316 314 314 314 315 315 315 315 313 306 303 300 299 298 297 296 297 296 295 295 294 294 295 296 295 293 293 293 293 292 293 292 292
316 315 311 315 317 319 315 315 312 316 315 314 313 314 314 315 314 314 313 306 301 299 298 296 296 296 297 297 296 295 294 294 295 294 294 293 293 292 292 292 292 292 291 290
318 319 316 317 315 316 313 313 313 312 312 314 314 314 315 315 315 314 306 299 298 298 297 295 295 294 294 294 295 294 295 296 293 293 293 292 292 292 292 292 291 291 291 290
319 318 316 315 316 315 313 314 315 315 315 313 310 309 311 312 308 301 300 299 298 297 296 295 294 294 294 294 293 293 293 293 293 292 292 291 292 291 291 291 291 291 291 290
317 316 317 316 316 318 316 315 314 311 310 306 304 303 302 302 301 299 298 296 295 294 294 295 295 294 294 294 293 293 293 293 292 291 291 291 291 291 291 291 291 291 290 290
316 316 312 311 318 315 313 310 309 308 306 306 304 302 301 301 299 297 295 294 294 294 294 294 294 294 294 293 293 293 292 292 292 291 290 290 290 290 290 290 290 291 290 289

GFSCGP_925_thetae_030.txt.gz
Theta_e
319 316 318 318 317 319 319 319 318 317 314 320 319 317 326 324 325 325 322 322 322 326 327 328 333 332 329 329 331 329 328 330 328 324 321 323 324 320 319 317 316 315 314 313
318 319 319 319 320 320 320 320 319 317 316 319 318 317 319 318 324 324 324 324 323 321 321 325 330 329 328 329 329 328 327 330 328 325 321 323 324 320 319 317 314 313 311 311
320 320 320 320 320 320 320 320 320 320 315 313 315 318 319 318 323 325 325 325 324 323 323 322 325 328 328 328 329 328 328 330 329 326 321 325 323 320 314 313 312 311 311 311
320 320 320 320 320 320 319 319 320 320 318 315 315 320 320 321 319 326 323 321 325 324 324 325 326 329 329 329 329 328 328 329 329 325 321 325 321 314 314 313 312 311 310 309
319 322 320 321 320 320 320 319 319 321 320 319 320 317 317 321 317 322 320 320 321 324 325 326 329 331 330 330 330 329 329 329 328 324 323 326 321 315 314 312 311 310 309 305
319 319 320 320 321 319 319 320 320 321 321 322 322 318 318 321 320 318 320 320 320 321 325 326 330 332 331 330 330 330 330 329 328 327 325 327 322 315 313 311 311 306 300 299
320 320 319 321 320 320 320 318 320 321 322 321 323 321 318 321 320 319 320 318 319 324 325 328 329 331 331 330 330 330 328 328 328 328 327 323 319 315 313 310 305 300 299 298
319 322 322 321 320 320 319 318 320 324 323 322 323 325 323 319 319 320 319 318 322 324 327 329 328 329 329 329 329 324 325 319 319 322 319 316 314 312 309 306 302 300 299 297
322 322 321 321 321 320 319 318 319 322 321 325 322 319 319 320 321 322 320 319 324 324 326 325 322 324 324 323 322 322 317 315 314 314 313 309 308 307 304 302 300 299 298 297
322 321 321 322 321 320 319 318 320 320 325 326 318 318 322 322 322 320 323 320 324 323 323 322 321 319 320 319 319 318 317 315 313 311 308 307 305 305 302 301 300 299 298 297
321 319 321 322 323 321 319 319 318 318 316 320 320 318 313 318 319 323 320 319 325 324 324 322 321 319 319 317 316 316 316 315 313 310 308 307 306 302 301 301 300 299 299 299
321 322 320 322 320 321 318 320 320 316 317 315 315 318 316 314 317 320 321 323 325 323 322 321 320 318 317 317 316 316 315 314 313 309 308 306 305 302 301 300 300 300 300 299
319 319 316 318 316 318 320 319 319 319 314 318 316 317 314 313 313 315 317 322 324 323 318 319 318 317 317 317 316 314 313 311 309 306 306 305 303 301 301 301 300 300 299 297
318 317 316 317 315 316 322 323 322 319 316 317 316 318 318 315 313 312 313 315 321 322 319 316 316 317 317 316 315 313 309 309 308 305 305 305 302 301 301 301 301 300 298 297
317 319 318 317 321 322 319 321 322 319 318 318 317 318 317 316 314 312 311 314 318 320 319 316 314 314 316 316 315 312 309 309 307 306 306 305 303 301 301 301 300 298 297 297
318 319 321 321 318 317 318 316 317 318 318 318 317 317 311 311 312 312 311 312 312 312 314 316 315 314 315 315 314 311 309 307 306 305 305 304 302 301 301 299 297 296 295 294
318 315 314 319 313 312 313 313 314 316 317 317 314 315 312 312 313 312 312 312 312 312 313 316 315 314 314 314 314 313 310 307 305 304 303 302 300 297 295 295 295 294 294 294
316 314 310 313 309 311 314 313 313 313 312 311 312 312 312 313 312 311 310 309 310 310 310 309 311 315 315 314 313 311 307 305 305 303 300 297 295 294 295 296 295 294 294 293
319 313 315 311 312 313 314 315 312 313 315 313 312 313 312 313 313 314 312 310 308 305 301 300 299 302 305 308 307 304 301 298 295 294 294 294 296 297 298 297 294 293 293 292
315 309 311 312 312 310 312 314 313 312 314 314 313 313 315 312 310 314 310 305 300 299 299 298 298 297 297 296 297 296 294 294 294 295 296 298 299 298 295 292 292 293 292 292
310 308 309 304 307 310 312 314 312 310 309 313 312 312 313 313 312 310 302 300 299 298 297 297 296 296 296 296 296 295 295 295 297 299 299 298 296 293 293 292 292 292 292 291
314 312 309 313 311 315 314 313 312 309 312 311 311 312 312 312 309 303 300 300 298 297 297 296 296 296 296 298 298 298 298 299 299 298 295 293 293 293 292 292 292 291 291 290
315 313 312 313 313 313 312 313 313 311 312 313 313 314 313 312 305 300 299 298 296 295 295 295 295 295 295 295 296 295 295 294 293 293 293 293 291 291 292 291 291 291 291 291
316 317 315 314 315 314 315 314 313 313 309 306 307 308 307 301 300 299 298 297 296 295 295 294 294 294 294 294 293 293 293 293 293 292 291 291 291 291 291 291 290 291 291 291
314 314 315 313 316 315 313 310 309 305 304 303 302 301 301 300 299 297 296 295 295 294 294 295 294 294 293 293 293 293 292 292 292 291 291 290 290 290 290 290 290 290 290 290
313 314 311 311 314 312 311 308 306 305 304 302 301 300 299 297 295 294 294 294 295 294 294 294 294 293 293 293 293 292 292 292 292 291 291 290 290 289 289 290 290 290 290 290

GFSCGP_925_thetae_033.txt.gz
Theta_e
317 316 317 317 316 318 319 319 319 318 317 319 319 318 324 322 324 325 323 325 332 330 328 330 329 328 330 332 331 329 329 328 328 326 323 321 321 320 319 319 319 317 317 315
316 319 317 317 318 319 319 320 320 317 315 315 316 317 321 323 325 325 324 323 324 331 330 331 331 330 331 332 330 329 328 328 328 326 323 321 322 320 318 317 315 315 314 313
318 318 319 319 319 320 318 320 319 320 317 314 315 317 317 316 323 323 323 323 323 325 329 329 331 331 330 329 329 330 328 328 327 326 322 322 323 320 318 315 314 312 311 310
318 318 320 320 320 318 320 318 318 319 317 313 313 317 318 316 322 324 325 322 322 322 325 326 329 330 329 327 328 329 328 328 328 326 322 323 324 318 318 316 313 311 310 310
318 321 320 320 318 318 319 319 318 320 319 317 318 316 315 319 317 323 324 323 323 321 322 323 326 329 329 327 327 328 328 327 327 327 323 323 322 319 316 312 311 310 309 308
317 318 318 317 319 318 319 319 317 318 319 319 321 317 317 319 318 319 324 323 321 319 320 322 323 327 327 327 327 328 327 326 326 327 323 322 322 317 314 311 310 308 304 300
318 319 318 320 319 318 318 316 317 318 320 320 320 320 319 317 317 317 318 320 318 319 322 324 327 328 327 328 328 328 327 327 327 328 327 322 323 319 316 312 310 303 300 298
319 318 320 321 319 320 319 316 318 322 321 319 321 324 320 318 317 316 316 315 316 319 324 327 329 329 328 328 328 328 328 328 328 328 327 326 323 320 315 311 307 302 299 298
319 320 320 320 320 319 320 318 317 320 319 322 320 319 315 317 320 318 318 319 321 321 324 327 329 330 329 328 328 328 329 329 328 327 326 325 324 318 314 311 303 299 298 297
317 319 319 319 320 319 319 317 318 317 323 325 319 317 319 320 319 319 319 318 322 322 324 324 326 326 327 329 327 327 329 327 323 321 322 322 316 313 311 305 301 300 299 298
319 316 317 322 320 319 318 318 316 316 315 318 318 318 312 318 318 318 317 318 319 322 323 323 324 323 324 324 327 327 325 320 316 317 316 313 309 308 305 303 301 301 300 298
318 316 317 320 318 318 318 319 316 316 317 314 314 317 313 312 313 315 318 318 319 322 322 322 322 319 318 321 322 321 317 314 313 311 311 310 308 305 304 302 300 300 299 299
319 318 317 318 317 316 320 318 319 316 312 316 315 316 313 311 311 311 316 317 320 321 321 320 318 318 317 316 316 314 312 309 308 309 309 306 305 305 303 301 301 300 300 299
316 315 317 319 318 316 320 321 318 318 316 316 314 316 316 314 313 312 310 312 318 321 319 318 317 317 318 316 314 313 311 309 308 310 307 306 306 304 303 301 300 299 299 298
317 317 315 314 314 320 319 319 320 318 317 317 317 316 316 315 312 310 309 312 316 320 318 315 315 315 316 316 316 314 312 309 310 308 306 306 305 303 302 301 300 300 298 296
316 316 319 319 316 315 317 316 315 316 316 316 316 316 312 311 312 310 309 310 311 312 316 315 314 314 314 315 314 312 312 311 309 306 304 303 302 301 301 299 297 295 294 295
316 313 314 318 312 312 313 312 313 314 315 315 314 312 312 313 311 310 310 311 311 312 311 312 313 312 313 314 315 312 309 308 305 304 303 302 301 299 296 294 295 298 298 297
313 311 309 312 309 312 315 312 311 312 312 310 311 311 312 311 310 309 308 308 307 307 305 302 301 308 311 312 312 309 307 305 303 299 297 296 295 296 298 298 298 297 295 294
315 310 312 312 312 313 314 311 312 312 314 312 311 311 312 312 312 312 308 304 302 300 299 297 298 299 301 302 302 302 298 297 296 295 296 297 298 298 298 298 298 297 295 293
310 308 314 308 311 313 313 311 312 311 313 312 311 311 312 310 308 312 305 301 299 297 297 296 296 296 296 296 296 295 294 295 295 297 298 299 298 298 297 296 295 293 292 292
311 308 311 304 308 309 308 312 309 313 312 311 311 311 311 311 309 305 300 298 297 297 296 296 296 295 295 296 297 296 297 298 298 298 298 299 298 297 295 293 293 292 292 292
315 313 309 307 307 313 311 312 310 308 311 311 310 310 311 307 302 300 299 297 297 296 296 296 295 296 296 297 297 297 296 297 298 298 297 296 295 293 292 292 292 292 291 291
315 312 313 313 312 310 311 310 310 309 310 309 310 310 309 302 300 299 298 296 295 293 294 294 294 294 295 296 297 295 294 294 293 293 293 292 291 291 291 291 291 291 290 290
314 313 312 312 315 314 314 311 310 311 310 309 310 309 304 300 299 298 296 295 294 293 293 294 294 294 293 294 293 293 293 292 292 291 290 290 290 290 290 290 290 289 290 290
312 314 314 314 315 313 311 307 304 303 302 302 301 301 300 299 298 297 295 294 294 294 295 295 294 293 293 293 292 291 291 291 291 291 291 291 290 290 290 289 289 289 289 290
312 313 313 313 314 312 311 305 304 303 302 301 299 298 297 297 295 294 294 294 294 294 294 293 293 292 291 290 290 290 290 290 290 290 290 290 290 290 290 290 290 290 290 290

GFSCGP_925_thetae_036.txt.gz
Theta_e
316 315 316 316 315 316 317 318 318 315 315 317 322 321 324 326 328 330 329 329 330 327 326 325 326 325 324 325 329 329 329 329 330 326 326 328 328 325 322 320 320 321 322 320
315 317 316 316 316 318 318 318 317 316 314 315 316 318 324 324 328 328 329 327 328 329 326 325 327 326 325 326 328 331 330 330 330 327 327 326 325 322 320 320 319 319 319 316
317 316 318 318 318 318 317 319 318 318 317 313 315 316 323 321 324 323 325 325 325 328 329 327 328 327 327 327 328 331 331 329 329 327 326 324 321 320 319 318 316 315 314 311
317 316 319 319 319 317 319 316 317 318 316 314 313 315 316 318 325 322 324 322 322 323 326 327 329 329 328 328 329 330 330 329 327 326 326 323 322 320 318 317 314 312 311 310
318 319 319 319 318 317 318 318 318 318 317 316 317 315 314 316 318 324 323 323 321 321 321 325 327 329 329 329 329 329 330 330 326 326 326 322 322 320 318 316 312 310 309 308
316 317 316 316 317 317 318 318 314 316 317 319 318 317 317 318 318 320 322 323 323 320 319 321 325 327 329 329 328 328 328 328 327 326 325 323 322 320 318 314 310 308 307 303
317 318 317 318 319 317 316 314 316 317 319 320 318 319 318 315 314 316 315 319 321 321 319 318 319 324 327 328 326 327 327 327 326 325 325 324 322 322 319 314 310 307 302 300
318 318 318 318 318 317 317 315 316 319 319 317 318 321 318 317 316 315 313 313 317 317 319 319 320 322 325 326 326 326 326 327 326 326 325 324 322 322 318 313 310 306 304 300
317 318 318 319 319 317 318 317 314 318 317 320 317 317 313 316 319 318 317 317 313 315 318 320 321 324 325 326 326 327 326 326 326 325 326 325 325 322 319 313 311 307 302 299
317 316 318 318 319 318 317 315 317 315 322 322 317 316 315 316 318 319 319 317 318 319 319 321 323 326 326 326 327 327 327 327 326 326 325 326 326 319 317 313 309 306 301 298
315 313 314 321 319 317 317 317 314 314 314 317 317 316 311 314 316 316 315 315 315 319 320 322 323 327 327 327 327 327 327 326 325 326 325 324 323 318 315 313 309 305 300 298
316 314 313 317 318 316 315 316 315 316 317 313 313 315 313 310 310 312 313 315 315 317 320 320 321 323 324 325 324 324 325 325 323 321 319 317 316 315 312 311 309 302 300 300
317 315 316 316 315 315 318 317 316 313 311 316 314 315 311 310 311 310 311 312 315 319 320 319 317 318 320 319 319 323 322 321 321 317 315 312 312 310 309 307 303 300 299 300
315 315 315 317 316 315 318 318 316 316 315 315 314 315 314 313 312 311 310 308 310 317 319 318 317 316 317 318 318 318 317 315 314 312 311 310 307 305 302 300 299 299 299 299
314 315 314 314 314 316 317 318 316 317 315 317 317 314 315 313 312 309 308 310 313 319 319 317 317 315 316 317 315 314 313 310 308 308 307 306 304 302 302 301 300 299 298 297
313 316 314 318 315 316 318 315 315 316 316 315 314 314 311 310 310 309 309 311 312 314 316 315 314 315 315 316 316 316 314 312 310 309 306 303 302 302 301 300 300 298 296 295
313 313 313 317 312 313 314 312 313 313 313 314 316 313 310 311 311 311 310 310 309 308 306 304 306 308 310 312 314 312 309 308 307 305 303 302 301 300 297 295 295 297 297 297
310 311 310 311 309 313 314 311 312 312 311 310 310 310 310 309 309 308 306 306 305 302 301 299 298 300 303 306 306 306 306 304 302 300 299 297 297 296 297 297 298 297 296 296
311 309 311 314 312 312 313 311 311 312 311 310 309 310 310 309 310 309 301 300 299 298 296 295 296 296 298 299 300 301 298 297 297 296 296 297 297 298 298 297 296 297 297 296
310 307 312 306 312 314 313 311 309 310 312 310 310 310 311 309 306 310 301 299 297 296 296 295 296 296 297 296 298 297 296 296 297 297 298 298 298 298 298 297 298 296 296 295
311 308 311 303 307 311 310 310 309 312 312 309 310 309 309 309 306 301 298 296 296 295 296 295 295 295 295 296 296 297 297 297 298 298 298 299 299 299 298 295 294 293 292 292
319 315 310 306 307 318 308 311 311 309 309 309 308 308 308 303 300 299 297 296 295 294 294 295 295 296 297 297 298 297 296 297 297 297 296 295 294 293 292 292 291 291 291 291
317 315 315 314 314 311 309 310 308 307 309 309 308 308 305 302 300 298 297 294 293 293 293 294 294 294 295 295 295 293 293 293 292 292 291 290 290 290 290 290 290 290 290 290
313 309 311 311 312 310 311 311 309 310 309 308 309 306 303 301 299 296 294 293 292 293 293 294 293 292 292 292 291 291 291 291 291 291 290 290 290 290 290 290 289 289 289 289
312 311 312 311 314 313 311 309 306 304 303 302 301 300 300 299 297 295 294 293 293 294 294 293 292 291 290 290 290 290 290 290 290 290 289 289 288 288 288 288 287 288 288 288
311 313 313 314 312 311 310 305 303 304 302 300 300 298 297 297 296 294 293 293 294 293 293 292 290 289 288 288 287 287 287 288 287 287 286 285 285 285 285 285 285 284 285 286

GFSCGP_925_thetae_039.txt.gz
Theta_e
317 319 319 317 317 316 318 319 319 318 317 322 326 325 329 331 331 332 332 332 332 331 329 325 325 325 325 325 326 327 328 328 329 328 322 323 324 326 328 327 326 325 323 322
319 321 317 316 316 318 319 320 319 318 315 317 317 320 323 329 331 332 332 332 332 332 329 327 326 325 325 325 326 328 328 328 329 328 324 323 324 326 327 324 321 321 322 320
320 318 317 318 318 319 319 320 319 320 317 315 317 319 322 325 327 328 329 330 330 330 331 327 326 326 326 326 326 328 329 328 328 328 325 324 325 325 320 319 319 319 319 316
319 317 318 319 319 318 320 317 318 319 319 318 314 320 316 322 327 327 329 329 329 329 329 330 327 327 327 326 326 326 328 330 329 328 326 325 324 323 319 317 316 315 314 312
321 318 320 320 319 317 320 318 319 319 319 319 319 320 318 317 323 328 328 327 327 328 327 330 330 329 328 327 327 327 327 328 328 329 326 324 323 321 319 318 314 313 311 310
318 316 318 319 316 317 317 318 316 318 320 324 320 321 322 320 321 323 325 327 326 326 325 326 328 330 329 329 328 328 328 327 327 326 325 325 323 321 319 317 312 311 310 309
317 319 317 317 319 318 318 319 322 320 326 324 320 322 323 319 317 318 320 322 326 326 326 325 325 328 329 329 329 328 328 327 327 327 324 323 322 322 320 318 314 310 308 306
319 319 319 318 320 321 319 320 324 321 323 320 319 323 320 319 317 318 318 317 316 323 325 325 324 325 328 329 329 328 328 327 329 327 327 324 322 322 320 320 317 312 309 306
320 319 317 319 318 318 319 320 317 322 320 325 320 319 317 317 319 320 320 319 317 318 321 323 323 323 325 327 327 328 328 328 328 324 325 323 323 321 321 320 317 312 309 307
319 319 317 318 319 318 319 317 322 321 325 325 320 319 318 318 319 318 320 321 320 320 318 320 322 322 323 326 327 327 327 327 328 325 323 322 322 322 321 320 317 310 308 305
317 317 316 321 321 320 319 320 317 318 319 323 322 320 317 318 317 319 318 317 320 320 323 322 323 325 325 325 326 326 327 327 326 324 323 324 324 322 321 318 316 311 307 304
317 318 319 319 317 316 317 320 320 325 320 318 319 320 315 316 314 313 315 315 318 318 321 323 325 326 327 327 326 326 325 325 323 326 325 324 323 323 321 317 314 310 306 302
318 317 319 318 317 316 320 318 316 316 317 320 328 323 313 314 315 314 313 314 314 319 322 324 324 325 325 324 322 322 322 322 323 322 319 316 314 312 311 312 310 306 302 300
316 317 318 318 319 318 320 319 317 320 322 322 321 321 319 318 317 317 315 313 312 313 321 323 323 322 321 321 321 321 318 317 316 313 310 309 308 308 307 306 304 302 301 300
318 319 317 315 315 316 317 319 318 319 320 324 322 317 318 318 317 315 312 311 316 320 321 321 322 321 320 319 317 317 318 318 316 312 309 307 305 303 302 301 300 299 298 298
315 319 315 316 315 316 319 317 318 318 317 317 317 318 316 314 312 313 311 316 316 315 314 314 314 316 317 317 316 313 310 309 308 307 305 303 302 302 301 300 299 297 297 296
316 317 317 319 313 315 319 317 317 316 316 319 320 320 314 313 313 313 314 313 311 309 308 308 308 308 309 310 311 310 308 306 305 304 302 301 301 300 298 297 296 296 296 297
314 316 315 318 313 323 318 312 314 317 316 314 313 313 312 313 310 309 308 310 307 305 304 303 303 302 302 303 303 303 302 302 301 299 298 298 298 297 296 297 296 296 297 297
313 314 314 321 319 317 314 313 314 315 316 313 313 311 311 311 311 308 303 303 303 301 300 299 298 298 299 299 299 299 299 299 299 298 298 298 297 297 297 297 297 297 297 297
310 311 321 312 321 323 318 313 310 312 317 313 312 313 313 312 319 315 303 301 300 298 298 298 297 297 297 297 298 298 298 298 298 298 298 298 298 298 298 298 298 297 296 296
316 313 319 312 321 318 314 310 311 318 319 312 312 313 314 314 312 307 301 299 298 298 297 297 297 297 297 298 298 298 298 298 298 297 297 297 297 296 295 294 294 293 293 292
321 320 320 313 320 324 311 310 317 318 311 312 312 313 312 306 303 302 300 298 298 297 297 297 297 297 297 297 297 297 296 296 296 295 294 292 292 291 291 290 290 290 290 290
323 320 321 320 323 317 310 315 311 309 312 311 313 310 308 304 302 300 299 298 297 296 296 296 296 295 294 294 295 294 292 292 290 290 290 290 290 290 290 290 290 290 289 289
313 311 319 318 317 314 312 310 311 309 311 309 310 310 307 305 301 299 297 296 296 296 295 294 294 293 291 291 290 290 290 291 290 290 289 289 288 288 288 288 287 287 287 287
315 314 314 315 313 314 314 312 311 308 308 308 306 306 305 302 299 298 297 296 295 294 294 293 292 291 290 289 288 289 289 289 288 288 287 286 285 285 285 284 284 284 284 284
313 315 317 319 315 316 315 313 308 308 308 306 304 302 301 300 298 297 296 295 295 294 292 291 290 288 286 286 285 285 285 284 285 284 283 282 282 282 282 282 282 281 280 280

GFSCGP_925_thetae_042.txt.gz
Theta_e
322 323 320 318 318 320 321 320 321 321 321 322 323 325 326 331 332 330 328 329 330 328 326 329 330 330 328 328 326 326 327 328 329 330 327 323 321 324 328 329 330 327 326 323
322 322 321 320 320 321 322 321 321 322 320 320 321 321 324 329 332 331 330 330 330 329 329 326 329 329 329 328 329 328 327 328 330 330 329 323 324 323 325 327 329 328 326 322
322 321 320 321 321 322 322 322 322 322 322 320 320 321 323 327 331 332 332 330 330 330 330 330 326 327 328 328 328 328 328 330 330 329 328 325 326 328 328 327 326 325 323 321
322 321 321 322 321 322 322 321 321 323 323 322 320 322 322 324 329 331 331 332 329 330 331 330 329 327 326 327 327 327 329 330 330 330 329 327 325 325 326 326 324 323 321 319
321 321 322 321 321 321 321 321 322 322 323 323 322 321 322 322 322 326 329 331 331 328 330 331 330 328 327 327 327 328 328 331 330 330 329 329 328 327 327 326 322 320 318 317
321 320 321 321 321 321 321 322 322 324 324 324 322 322 322 321 320 321 324 327 330 331 330 330 329 330 330 329 328 328 329 329 331 331 330 330 330 330 327 323 320 318 316 314
321 321 320 320 322 321 322 323 325 324 325 325 323 323 322 321 322 322 323 323 326 329 331 331 331 331 331 331 331 331 330 329 330 330 327 328 329 329 325 323 320 317 315 312
321 321 320 320 322 321 322 323 325 323 324 323 322 322 322 322 322 322 323 324 323 324 328 330 331 330 330 332 333 333 332 330 330 328 326 327 326 326 323 324 320 317 312 311
320 319 320 321 321 321 323 323 322 324 325 324 321 320 320 320 320 321 323 324 325 323 323 326 328 329 330 331 333 334 333 331 331 328 326 322 324 324 324 323 320 315 312 310
320 321 321 322 322 322 322 322 323 323 324 323 322 321 319 319 319 320 320 322 325 325 323 324 325 326 327 329 331 333 333 332 332 329 326 324 326 325 323 322 319 316 311 309
319 321 322 323 323 322 323 323 322 322 323 324 323 321 319 320 319 322 320 321 323 325 326 326 326 326 327 327 329 331 331 331 331 331 329 326 325 325 323 322 319 315 312 310
319 320 323 321 321 320 320 321 323 324 322 323 326 323 319 320 321 320 320 320 322 324 325 327 328 328 329 329 329 329 329 330 330 331 330 328 325 323 320 317 316 312 309 308
320 321 323 321 320 320 320 321 320 322 322 325 330 323 320 320 321 321 321 320 319 321 324 327 329 330 330 331 330 330 329 329 329 327 325 324 321 317 314 314 312 310 309 306
320 320 321 321 319 319 321 321 321 322 326 324 325 322 321 321 321 321 321 321 319 318 320 327 329 329 329 329 329 329 327 325 321 321 320 319 317 316 316 313 310 308 306 304
320 320 320 318 317 317 318 318 321 322 323 323 323 321 320 319 320 320 319 318 319 321 323 326 328 329 328 327 325 325 322 320 319 318 318 316 314 312 310 308 307 305 305 301
320 319 321 320 319 319 318 319 319 321 320 321 321 320 319 320 321 320 318 319 321 322 322 323 325 325 324 324 322 319 318 316 315 314 312 310 308 305 304 302 300 298 297 297
322 321 321 320 320 320 323 321 320 321 322 322 322 321 320 320 320 320 320 320 320 319 318 318 318 317 317 318 318 316 314 312 311 310 308 306 304 301 299 298 297 296 298 297
323 323 323 323 320 329 319 319 320 321 321 321 320 320 319 319 318 317 318 318 316 315 313 313 312 312 312 312 311 311 310 308 307 306 304 303 302 300 299 299 299 297 297 297
322 323 324 330 323 320 319 317 319 321 321 320 320 319 318 316 315 314 312 314 313 312 310 309 309 309 308 308 308 307 306 306 305 304 303 302 301 301 301 300 299 300 300 299
318 320 327 321 324 329 320 319 318 318 324 319 319 318 318 317 321 319 311 309 308 307 307 306 306 306 306 306 306 306 305 304 303 302 302 301 301 301 301 300 298 298 297 297
320 321 327 326 328 324 320 317 316 322 324 319 318 318 318 319 319 316 309 308 306 306 305 305 305 305 305 305 304 304 303 302 301 301 300 299 297 296 296 296 295 295 294 294
323 325 326 325 330 330 316 315 321 323 320 319 319 319 319 318 314 310 309 307 305 305 304 304 304 304 303 303 302 301 299 299 298 296 295 295 293 292 292 293 293 292 292 292
325 323 326 324 325 323 318 321 319 321 320 318 319 318 318 313 311 309 308 306 305 304 304 303 302 302 301 301 301 299 296 295 294 293 293 293 292 292 292 292 292 292 292 291
320 316 323 322 321 321 320 319 317 316 318 317 317 317 315 313 310 308 306 305 305 303 303 301 300 298 297 296 296 295 294 293 293 293 292 292 290 291 290 289 288 287 287 287
321 316 321 322 322 318 319 319 318 316 314 314 315 316 314 312 310 307 306 304 303 302 300 299 298 296 295 293 292 292 292 292 292 291 289 288 287 286 286 285 285 284 284 282
318 320 323 327 324 323 322 320 319 317 315 314 315 314 313 310 308 306 305 303 301 300 298 297 295 293 292 290 289 288 289 289 288 287 286 284 285 285 284 284 284 282 281 279

GFSCGP_925_thetae_045.txt.gz
Theta_e
322 323 323 321 319 319 320 321 322 323 322 321 323 323 325 331 331 327 329 327 329 329 326 328 326 324 324 324 325 325 324 323 327 328 325 322 321 321 322 325 326 328 328 327
323 324 322 321 320 319 320 320 320 321 321 321 322 323 322 329 330 329 327 329 326 327 330 329 329 327 327 326 326 325 325 325 328 328 328 324 322 320 322 325 328 329 329 328
323 323 322 320 319 321 321 322 323 321 323 322 322 322 322 325 329 329 328 327 328 327 327 329 329 329 327 327 326 326 326 328 328 328 328 327 323 322 322 325 327 329 328 328
322 322 321 321 321 321 322 321 321 322 322 323 324 324 325 324 327 330 329 328 328 328 328 327 327 329 329 328 328 328 328 328 328 328 329 327 324 325 327 327 328 328 328 328
322 322 322 322 321 321 322 322 322 323 324 324 323 321 325 322 324 326 329 329 328 327 328 329 327 325 328 329 329 329 329 329 329 330 329 329 327 326 327 327 328 328 327 326
321 321 321 321 321 321 322 323 323 324 324 327 323 323 325 322 320 320 325 328 328 327 328 328 328 326 325 326 328 330 329 329 329 330 330 330 329 329 328 328 328 327 326 324
320 322 321 321 322 322 322 324 326 326 327 327 325 323 323 325 321 321 322 323 327 328 328 328 328 329 328 327 327 329 329 328 329 330 331 330 331 331 327 329 329 325 324 322
322 322 322 321 321 323 323 324 327 333 327 325 325 322 322 322 322 322 322 324 324 327 329 329 328 328 329 330 330 330 330 330 329 331 332 328 331 329 327 324 327 323 322 320
322 322 321 321 321 322 323 324 324 327 325 325 324 322 321 320 320 320 322 324 326 326 326 328 329 328 329 330 332 333 333 332 331 332 331 329 329 329 328 327 326 323 321 319
320 322 320 321 322 322 323 324 325 325 327 329 322 322 321 321 320 319 320 322 324 326 325 325 327 328 329 330 332 335 335 334 333 331 331 329 329 328 327 326 325 323 320 316
320 321 322 323 323 323 323 325 324 324 325 328 327 323 322 320 320 320 321 320 321 322 327 326 326 326 327 329 331 333 336 336 334 333 331 330 327 327 325 325 324 322 319 313
320 322 325 324 323 322 322 323 324 326 325 325 326 325 322 321 321 321 321 321 321 322 324 327 328 328 329 329 330 332 334 334 334 334 332 331 328 327 325 324 323 321 317 314
320 320 325 323 323 322 322 323 323 324 324 325 333 326 322 321 320 320 320 321 321 322 323 326 329 331 331 330 331 332 332 332 332 332 332 330 327 324 323 321 319 317 314 312
321 320 322 325 324 322 322 321 321 322 327 325 324 322 322 322 321 321 321 321 321 321 321 325 329 330 330 331 331 332 332 332 332 331 330 328 322 319 318 315 313 311 309 307
321 321 321 320 321 321 321 321 321 321 321 324 323 321 322 321 321 320 322 321 320 321 321 323 328 330 330 331 331 331 328 327 326 326 325 322 320 319 318 316 313 310 308 305
321 322 321 320 321 320 319 318 318 319 320 320 320 320 321 320 319 319 320 320 321 323 324 326 329 330 330 329 329 326 324 323 322 321 318 316 314 312 310 309 307 307 305 304
320 324 322 324 321 321 324 319 318 319 319 320 321 321 321 320 319 320 321 321 323 324 324 326 327 327 327 325 324 322 320 318 316 314 312 310 308 306 304 303 302 301 300 300
323 323 323 326 324 328 320 319 319 319 319 319 320 320 320 320 319 320 321 321 323 322 322 321 321 321 321 320 318 316 315 314 312 310 309 307 305 304 303 303 302 301 300 300
319 326 326 330 327 321 319 319 320 320 320 319 320 320 320 320 320 320 319 321 321 319 318 317 316 316 315 315 314 313 311 310 309 308 307 306 306 305 304 303 302 302 301 301
321 323 329 326 326 328 321 320 320 319 324 319 319 320 319 319 323 320 318 319 317 315 314 314 313 313 312 312 311 311 310 308 307 306 306 305 304 304 303 302 301 300 299 299
323 324 330 329 327 323 320 319 320 324 323 321 320 319 318 319 320 321 317 315 314 313 312 311 312 312 311 310 310 309 308 307 306 305 304 302 302 301 300 299 298 297 297 296
324 325 329 328 330 331 321 320 322 323 324 323 322 320 320 319 320 317 315 314 313 312 310 311 310 310 309 309 308 307 306 304 303 301 300 299 297 295 295 296 295 294 295 295
323 323 327 324 325 324 321 323 321 322 322 324 322 321 320 321 318 316 314 313 312 310 310 310 309 308 308 307 306 304 303 301 300 298 296 295 294 294 294 295 294 294 293 292
317 320 326 324 323 322 323 320 321 322 323 323 322 320 320 321 317 315 313 312 311 310 310 309 308 307 306 305 303 302 300 298 297 296 295 294 294 293 292 291 290 290 290 289
320 321 322 322 320 321 321 322 322 322 321 321 319 319 320 319 316 314 313 312 311 310 308 307 306 304 302 301 299 298 297 296 295 294 293 292 290 289 289 288 287 286 284 282
318 320 326 324 320 324 325 323 321 322 321 319 318 318 319 317 315 313 312 311 310 308 306 305 303 301 299 297 296 295 295 294 293 291 289 289 289 288 287 287 286 283 282 281

GFSCGP_925_thetae_048.txt.gz
Theta_e
319 320 321 321 322 320 318 319 323 324 324 326 322 324 329 327 328 328 327 329 328 328 326 325 323 322 321 317 317 315 314 316 318 320 319 322 321 322 322 322 321 326 327 328
321 323 322 322 322 320 319 319 321 321 324 321 319 322 329 329 331 327 327 329 327 328 329 326 322 322 322 320 319 321 320 319 321 321 322 325 323 321 323 323 323 328 327 328
322 323 323 322 321 320 319 320 322 324 323 323 322 321 325 329 327 327 328 327 328 327 328 328 325 324 324 324 323 323 324 323 324 326 326 327 323 321 320 322 326 327 328 328
321 322 322 323 320 319 320 320 321 322 322 321 323 324 323 323 328 327 327 328 328 327 329 329 329 327 326 326 326 326 326 325 324 327 328 328 325 324 322 322 327 327 326 328
322 322 321 323 321 320 321 323 323 322 322 323 324 326 323 323 325 328 328 328 328 328 327 330 329 330 328 328 328 327 326 326 327 327 329 328 327 323 323 322 324 326 328 327
320 321 321 323 321 321 321 322 323 323 324 327 324 324 326 325 326 324 328 329 328 328 327 327 328 329 329 329 329 328 328 327 329 328 326 329 328 326 326 328 328 328 328 327
320 320 321 321 321 321 321 323 327 328 329 330 324 324 326 324 324 324 327 328 328 328 327 328 327 326 329 330 330 330 331 330 330 330 329 329 330 329 327 328 328 327 323 325
321 323 320 322 321 323 322 323 330 335 335 333 328 325 323 323 323 322 322 323 327 328 328 328 328 327 326 327 331 331 331 330 330 330 331 330 324 330 329 328 329 327 323 320
321 322 321 321 321 321 323 324 324 331 328 333 329 326 324 323 320 320 322 323 325 325 329 328 328 329 329 328 328 330 331 331 330 330 331 330 326 325 329 331 329 326 324 321
321 325 322 321 321 321 322 323 326 326 331 332 324 322 323 322 320 319 320 323 325 326 326 327 328 328 329 330 329 329 330 330 330 330 332 331 326 323 329 329 328 326 326 323
320 322 323 322 321 321 322 324 326 327 326 332 332 326 325 324 321 321 322 322 322 324 327 326 327 327 329 330 331 332 332 332 332 332 333 332 330 327 329 329 327 325 325 322
320 324 325 322 321 322 323 324 326 329 328 331 337 329 324 323 322 322 322 322 322 322 324 328 328 328 327 328 331 336 336 335 335 333 333 332 331 330 327 326 325 325 323 320
320 321 324 324 325 323 323 323 323 325 326 329 333 328 323 322 321 321 322 322 322 323 322 326 329 330 329 329 329 332 335 336 334 334 333 333 331 328 327 325 324 323 320 318
322 322 322 327 327 324 324 323 325 326 330 328 328 325 324 322 323 321 322 321 321 323 322 323 328 330 331 331 331 332 333 334 334 333 332 330 328 326 323 321 320 318 317 315
322 325 322 321 321 323 323 323 322 322 323 326 325 323 323 322 323 323 323 322 321 320 320 322 325 330 332 332 332 332 332 331 331 330 327 325 322 320 318 315 314 313 311 309
320 323 323 323 321 321 323 324 321 321 321 321 322 322 321 321 321 322 320 320 321 321 320 323 324 330 332 331 332 330 328 327 327 323 321 320 319 318 316 314 311 308 306 305
322 326 323 324 322 321 322 324 322 321 320 320 321 322 321 321 321 321 321 321 321 321 324 325 327 331 331 331 328 327 325 324 321 319 317 315 312 309 308 306 305 305 304 302
323 324 325 325 324 326 321 321 321 320 320 319 319 319 320 320 321 320 321 321 323 324 324 326 329 329 328 326 325 322 320 318 316 314 311 309 307 305 304 303 302 301 301 300
320 324 330 327 324 323 320 321 320 321 320 320 319 319 319 319 321 322 321 321 324 324 324 323 323 324 323 321 319 317 315 313 311 310 309 307 306 305 304 303 302 302 302 301
320 322 326 331 326 326 324 321 320 320 322 320 320 321 321 321 324 322 321 322 322 321 320 320 319 318 317 316 315 314 312 311 310 309 308 307 306 305 304 303 302 302 301 301
323 323 327 327 329 328 320 320 320 323 323 323 322 321 322 321 321 322 320 321 320 318 317 316 316 315 314 313 312 312 310 309 308 307 306 305 304 303 302 301 301 300 299 298
324 325 327 327 329 329 321 320 321 323 325 325 323 324 323 323 323 321 320 319 317 316 315 314 314 313 313 312 311 310 308 307 305 304 303 302 302 300 299 297 296 295 295 295
323 320 325 324 325 325 322 321 322 324 326 326 325 325 324 325 321 320 318 317 315 314 313 313 313 312 311 311 309 308 306 304 303 302 300 296 296 296 296 296 295 295 294 292
316 320 323 320 320 323 323 321 321 321 322 323 323 324 323 324 320 318 317 315 314 313 312 312 312 311 310 309 308 305 304 303 300 297 296 295 295 294 293 292 291 291 290 289
317 317 321 322 320 318 318 319 321 323 323 323 321 321 321 322 320 318 316 314 313 312 312 311 310 309 308 307 304 303 302 299 298 297 295 293 292 291 290 288 288 287 284 284
317 318 320 326 321 322 323 321 322 321 320 321 322 321 319 320 320 317 315 314 313 312 311 310 309 307 305 303 301 299 298 297 296 293 291 290 289 289 289 287 284 283 283 282

GFSCGP_925_thetae_051.txt.gz
Theta_e
316 315 316 315 316 318 318 318 316 318 322 322 326 328 324 326 328 326 327 328 327 324 323 320 318 316 316 316 316 317 316 316 315 315 315 315 317 317 317 314 316 318 321 322
317 317 317 319 320 321 321 318 316 323 324 323 324 328 325 327 328 326 327 326 325 325 323 322 320 318 317 317 316 315 315 315 315 318 313 313 315 318 322 320 322 322 323 324
318 319 319 320 321 321 319 318 317 323 322 320 320 328 328 326 330 329 327 326 325 326 325 323 320 319 317 317 316 314 314 315 314 319 318 315 316 322 321 322 321 322 321 325
319 319 320 321 322 320 317 317 321 323 321 319 319 319 329 330 331 330 327 326 325 327 325 323 322 320 319 317 318 315 314 314 316 317 319 318 321 323 322 321 322 322 324 327
320 320 321 321 322 320 318 321 323 323 321 320 321 321 321 329 330 329 327 327 324 328 325 324 321 321 321 319 318 319 317 316 317 318 318 321 324 325 322 321 319 322 326 325
318 318 319 319 321 321 320 322 322 322 321 323 322 322 324 324 323 327 326 325 325 324 327 325 323 322 322 322 321 321 321 321 321 321 323 326 327 327 323 323 321 323 325 326
319 319 319 319 320 321 319 320 323 328 324 324 325 325 323 322 322 324 325 325 325 325 326 326 326 325 324 324 324 324 324 324 324 323 323 326 328 327 326 324 324 322 325 326
319 320 319 319 320 320 320 319 325 331 329 331 327 327 322 321 321 320 320 325 324 325 326 327 327 327 327 326 326 326 326 325 325 325 325 327 328 327 327 322 328 326 326 326
319 319 319 318 320 319 320 321 321 330 329 330 328 325 322 322 319 319 319 318 323 323 324 325 326 327 327 328 327 327 327 326 327 327 328 327 326 327 328 327 328 327 327 326
319 321 319 319 319 319 319 320 322 327 332 336 327 327 324 322 320 317 318 319 321 319 323 324 324 325 326 328 328 328 329 329 329 329 329 329 328 328 328 330 328 329 327 324
317 319 320 320 321 321 320 320 322 324 326 325 325 324 322 321 322 318 315 317 319 321 319 321 323 325 324 324 327 329 329 329 329 328 329 330 330 329 328 323 328 328 327 325
318 321 319 319 320 320 320 320 322 326 328 327 321 324 321 318 319 318 317 317 316 320 320 321 321 323 325 326 326 328 329 330 329 330 329 330 330 329 325 325 328 328 326 325
318 318 320 320 320 320 320 320 322 324 326 327 325 326 322 321 320 319 317 318 317 317 318 321 323 324 325 327 328 327 328 325 327 327 330 331 330 329 327 328 328 326 325 324
318 319 319 319 321 324 324 323 321 323 323 325 324 325 323 322 320 317 317 319 315 316 317 322 323 324 326 328 331 330 330 329 329 330 330 331 330 329 328 327 325 325 323 321
319 319 319 319 319 322 324 324 322 323 324 325 324 324 322 320 318 319 319 319 319 317 317 317 323 324 326 329 331 330 332 333 332 331 331 329 328 326 324 323 321 319 317 316
319 321 319 321 320 321 320 320 321 321 322 324 323 323 321 318 318 319 319 319 317 315 315 316 319 328 329 330 329 327 328 329 330 327 325 324 323 320 318 316 315 314 312 311
322 320 321 320 320 320 320 320 321 322 322 320 319 318 318 319 318 318 317 317 317 316 316 319 322 328 328 329 327 326 324 325 323 321 320 319 317 315 314 312 309 307 306 305
324 321 319 319 320 322 319 318 321 322 321 318 316 316 316 317 316 315 316 316 316 319 320 322 327 326 327 327 325 324 321 319 317 313 311 313 313 311 310 309 306 304 303 302
321 320 320 321 321 320 320 320 320 320 319 318 317 316 315 314 317 319 317 318 318 319 320 322 325 325 324 323 321 318 316 314 312 310 309 308 307 304 303 303 302 302 300 299
321 321 320 318 321 322 319 319 320 319 320 317 317 317 317 317 315 314 317 319 319 318 319 319 322 321 320 320 319 315 312 310 309 308 306 305 304 303 303 302 301 301 301 301
322 318 320 316 319 321 320 319 319 321 319 318 319 318 319 316 315 316 316 318 317 317 317 318 317 316 317 316 315 311 310 309 308 307 306 305 304 303 303 302 302 301 301 300
320 320 317 321 323 324 319 320 319 318 317 318 318 319 321 318 317 316 317 317 315 314 314 315 313 313 314 314 312 309 308 308 307 307 305 304 303 302 302 301 300 300 298 296
320 319 319 319 318 319 318 320 321 319 321 321 321 320 320 319 319 316 315 314 313 311 311 313 312 312 312 311 310 307 305 306 305 304 303 303 302 301 300 297 296 295 295 295
315 316 317 319 318 315 314 317 318 320 317 318 320 319 320 321 318 316 314 312 311 309 309 311 311 310 309 309 307 305 304 304 304 302 300 297 297 296 295 294 294 292 291 289
313 316 318 318 317 316 317 316 318 320 319 318 318 319 318 319 317 315 314 312 309 309 310 310 309 308 306 306 304 304 304 303 299 296 295 295 293 291 290 290 289 289 287 288
313 314 317 315 318 318 317 317 319 318 317 318 318 318 317 317 315 313 312 311 309 308 309 308 307 306 304 304 303 303 302 298 296 294 293 292 289 288 288 287 283 283 283 282

GFSCGP_925_thetae_054.txt.gz
Theta_e
315 316 315 313 313 315 316 317 317 316 318 326 325 324 323 324 326 330 329 325 324 324 321 318 317 316 317 317 315 316 316 315 315 315 316 316 318 317 318 316 317 318 319 321
315 317 315 315 316 317 318 318 319 316 321 320 323 325 324 323 326 324 327 327 326 325 321 318 317 315 317 316 315 315 315 314 315 316 316 316 314 316 315 316 316 316 313 314
315 317 316 316 317 318 319 320 317 317 321 320 323 324 328 326 326 326 327 327 325 325 323 320 318 315 316 315 316 315 315 314 316 318 316 315 314 316 316 317 318 315 317 319
316 316 317 318 319 318 320 319 316 320 319 318 316 319 325 326 325 328 328 325 324 324 322 321 319 316 316 316 315 316 316 314 315 316 316 313 314 315 317 320 321 320 320 321
318 319 318 319 319 319 320 319 318 321 320 319 319 319 317 326 327 328 328 326 324 324 323 321 320 318 317 317 315 315 316 315 315 315 318 315 314 315 317 321 323 320 320 320
316 316 316 318 318 319 319 321 320 319 319 322 321 319 320 329 328 328 326 326 325 325 323 322 320 319 318 317 316 314 314 315 315 314 317 318 316 316 319 322 323 322 320 321
316 316 316 317 318 318 319 317 321 323 323 323 322 324 321 323 325 328 326 325 324 326 324 323 321 320 319 317 316 316 314 314 314 314 316 317 317 316 319 321 322 322 320 321
319 320 317 317 318 318 318 318 321 326 327 327 325 326 321 320 319 325 325 324 324 323 326 324 321 321 320 319 317 317 317 315 314 314 315 315 316 318 321 324 324 323 321 320
318 319 317 317 317 317 320 320 319 326 327 326 325 324 320 320 320 318 323 323 323 323 324 325 323 321 321 321 320 319 319 318 318 318 318 319 320 321 324 326 325 325 324 322
316 320 318 317 317 316 318 319 322 325 329 329 328 327 322 321 318 316 316 321 322 323 323 324 325 324 323 322 322 322 321 321 321 322 322 322 322 322 324 326 327 326 324 325
315 317 318 318 319 318 319 319 321 323 324 325 325 323 319 319 320 316 313 316 318 321 323 323 325 325 326 325 324 324 324 324 324 324 324 324 324 324 325 325 326 327 326 326
315 316 318 318 317 317 317 319 320 324 326 323 319 323 318 317 317 317 316 315 316 319 321 322 322 325 326 326 326 326 326 325 325 325 326 325 326 326 326 326 327 327 325 326
316 317 318 319 317 318 318 318 320 322 322 325 324 324 320 317 318 318 316 313 314 317 317 318 319 320 322 323 324 326 327 327 327 327 328 327 327 327 327 327 328 326 323 326
319 318 318 320 319 319 322 319 320 321 322 324 324 323 321 321 320 320 316 315 313 314 318 318 319 320 322 323 323 324 328 328 328 328 327 327 327 327 327 326 324 324 325 326
321 319 319 318 318 319 318 320 321 320 320 323 322 323 322 320 318 317 315 315 315 314 314 319 320 320 323 326 325 324 326 328 328 328 326 328 329 328 328 325 323 327 326 324
320 323 317 319 318 319 319 318 321 321 321 322 322 323 320 320 317 316 317 316 315 314 314 316 321 321 326 328 327 327 326 327 326 326 326 326 323 325 321 320 324 322 320 319
321 322 321 320 318 319 319 319 319 318 320 321 322 321 320 319 319 317 315 316 316 314 313 313 319 324 327 327 328 327 328 329 329 327 325 322 322 320 319 319 318 317 314 312
319 320 321 318 317 323 319 317 317 318 319 319 318 316 316 316 315 316 315 314 314 313 312 311 318 324 327 326 325 324 325 324 322 321 318 317 316 316 315 315 313 311 310 309
318 320 319 317 319 318 318 318 318 319 318 317 316 316 314 314 315 317 314 313 313 312 314 320 324 325 325 323 321 320 317 316 315 313 314 313 313 310 308 307 307 307 304 302
321 319 318 319 321 320 317 317 318 318 318 316 316 317 316 315 314 313 315 317 316 317 320 321 323 322 321 319 318 315 312 311 310 310 309 309 309 308 308 307 305 303 302 300
319 319 320 319 319 317 317 317 317 320 318 317 317 318 317 315 314 313 313 318 317 317 318 321 321 320 318 317 316 311 310 309 309 309 308 306 307 307 306 304 302 300 299 299
315 319 319 318 321 320 318 320 319 318 316 316 318 317 316 316 313 314 315 316 315 316 315 317 315 314 315 315 315 309 308 308 308 307 305 304 304 303 302 301 300 300 300 299
314 314 317 318 318 316 317 318 320 318 318 317 317 317 318 317 316 315 315 315 314 314 312 314 312 310 312 313 313 307 306 307 306 305 304 303 303 302 302 301 301 300 298 294
312 312 315 317 317 317 317 316 319 317 317 317 317 316 318 318 316 315 314 312 312 310 310 311 310 308 307 309 308 308 306 306 305 303 302 302 302 301 300 299 299 298 294 291
311 316 317 316 315 315 314 313 314 315 316 318 317 316 316 315 317 314 313 311 310 310 309 310 309 307 304 305 305 304 304 305 302 301 300 298 296 295 292 291 292 292 290 291
312 315 316 315 314 315 314 312 313 315 317 316 317 315 314 315 315 314 312 310 309 309 308 308 306 304 303 303 302 302 302 303 301 294 292 291 290 288 287 286 283 283 285 286

GFSCGP_925_thetae_057.txt.gz
Theta_e
312 313 314 315 312 313 315 316 315 314 315 322 323 321 321 325 329 328 326 324 322 321 319 318 318 318 317 317 318 318 318 316 316 319 320 321 320 321 320 319 320 322 322 323
314 315 314 314 314 314 315 316 316 316 316 321 320 320 322 322 324 328 328 325 322 322 318 317 316 317 317 316 316 317 317 316 316 315 317 316 318 319 319 318 317 319 320 321
315 315 315 315 315 316 316 317 317 318 317 319 322 319 326 323 324 324 327 326 323 322 320 317 316 315 317 317 316 316 316 316 315 315 315 315 316 317 317 317 317 317 317 316
315 315 315 315 315 315 317 316 318 316 316 319 316 318 315 324 324 326 325 326 325 323 321 319 318 314 316 316 316 315 315 316 315 315 316 315 315 315 315 316 316 316 316 316
318 316 316 316 316 316 318 318 318 317 318 318 318 316 316 325 326 323 324 326 325 323 322 320 318 315 315 316 316 315 315 315 315 315 316 316 315 314 314 315 315 314 315 316
316 314 316 316 317 316 317 319 318 318 317 321 319 318 318 325 325 322 323 326 324 323 322 320 319 317 315 316 315 315 316 315 315 314 315 317 316 315 314 314 316 316 317 318
314 313 314 315 316 316 317 317 319 320 321 322 320 321 318 318 322 322 323 325 325 322 322 321 319 317 316 316 316 315 315 315 315 313 314 316 317 315 314 314 315 316 319 321
314 316 314 315 316 317 317 317 319 323 324 322 323 325 322 317 317 320 322 323 324 323 322 322 320 318 317 316 316 315 314 314 315 315 314 315 316 316 314 314 315 317 319 321
316 317 316 315 316 316 317 318 317 322 324 326 323 322 320 318 318 320 323 322 322 323 323 323 321 319 318 317 316 315 315 314 314 315 314 314 314 316 316 316 316 317 319 320
315 318 317 316 315 315 317 317 321 322 328 329 324 325 322 321 318 317 317 321 321 322 323 323 322 321 319 318 317 316 315 315 314 314 314 314 314 315 316 316 317 319 321 323
313 315 316 317 317 316 317 318 320 322 321 322 324 321 317 320 319 316 313 313 319 320 322 323 323 323 321 320 319 318 316 316 316 315 314 314 314 315 316 318 319 320 324 325
315 316 318 316 315 316 316 318 319 321 323 320 318 321 317 317 316 316 314 312 313 318 320 321 322 324 322 321 320 320 319 318 318 317 317 316 317 318 319 320 321 322 323 325
320 317 318 318 316 315 316 316 317 320 319 322 323 323 318 317 316 315 315 315 313 313 316 319 320 322 323 323 322 321 321 321 320 321 320 321 322 322 322 322 323 323 324 324
319 318 317 320 318 317 319 318 317 319 320 319 322 320 320 319 319 317 316 314 312 311 315 316 318 321 323 324 324 324 323 322 322 322 323 323 324 324 323 324 324 324 325 324
320 322 321 317 316 317 319 318 317 318 319 320 319 321 320 319 318 318 317 315 313 312 313 315 317 318 319 321 324 325 325 325 324 324 324 324 325 325 325 325 325 325 324 324
319 321 319 318 318 317 318 318 318 317 318 319 319 319 318 318 317 316 315 315 314 313 312 313 317 318 319 319 320 321 323 325 325 325 325 325 325 325 326 325 325 323 323 324
318 319 320 321 320 317 319 318 318 318 319 320 321 319 319 319 317 316 316 313 314 314 312 311 316 319 321 323 323 321 321 322 326 326 325 325 326 325 323 324 324 321 319 320
318 318 319 321 317 324 320 316 317 317 317 316 318 318 317 316 315 315 313 314 314 312 312 310 310 318 321 325 327 325 324 324 325 325 324 323 323 322 319 319 317 315 315 317
315 318 318 322 322 319 320 316 317 317 318 316 316 316 314 313 313 311 312 311 312 312 311 309 311 320 323 326 327 326 324 325 325 323 322 320 320 316 315 313 311 312 312 309
316 314 315 317 320 322 317 315 315 316 319 315 315 315 315 313 317 314 311 311 311 309 310 316 320 323 323 322 324 323 319 319 318 317 316 316 315 314 311 311 311 311 310 309
318 317 319 319 320 316 316 316 318 322 319 316 315 316 315 316 318 316 311 311 315 315 318 320 321 321 321 320 321 316 314 314 315 316 316 314 313 313 313 310 307 304 303 301
313 316 317 317 319 318 315 316 322 317 315 317 317 317 316 314 313 313 313 312 315 316 317 319 317 316 317 318 317 311 311 312 313 312 310 308 308 308 306 305 301 300 299 297
312 310 312 313 315 316 313 315 315 316 317 317 317 317 315 315 315 312 312 313 314 315 314 316 314 311 313 314 315 310 308 309 307 306 305 304 304 303 303 302 299 297 297 293
310 309 310 313 311 313 311 311 312 313 316 317 317 317 315 314 313 313 312 313 313 311 311 312 311 310 308 311 311 311 307 307 306 303 302 301 301 299 299 299 298 297 294 291
307 310 311 312 311 312 312 312 313 314 315 315 317 316 316 314 315 314 314 312 311 311 310 311 310 307 304 306 307 306 306 306 302 300 298 297 297 297 294 293 293 293 292 294
310 312 314 311 313 312 314 313 312 311 312 314 314 316 314 314 315 315 313 310 309 308 308 306 305 303 302 303 303 303 304 304 300 294 293 292 291 289 287 286 284 286 289 290

GFSCGP_925_thetae_060.txt.gz
Theta_e
312 313 314 313 312 311 312 314 314 312 312 317 315 318 318 320 325 323 324 325 321 319 316 318 318 319 318 319 319 320 321 319 322 318 321 321 322 321 321 319 319 317 317 316
312 315 313 313 312 313 314 314 314 313 315 315 315 318 317 321 323 324 325 323 322 319 319 318 317 317 318 318 318 318 318 318 319 320 320 321 322 321 323 322 322 322 321 322
315 314 313 313 313 314 314 314 314 316 314 314 319 319 319 321 320 325 326 324 322 320 319 318 316 316 317 317 317 318 318 317 319 319 319 319 320 319 321 319 319 315 316 321
314 314 314 314 314 314 315 314 315 315 315 317 317 320 314 317 322 324 323 326 324 321 320 318 316 315 317 317 317 317 317 317 317 317 317 316 317 318 317 318 319 318 316 318
316 315 315 315 315 313 314 315 315 316 315 316 317 316 314 324 322 321 321 323 324 322 320 318 316 315 315 317 316 316 316 316 316 315 315 316 315 316 316 317 317 317 317 316
314 314 314 315 314 314 316 317 317 317 316 319 318 317 317 317 320 320 320 321 323 323 321 319 317 315 314 316 316 315 315 316 315 315 315 314 315 315 315 315 315 316 315 316
313 314 313 314 315 315 316 316 319 320 322 322 317 319 319 317 316 319 318 319 322 323 321 319 317 315 314 314 315 315 315 314 315 315 315 315 315 315 314 314 314 315 315 315
314 313 313 312 314 315 316 317 319 324 322 320 321 325 321 318 316 315 316 318 321 321 321 320 318 317 315 314 314 314 314 315 314 314 314 315 315 316 315 315 314 314 314 315
313 313 313 313 314 315 315 317 316 319 322 324 321 320 318 317 316 316 320 320 320 321 320 321 319 318 316 315 315 315 315 315 315 315 314 314 314 315 317 316 315 315 314 314
315 317 316 315 314 314 316 316 321 319 326 328 321 323 319 318 317 315 318 321 319 320 320 320 320 318 318 316 316 315 315 315 315 315 316 315 314 314 315 316 316 315 315 314
313 314 315 315 315 315 316 316 318 319 319 322 322 320 316 317 318 317 314 313 318 318 319 321 320 320 319 317 316 316 315 315 315 315 315 315 315 314 314 315 315 316 315 315
313 314 316 315 314 314 314 315 317 319 320 319 318 320 315 315 316 315 314 311 309 315 317 319 321 321 320 318 317 316 315 315 315 315 314 314 314 315 315 314 314 315 315 317
319 316 317 317 315 314 314 314 316 318 316 319 323 320 317 315 316 314 313 312 312 311 314 317 318 321 321 320 319 318 316 316 316 316 315 314 314 314 314 314 315 315 316 318
319 320 317 319 318 316 317 315 315 317 318 317 318 319 318 318 317 317 314 313 312 311 310 314 317 319 321 321 320 319 319 318 317 316 316 316 315 315 315 315 316 317 318 319
318 321 321 320 319 318 317 317 316 316 316 318 317 318 318 316 316 316 315 315 314 313 311 312 315 317 319 321 321 320 320 320 320 319 318 318 318 318 318 320 320 320 321 321
317 318 318 318 319 319 318 315 315 315 316 316 317 317 315 315 314 315 315 315 314 313 312 310 313 315 317 320 321 322 322 321 320 320 320 320 320 321 321 322 322 322 322 323
315 316 316 320 318 318 318 317 316 316 316 316 318 317 316 317 316 316 316 314 314 314 312 310 311 314 315 317 320 321 322 323 322 321 321 321 321 322 322 323 323 323 323 323
316 316 314 318 316 322 318 313 315 316 316 315 316 317 316 316 316 314 312 313 313 312 312 311 309 310 316 318 318 319 320 321 323 323 323 323 323 323 323 323 323 322 320 319
316 315 317 316 316 315 314 316 315 318 318 314 314 313 314 313 312 312 310 309 310 310 309 309 310 311 314 318 321 321 320 320 321 323 324 324 323 323 322 320 320 317 315 314
313 312 313 317 317 317 312 316 315 318 317 315 315 314 314 313 314 313 314 312 311 309 307 307 310 311 315 318 322 323 321 322 321 322 322 322 321 321 318 317 315 314 311 308
315 315 317 316 317 314 313 315 316 321 314 315 315 316 316 314 311 312 310 311 311 313 315 317 316 317 319 319 321 320 318 320 319 319 319 319 319 318 316 312 309 307 305 302
314 315 312 315 316 314 312 315 321 316 314 314 314 315 316 315 314 313 312 311 310 312 316 318 317 317 317 319 320 314 313 313 316 317 315 314 313 311 308 306 301 301 298 295
309 309 310 311 311 310 311 313 313 314 315 315 314 314 315 315 312 311 312 311 311 312 314 315 314 311 313 315 317 311 307 311 312 311 306 305 305 303 303 302 299 296 295 292
307 308 309 310 308 310 309 308 309 311 313 313 313 314 313 315 313 312 311 310 309 309 311 312 312 309 307 310 312 311 308 309 308 303 301 300 300 298 298 297 296 294 292 290
304 308 309 308 311 311 311 310 310 308 311 311 311 313 314 313 313 315 313 311 310 308 308 309 308 305 304 307 306 306 307 308 304 301 298 297 297 297 294 293 292 293 292 294
308 310 309 308 310 310 310 308 304 306 307 305 304 309 303 301 304 307 310 308 307 305 304 301 299 298 297 299 300 302 303 304 300 294 293 292 291 290 289 288 286 288 290 290

GFSCGP_925_thetae_063.txt.gz
Theta_e
314 317 316 313 315 314 314 315 315 314 313 315 318 319 319 319 329 330 331 329 326 322 320 318 318 319 319 321 321 321 322 321 319 319 321 319 322 320 321 321 316 322 318 316
314 318 317 313 314 314 315 316 317 316 315 316 319 320 320 320 323 327 329 329 327 324 320 319 318 319 318 319 319 320 321 321 321 320 321 319 320 321 321 321 322 320 320 316
317 316 315 314 314 315 316 317 316 316 315 316 318 320 319 320 322 324 326 325 325 325 321 320 318 318 319 318 319 319 319 320 321 320 319 320 321 321 322 322 318 316 320 316
313 314 314 315 315 315 317 315 316 315 316 320 318 322 320 319 320 323 324 328 328 326 323 321 319 318 318 319 319 319 318 318 319 319 318 320 320 319 320 320 320 319 317 318
315 315 315 315 315 315 315 316 316 316 317 318 319 320 320 318 322 321 322 325 328 327 325 322 320 318 318 317 318 319 318 318 318 320 318 318 320 319 319 320 320 321 319 318
314 314 315 315 314 314 315 316 318 318 319 323 321 321 321 320 321 321 321 322 325 327 325 323 320 318 317 317 318 318 318 318 317 318 318 317 317 318 318 318 319 318 317 315
315 315 314 314 316 315 317 319 321 324 325 325 319 320 321 320 320 320 321 321 323 325 326 324 321 318 316 316 318 317 317 317 317 317 317 316 317 316 317 318 317 318 317 316
317 316 315 314 316 317 317 318 323 325 325 323 319 324 321 321 320 319 318 318 320 325 326 325 322 319 317 316 317 317 316 317 317 316 316 316 316 316 316 317 316 316 317 317
315 315 312 313 314 317 317 319 319 322 323 325 323 323 320 320 319 318 318 322 322 325 325 325 323 321 319 317 316 316 316 316 316 316 316 316 316 316 316 315 315 314 315 315
315 318 315 314 314 314 318 318 320 321 324 326 323 323 322 321 320 320 321 319 323 323 324 324 324 322 320 318 317 316 316 316 316 316 316 315 315 315 316 316 315 315 315 315
315 316 316 316 316 316 317 318 320 321 322 324 324 323 322 323 322 321 321 319 317 322 324 324 324 322 321 319 317 316 316 316 317 316 316 316 315 315 315 316 316 316 316 315
314 316 316 317 314 315 315 318 320 323 323 322 323 322 316 320 319 319 320 318 317 314 320 323 323 322 321 320 318 317 317 316 316 316 316 316 316 315 314 315 315 316 316 316
321 317 317 316 316 314 316 316 318 319 319 322 326 322 317 318 319 319 318 319 317 316 315 320 323 323 322 321 320 318 317 317 316 316 315 316 316 316 315 315 314 314 316 316
319 321 318 318 320 319 318 316 316 319 322 321 321 320 319 319 321 321 320 319 318 317 316 317 321 323 323 322 321 320 319 318 317 316 316 315 315 315 315 315 315 315 315 315
319 320 321 320 319 319 319 318 317 316 318 319 319 319 319 318 319 320 320 318 317 318 315 315 317 321 323 323 322 321 320 319 318 317 317 316 316 315 315 315 315 315 315 316
310 320 319 319 318 318 319 318 316 316 316 317 317 319 317 318 316 316 318 318 318 318 317 317 315 317 320 322 322 322 321 320 319 318 318 318 317 317 316 316 315 315 316 316
310 317 318 318 317 317 320 317 316 317 316 317 319 318 318 318 318 318 319 319 318 318 317 317 315 315 318 320 321 322 322 321 320 320 320 319 319 318 318 318 319 319 319 319
309 316 315 318 315 315 318 315 314 317 316 316 316 316 316 316 317 317 317 318 318 316 316 316 315 315 314 316 318 321 322 322 321 321 321 321 321 320 320 320 321 321 321 321
308 310 318 318 317 314 312 315 319 320 318 318 318 318 318 317 314 315 314 313 314 314 314 313 313 313 313 314 316 318 319 322 322 322 322 322 322 322 322 322 322 322 322 322
309 311 318 317 320 317 314 316 316 317 318 317 317 317 317 317 321 319 316 315 315 313 312 313 313 311 310 312 316 318 318 319 321 322 323 322 322 322 321 321 322 320 318 316
313 315 316 318 318 316 313 315 316 316 315 316 316 317 317 317 317 317 315 315 313 312 313 316 318 317 317 317 318 320 320 320 319 319 319 320 321 322 322 320 317 313 310 307
314 315 316 317 319 316 311 315 317 315 315 315 316 316 316 316 316 315 314 314 313 314 314 316 318 315 314 317 318 318 317 316 319 320 319 318 317 316 313 312 307 305 302 298
311 314 316 315 316 311 312 313 311 312 313 314 314 314 313 314 314 314 314 314 313 312 313 313 314 313 312 313 314 313 308 311 312 310 307 306 307 305 305 304 300 296 295 291
308 308 312 311 309 311 311 311 311 309 311 309 306 308 312 312 313 315 314 313 312 311 311 311 310 307 306 306 307 307 308 309 308 304 301 300 300 298 297 297 296 294 292 291
306 308 310 310 310 312 311 309 306 307 306 304 303 301 301 301 305 308 312 309 308 307 304 303 303 301 299 299 300 303 304 305 301 297 296 295 294 293 291 291 292 292 292 293
309 311 312 312 307 307 308 308 302 303 303 300 299 298 296 295 297 301 298 296 295 296 296 296 295 296 294 292 292 296 298 298 296 294 292 291 290 289 288 287 285 287 290 290

GFSCGP_925_thetae_066.txt.gz
Theta_e
318 319 319 318 318 317 317 318 318 317 317 316 317 319 321 322 325 329 330 331 332 331 328 323 321 320 322 322 323 322 321 319 322 322 322 322 322 322 319 322 322 321 321 320
320 321 318 318 317 317 316 317 318 317 318 318 316 320 322 322 323 325 329 331 332 331 329 324 322 321 322 322 322 322 321 322 321 320 320 321 322 322 320 319 318 320 321 316
318 317 318 318 317 316 316 317 318 317 318 318 319 321 322 321 323 325 327 328 330 331 330 326 323 321 321 322 322 322 321 321 322 321 322 320 321 319 321 320 318 318 321 316
314 313 316 318 318 317 317 317 317 318 318 316 321 322 321 321 321 322 325 328 329 330 329 328 325 322 323 321 322 323 321 321 321 320 321 319 319 318 322 321 319 320 320 319
316 313 314 316 317 317 317 317 318 318 319 317 318 322 320 321 321 320 321 325 329 330 330 329 326 323 322 322 321 323 322 320 320 320 320 319 318 318 320 322 321 320 321 319
316 315 314 314 315 317 316 317 317 318 318 321 320 323 321 320 321 321 321 323 327 330 330 329 326 324 322 321 322 322 322 321 319 320 320 319 320 320 321 321 322 320 320 318
314 315 316 315 315 316 317 318 321 322 324 321 322 323 323 321 321 322 323 323 325 329 331 330 328 326 322 321 321 321 322 322 321 319 319 319 319 319 318 320 320 320 318 318
312 317 316 317 317 318 317 318 322 323 325 325 323 324 323 321 321 323 322 323 323 327 330 330 329 327 323 321 322 321 322 322 321 321 321 320 318 318 319 319 319 319 320 319
314 316 316 316 317 317 319 321 320 323 325 325 325 323 322 321 321 321 322 323 326 326 329 330 329 327 325 322 322 322 322 322 322 321 320 320 319 319 319 320 319 319 319 319
314 317 316 316 316 318 320 319 321 321 325 327 325 324 323 321 321 321 324 324 325 327 328 329 329 328 326 323 321 322 321 322 322 322 322 322 321 320 320 320 320 319 319 319
314 317 318 316 318 318 319 320 321 321 322 326 327 325 322 322 322 322 323 323 323 327 329 329 329 328 327 325 322 322 321 321 321 322 322 321 321 321 321 321 320 320 319 319
314 318 319 318 317 317 318 319 320 323 324 323 326 325 321 322 323 322 322 322 323 321 325 328 329 328 327 326 324 322 321 321 321 321 321 321 321 321 321 320 320 320 320 320
318 316 317 316 317 317 318 318 318 319 320 323 328 323 321 321 321 322 322 322 322 323 322 324 328 329 328 327 326 324 322 321 321 321 321 321 321 321 320 320 320 320 320 320
317 320 316 315 315 318 318 318 318 320 322 321 320 320 320 319 320 320 321 322 323 323 322 323 325 327 327 327 326 325 324 323 322 321 321 321 321 321 321 321 320 320 320 320
314 323 322 321 320 320 321 321 319 318 319 321 320 320 320 319 319 320 320 321 321 321 321 322 322 325 327 327 326 326 325 324 323 322 321 321 321 321 321 321 320 320 320 319
311 319 317 317 317 319 320 320 320 320 320 319 320 320 319 319 320 320 320 321 321 322 322 321 322 322 323 326 326 326 325 325 324 323 323 322 321 321 320 320 320 320 320 320
310 313 316 316 315 314 318 320 319 319 319 320 321 320 319 320 320 321 321 320 320 321 320 321 321 322 322 322 324 326 326 326 325 324 324 323 323 322 321 321 320 320 320 320
308 316 314 317 316 317 319 317 317 319 319 318 318 320 321 321 321 319 319 319 319 319 319 319 319 320 319 318 320 324 325 326 326 325 324 323 323 323 323 322 321 321 321 321
309 311 320 314 315 315 313 316 317 317 321 317 318 319 320 319 321 320 319 318 319 320 320 319 317 317 319 317 316 318 322 324 325 325 325 324 324 324 323 323 323 323 323 324
309 310 315 317 315 312 313 317 317 319 316 314 316 317 316 318 323 322 319 318 318 318 319 319 318 320 321 320 318 316 319 322 324 324 325 325 325 325 324 325 325 324 324 322
311 312 313 315 317 314 314 316 317 314 316 314 314 314 315 315 317 318 317 317 317 317 318 319 320 321 320 320 321 320 319 320 321 323 324 325 325 325 325 324 318 318 318 315
312 313 314 313 315 318 315 314 314 316 314 316 316 316 318 318 317 316 315 316 317 317 318 318 319 318 316 317 321 322 322 319 320 321 322 321 321 320 317 316 313 310 308 303
313 312 314 313 314 316 315 314 315 314 315 315 314 313 312 315 316 316 316 317 317 316 316 316 315 313 310 308 312 316 310 310 311 309 306 307 308 307 306 306 302 299 298 294
310 310 312 311 312 313 314 314 312 312 312 310 309 309 307 308 309 310 313 314 314 313 310 310 311 310 306 302 301 302 305 305 305 303 301 299 298 297 297 297 296 295 293 291
309 309 309 310 310 312 313 312 309 309 309 308 305 304 303 302 304 305 307 304 304 303 301 301 304 303 301 299 296 297 299 300 298 296 295 294 294 292 290 289 290 290 291 291
310 310 312 312 310 309 310 308 305 306 306 304 302 301 300 298 299 300 299 298 297 297 296 294 292 291 293 293 292 292 298 296 294 292 292 290 290 288 287 286 284 285 288 290

GFSCGP_925_thetae_069.txt.gz
Theta_e
311 316 319 319 319 320 320 321 322 322 321 320 321 320 322 322 324 325 328 329 332 333 330 328 325 325 326 324 324 324 323 322 322 323 324 322 322 321 322 320 321 319 322 321
310 314 316 317 319 319 320 320 321 321 320 319 319 319 319 321 322 323 326 328 329 333 331 329 326 324 324 325 324 324 323 322 322 324 324 323 321 321 319 315 320 321 320 320
314 314 316 317 319 321 321 321 321 321 321 320 320 320 321 321 322 322 323 324 327 331 331 330 328 325 324 324 325 325 324 323 323 324 323 322 322 321 320 320 321 322 322 322
318 315 317 318 319 321 321 320 320 320 320 322 321 321 323 322 323 323 324 325 326 330 332 331 329 326 325 324 325 325 324 324 322 323 323 322 323 323 321 319 321 321 323 321
319 318 315 318 319 320 321 320 320 320 321 321 321 321 321 322 321 322 321 323 327 328 331 331 329 326 326 324 324 324 324 324 324 324 323 322 321 322 322 320 320 320 320 322
313 315 317 315 316 318 319 320 320 320 321 324 322 323 323 324 322 321 321 322 326 328 331 331 329 327 324 326 324 325 323 323 323 324 323 321 321 322 320 322 321 321 321 322
316 316 316 317 314 317 317 319 323 324 325 325 323 323 323 322 321 322 322 323 326 328 331 331 330 329 325 325 326 325 325 323 322 322 322 324 323 319 319 321 323 321 321 322
321 320 317 316 317 317 319 320 325 328 329 326 324 325 325 323 322 323 323 324 324 327 331 332 330 329 326 325 325 325 324 324 322 321 322 323 322 320 320 320 323 322 321 320
318 316 315 318 317 316 319 320 320 323 327 330 326 325 324 323 322 322 322 324 325 327 330 331 331 329 327 325 325 325 324 325 324 322 322 322 323 323 323 322 322 322 321 320
315 317 316 318 317 317 319 320 321 322 328 330 328 328 326 323 322 321 323 325 326 327 329 331 331 330 328 326 324 325 325 324 324 324 323 322 323 323 323 321 322 322 321 320
313 314 318 318 320 320 318 320 321 322 324 327 329 329 325 324 323 323 324 323 325 329 329 330 331 330 329 327 325 325 325 325 324 324 324 323 324 323 323 323 323 322 322 322
312 314 319 320 319 319 319 321 322 326 325 326 329 330 322 324 324 323 323 323 323 323 329 330 331 331 330 329 327 325 325 324 324 325 325 325 324 324 324 323 324 322 323 323
313 316 316 319 321 319 320 321 321 322 324 329 331 326 324 322 321 322 323 323 323 324 323 327 330 331 331 330 329 327 326 325 324 324 325 325 325 326 326 325 325 324 324 323
311 318 319 321 321 319 320 320 320 322 326 324 326 325 323 322 321 320 321 322 323 323 324 324 327 329 330 330 330 329 327 326 324 324 324 325 325 325 326 325 325 325 324 324
312 321 322 318 320 320 319 319 320 320 321 322 322 321 320 320 320 320 320 321 321 322 322 323 323 326 328 329 329 329 328 327 326 325 324 324 325 325 325 325 325 324 324 324
310 318 319 322 318 319 320 319 318 319 320 320 321 321 320 320 320 320 320 321 321 322 322 322 323 323 324 327 328 329 329 329 327 327 326 325 325 325 325 325 325 324 324 324
309 314 318 325 319 318 320 320 320 320 320 321 322 322 321 321 320 321 322 322 322 321 321 322 322 322 322 323 324 328 328 328 328 328 327 326 326 325 325 325 325 325 325 324
310 312 314 320 320 321 322 319 318 321 320 320 320 319 320 319 319 321 321 321 321 320 321 322 322 321 320 321 321 321 325 328 328 328 328 327 327 326 326 325 325 325 325 325
309 311 316 315 319 319 316 318 320 323 321 317 319 319 318 317 319 323 321 319 320 320 319 320 321 322 322 323 323 320 320 323 327 328 328 327 327 327 326 326 326 325 325 325
309 310 315 317 320 319 316 318 317 316 322 315 316 317 316 316 317 318 317 318 318 318 318 320 321 322 321 321 322 323 322 319 320 325 328 328 327 327 327 327 327 326 325 325
313 312 313 316 316 313 315 316 317 318 320 316 316 317 317 318 317 317 317 317 318 318 319 319 320 319 317 316 319 323 323 322 323 323 323 326 326 327 327 327 327 326 324 318
312 313 313 313 314 315 316 315 317 318 316 316 316 315 315 315 315 316 317 317 318 318 318 317 318 317 312 310 314 316 312 311 315 318 318 316 319 318 322 321 317 316 315 307
314 311 314 312 313 316 316 317 315 315 315 314 313 313 312 313 313 313 314 316 316 316 314 313 314 312 307 303 301 303 303 304 304 304 303 305 308 308 309 309 305 302 300 297
311 312 313 314 315 315 315 314 313 313 313 311 310 309 309 309 309 309 312 310 309 308 307 306 307 305 301 297 296 295 298 299 299 295 294 293 293 293 295 295 295 296 294 292
311 311 310 311 313 314 314 312 310 311 310 309 308 307 306 305 306 305 306 304 303 302 300 299 299 297 295 292 291 291 293 296 295 293 291 290 289 288 286 286 288 289 290 291
310 312 311 315 312 313 312 309 307 307 306 306 305 304 303 302 302 301 301 297 295 295 294 294 293 293 292 291 289 289 289 291 293 291 290 289 287 286 286 285 284 284 285 286

GFSCGP_925_thetae_072.txt.gz
Theta_e
310 313 316 317 318 320 320 319 320 321 321 322 322 321 320 322 322 325 325 326 329 332 331 330 328 327 327 328 326 325 324 324 324 324 323 323 323 321 321 321 321 318 319 321
316 313 315 314 318 318 319 320 321 321 321 321 321 321 321 320 321 323 325 326 327 332 332 330 328 327 326 325 325 324 324 324 323 324 323 323 323 322 320 319 319 321 323 323
321 318 312 312 314 319 320 321 321 321 320 322 320 321 321 321 321 321 323 324 327 332 332 331 329 327 325 324 325 323 324 323 323 324 323 323 322 322 321 319 321 322 322 322
320 319 314 315 317 316 320 320 321 321 322 323 322 323 323 322 322 322 323 324 324 328 332 331 329 328 326 325 325 325 324 323 323 324 323 322 322 321 319 318 319 317 319 321
319 319 318 318 318 317 319 321 323 322 322 323 321 322 322 321 323 323 323 324 325 325 332 331 330 328 326 326 325 325 324 324 324 324 323 322 322 321 319 316 316 321 321 322
315 314 315 317 318 318 318 320 323 323 323 325 322 323 323 324 324 323 324 323 325 326 332 331 330 328 327 326 325 326 325 325 323 324 323 323 323 322 321 318 318 320 322 322
316 315 315 315 317 318 318 324 329 328 326 327 322 323 324 324 322 322 322 322 325 328 331 331 331 329 327 327 325 325 325 324 325 324 324 323 324 323 322 319 318 320 320 321
319 321 316 317 318 320 318 322 325 329 330 326 323 324 325 324 322 323 323 323 326 327 331 331 331 329 326 328 326 325 325 324 324 325 324 323 323 322 323 321 319 319 320 321
318 319 317 317 318 318 320 320 319 325 326 332 327 324 325 323 322 322 322 323 324 326 330 331 331 329 327 327 328 326 326 324 324 323 324 324 324 324 323 322 322 321 320 320
314 320 317 317 317 319 320 319 325 323 327 335 332 328 326 325 323 322 322 325 326 327 329 331 331 330 328 326 327 328 326 325 324 322 323 323 324 323 322 321 322 324 323 321
313 317 318 317 322 322 321 320 321 322 323 332 335 331 329 327 324 323 325 325 327 329 329 331 331 330 329 327 327 327 327 326 326 324 322 322 323 323 324 323 322 322 324 323
315 316 317 316 315 319 320 320 320 326 326 324 330 331 328 326 324 325 323 324 325 325 329 331 330 331 330 329 327 327 327 326 326 326 324 323 323 323 324 324 323 323 323 323
310 317 316 316 317 321 323 321 321 322 327 329 334 327 325 324 323 322 323 324 325 325 327 330 331 331 331 330 328 327 327 327 327 326 326 325 324 324 324 324 324 323 323 323
311 314 318 320 322 321 325 322 322 324 328 330 331 328 327 324 322 321 322 323 323 324 324 325 329 330 331 331 331 329 327 327 326 326 327 326 327 325 325 325 324 324 324 324
312 319 320 319 318 321 324 323 322 324 325 328 326 326 326 323 322 322 322 321 321 321 323 324 324 326 329 331 332 331 329 328 327 326 326 326 327 327 327 326 326 326 325 325
311 315 314 316 317 319 324 322 322 324 324 323 322 323 322 321 321 323 324 323 323 323 323 323 323 322 323 328 330 331 331 330 328 327 326 325 326 327 327 327 327 327 326 326
310 312 318 318 319 321 322 322 322 321 320 321 325 324 322 321 320 323 322 322 321 321 321 323 324 324 323 322 323 324 330 331 330 329 328 327 326 326 327 327 327 327 326 326
310 311 313 317 317 323 319 320 320 323 323 322 322 322 320 319 322 321 320 320 321 320 320 321 322 324 324 324 323 324 325 321 330 330 329 328 328 327 326 326 326 326 326 326
310 311 313 319 318 318 318 320 324 321 325 322 322 320 318 316 321 318 317 319 319 319 320 321 321 321 319 318 318 322 324 324 321 328 330 330 329 328 327 327 326 326 326 326
310 311 314 317 319 321 317 320 317 317 321 317 318 318 318 318 323 319 317 317 318 319 319 319 319 316 313 312 316 318 315 314 315 318 321 321 329 329 328 328 327 327 326 326
312 313 314 316 319 315 315 319 318 320 321 318 317 316 315 316 316 315 316 317 318 318 317 316 316 310 306 304 310 308 307 307 308 310 310 309 309 315 322 328 328 327 327 325
313 314 315 314 315 317 316 317 319 319 318 315 315 314 315 314 313 312 314 315 313 312 310 311 312 307 301 299 300 301 301 301 301 300 299 300 301 300 302 311 314 319 317 313
313 312 315 312 314 317 317 316 316 315 314 312 312 311 310 311 310 309 311 310 309 307 305 304 304 302 297 295 294 295 295 297 297 298 294 293 293 293 293 293 297 300 301 299
314 313 316 315 317 316 314 313 313 311 311 310 309 308 307 308 307 307 306 304 303 301 300 299 298 297 295 292 292 292 292 295 294 294 294 292 290 287 286 288 288 290 292 292
313 312 313 316 315 312 311 309 310 308 308 307 306 305 304 304 304 304 301 298 296 295 293 293 292 292 291 289 289 289 290 292 293 291 289 288 287 286 285 284 284 285 286 289
312 313 316 316 310 311 309 306 306 306 305 304 303 301 300 298 299 299 295 293 291 289 288 288 287 287 287 286 285 286 287 289 290 289 287 287 286 285 284 284 283 284 284 284

GFSCGP_925_thetae_075.txt.gz
Theta_e
312 307 308 309 315 316 318 319 319 318 317 319 319 317 316 316 316 318 317 317 321 327 326 327 327 328 328 328 326 325 324 322 324 324 324 324 323 323 323 322 323 322 320 320
315 310 310 312 315 317 318 318 317 318 319 320 320 322 316 316 316 316 319 318 319 327 327 326 326 326 327 326 326 325 324 323 324 324 324 323 323 322 323 322 322 320 321 322
317 318 317 317 312 316 314 315 318 319 319 319 319 319 317 318 318 318 319 320 320 328 328 326 326 324 326 326 325 324 323 323 324 323 323 323 322 321 321 322 321 320 321 322
319 317 318 320 316 314 316 316 318 319 321 325 322 323 318 318 319 319 317 319 320 329 328 326 325 324 323 324 324 323 323 323 324 324 323 323 322 321 320 321 320 320 320 321
315 319 318 320 318 314 316 319 320 323 324 325 325 321 319 318 319 319 318 318 317 328 328 327 325 324 323 323 324 323 324 323 324 324 323 322 322 321 320 319 320 320 322 322
315 312 316 317 317 315 318 319 321 322 324 329 326 323 319 319 320 321 320 319 318 328 328 327 325 324 324 324 324 324 323 323 324 324 323 322 322 321 320 319 319 320 321 322
313 314 314 315 316 316 317 321 327 330 330 330 323 323 320 319 320 320 319 318 319 328 328 327 326 324 324 324 324 325 323 323 324 324 323 322 322 321 319 318 317 319 320 322
314 316 316 315 316 319 319 323 328 332 329 325 322 323 321 320 320 319 318 319 322 328 328 327 326 324 324 324 324 324 324 324 324 324 323 323 322 321 319 317 316 316 319 321
316 318 315 315 317 318 321 324 320 326 324 329 331 321 320 320 321 319 320 319 320 326 327 327 326 324 325 324 323 324 323 323 324 323 324 323 323 322 321 319 316 316 318 320
314 317 316 316 318 319 320 319 322 323 329 332 328 330 321 321 319 319 319 319 320 322 327 328 326 324 326 325 324 324 324 323 323 324 324 323 323 323 322 322 319 317 317 319
313 316 317 319 321 322 321 323 323 323 326 330 335 335 328 327 324 320 321 321 323 322 327 328 326 325 325 326 325 324 324 324 323 323 324 324 323 323 322 322 321 320 318 318
314 318 318 316 316 318 317 323 323 327 328 325 324 329 327 325 323 321 322 321 321 324 324 327 327 326 324 325 326 325 325 324 323 323 322 323 323 324 323 322 321 322 322 320
311 317 320 316 315 315 319 322 322 322 323 327 330 329 326 322 321 320 320 319 320 322 324 325 327 326 325 325 325 326 326 325 324 323 322 322 322 322 323 323 322 321 321 323
311 313 315 319 320 318 321 324 323 322 328 326 328 329 328 326 322 320 320 319 320 321 321 324 325 327 326 326 325 325 326 326 325 324 323 322 321 321 322 322 323 322 322 321
312 313 315 316 314 317 318 320 322 324 324 329 328 327 327 325 323 321 321 321 321 321 322 322 322 321 323 327 326 325 325 326 326 325 325 324 323 323 322 322 323 323 323 322
311 313 313 314 314 315 319 320 321 325 323 324 326 327 323 323 323 321 320 320 321 321 321 322 323 323 322 322 323 324 326 326 326 325 325 325 325 324 324 323 323 323 323 323
312 311 311 315 315 316 321 322 324 324 324 325 328 325 323 325 322 320 319 319 320 321 321 322 321 320 318 317 318 321 323 323 326 326 325 325 325 326 326 325 324 324 324 324
310 311 311 314 316 324 318 318 321 323 324 323 324 324 323 321 317 317 317 317 318 320 321 319 316 313 310 310 316 317 316 315 316 319 322 325 324 324 325 326 326 326 325 325
309 311 312 314 316 316 319 321 320 324 321 318 321 322 320 320 317 315 316 317 317 318 317 313 309 306 304 304 309 309 309 310 310 311 310 310 312 318 325 325 325 326 325 325
307 309 311 314 317 321 318 318 315 317 322 316 317 317 317 316 317 315 315 311 310 309 310 308 303 301 299 299 303 304 304 304 304 305 304 303 305 304 310 315 319 324 325 325
309 311 313 313 315 315 319 317 315 321 320 319 315 314 313 313 312 313 311 308 306 304 304 304 299 297 296 295 298 298 297 299 299 299 299 300 303 302 298 302 310 310 316 323
310 313 312 311 313 314 318 318 321 319 316 313 312 312 312 310 310 308 306 303 301 300 300 300 297 295 293 293 294 294 294 295 295 294 293 293 298 299 299 300 297 301 301 299
313 311 312 311 312 316 315 317 313 311 311 310 309 308 308 307 307 304 302 299 297 296 295 295 295 294 291 290 290 291 291 294 293 292 290 288 288 288 292 296 295 293 292 292
313 310 314 314 315 314 311 310 309 309 308 306 305 304 304 304 303 299 297 296 293 292 292 291 291 290 288 287 287 288 289 292 291 290 288 286 286 285 286 286 286 288 289 288
308 313 314 309 305 308 307 307 306 305 305 304 301 299 299 299 298 295 293 291 290 289 288 288 287 287 286 286 286 286 287 289 289 288 287 285 285 284 284 284 284 284 285 286
306 305 310 310 306 305 303 303 302 302 301 298 298 296 293 294 293 291 289 287 286 285 285 285 285 285 286 285 285 285 285 286 287 286 285 284 284 284 283 283 283 283 283 284

GFSCGP_925_thetae_078.txt.gz
Theta_e
311 308 308 305 309 314 316 317 317 316 317 318 318 317 317 318 317 314 313 313 322 327 324 327 327 328 328 327 326 325 323 323 323 324 326 326 326 326 326 326 326 327 326 322
314 311 309 308 310 312 314 316 317 316 317 317 316 316 318 318 317 316 315 314 319 324 326 326 326 327 326 325 325 324 323 323 322 324 324 324 325 325 325 325 324 326 324 323
315 316 313 311 316 319 314 315 315 315 317 317 317 319 319 319 317 314 313 316 316 326 327 327 325 325 325 325 324 324 323 322 323 322 324 324 323 323 323 323 323 323 322 322
316 316 318 318 319 318 321 313 315 318 321 323 320 324 320 320 320 317 315 314 316 326 326 327 325 324 324 324 324 324 323 323 324 323 322 322 322 322 322 323 323 322 321 321
314 316 317 319 319 318 319 314 316 320 321 323 321 323 321 320 319 318 316 313 317 326 326 327 325 324 324 324 324 324 323 324 324 323 323 322 322 322 322 322 322 321 321 321
313 312 314 315 315 317 316 316 317 320 322 324 320 324 323 321 320 319 317 317 318 327 326 326 324 322 322 323 323 323 323 323 324 323 322 323 321 321 321 321 320 320 320 321
312 312 312 314 316 316 317 320 323 324 325 324 321 324 323 321 319 318 318 318 319 326 326 324 324 322 321 322 322 323 323 323 323 324 323 322 322 321 320 320 320 320 320 321
312 313 315 314 315 318 318 322 327 326 329 326 323 324 322 320 320 319 317 316 323 327 326 325 324 322 322 322 323 323 323 323 323 324 323 322 322 321 321 320 319 319 320 320
314 315 313 314 314 316 321 325 321 327 328 327 327 324 320 319 318 317 316 322 327 327 326 325 324 323 323 322 323 323 323 322 322 324 323 322 322 321 320 320 319 319 319 320
313 315 314 317 315 317 318 321 325 324 328 330 327 327 324 327 323 318 317 320 327 327 326 325 324 323 323 323 323 323 323 323 323 323 323 323 322 321 320 320 318 317 318 319
314 314 315 318 319 321 321 323 323 323 324 333 332 332 326 327 326 322 318 318 324 326 327 326 324 324 323 322 322 322 322 323 323 323 323 323 323 322 321 320 319 316 316 317
314 315 315 315 314 318 320 320 323 324 326 326 326 328 328 327 324 320 320 320 319 326 326 325 324 324 324 323 322 322 322 322 322 323 323 323 323 323 322 322 321 319 316 316
310 314 315 315 315 318 318 319 320 324 324 329 329 328 326 325 325 322 320 321 321 321 324 324 323 323 324 324 323 322 323 322 322 322 322 323 323 323 322 322 322 321 320 318
310 312 313 315 316 316 319 318 317 322 324 324 325 326 324 326 326 324 321 321 322 322 322 322 322 322 323 324 325 324 323 323 323 322 322 322 322 322 322 322 322 321 321 321
311 311 312 313 314 314 315 318 318 319 321 325 323 325 327 327 326 323 320 322 323 324 324 323 321 321 322 322 323 324 325 324 323 323 322 321 321 321 322 322 322 322 321 320
310 310 312 312 312 315 317 317 316 317 320 320 322 326 322 325 324 321 319 321 323 323 320 317 316 314 315 318 319 319 321 322 325 323 323 322 322 321 320 321 321 321 322 322
310 312 310 310 313 313 317 317 317 317 320 322 325 322 323 326 322 320 318 321 322 319 315 312 310 308 308 310 311 311 312 314 321 323 323 323 323 322 322 321 321 320 321 322
309 310 309 310 312 318 319 314 320 323 321 322 324 324 321 318 316 314 317 319 316 312 308 306 305 303 302 305 306 306 306 307 308 309 310 311 312 314 319 323 322 322 321 322
308 308 308 308 313 310 315 317 322 316 317 321 322 322 320 317 313 310 308 311 309 306 303 301 300 299 298 301 301 301 301 301 302 303 303 303 304 307 310 312 315 320 323 323
307 307 308 310 313 312 317 316 316 318 320 317 320 320 318 316 315 309 305 304 303 302 299 298 296 295 295 297 298 297 297 297 297 297 297 296 297 299 300 302 306 310 313 317
307 307 310 310 312 313 313 317 317 321 321 314 313 313 314 314 309 304 301 299 298 298 297 296 294 293 292 293 295 295 295 295 294 292 291 290 291 292 293 295 299 302 303 305
309 310 309 310 313 313 316 316 319 315 313 312 311 310 310 306 303 300 298 296 295 295 294 294 293 291 290 289 292 292 292 293 291 289 288 287 287 288 289 290 291 294 297 295
313 310 309 309 311 314 313 314 312 311 309 307 308 306 305 302 300 298 295 293 292 291 291 291 290 289 288 288 288 289 289 291 290 288 286 285 285 285 286 286 287 288 289 289
308 311 312 312 310 309 308 308 307 304 303 301 300 301 301 299 296 294 292 290 289 288 288 288 288 287 287 286 287 287 288 290 288 287 285 284 284 284 284 285 285 285 286 286
304 306 311 308 304 306 304 302 302 302 300 297 295 295 296 294 292 290 289 287 286 286 286 286 287 286 286 286 286 286 286 287 287 286 285 284 284 283 283 283 284 284 284 285
301 301 309 308 302 303 302 299 298 296 294 294 293 291 290 290 289 288 286 285 284 284 284 284 284 284 285 284 284 284 284 285 285 285 284 284 283 283 282 282 281 281 282 283

GFSCGP_925_thetae_081.txt.gz
Theta_e
310 307 307 305 308 310 313 314 315 314 314 315 315 315 315 315 314 313 315 314 310 315 321 324 326 327 327 327 325 324 323 322 323 324 325 327 328 328 328 329 328 327 326 324
314 311 309 307 307 307 309 311 312 313 314 315 314 315 315 315 315 315 314 315 310 321 325 325 326 326 325 325 324 323 324 321 323 325 325 326 327 327 328 328 328 326 324 321
314 315 314 311 309 312 313 316 313 314 315 314 315 317 315 315 315 316 316 313 311 322 326 326 327 326 324 323 322 322 323 322 323 324 324 324 326 325 325 327 326 326 325 322
314 315 317 316 318 317 319 316 316 313 318 318 319 322 320 318 317 317 317 312 312 322 325 326 327 326 324 323 323 322 323 322 322 323 324 324 324 324 324 324 324 325 324 322
314 315 316 317 317 317 316 317 316 317 318 319 319 323 319 317 318 318 318 314 311 320 325 326 326 326 324 323 323 323 322 322 322 322 323 324 323 323 323 323 323 323 323 323
311 311 314 314 314 314 316 316 316 316 320 322 318 320 319 317 318 319 319 315 312 318 324 325 324 325 323 322 322 322 322 323 322 322 322 322 322 322 322 323 322 322 323 323
312 312 312 313 315 314 316 318 317 318 320 320 318 319 318 317 319 319 319 317 313 320 324 325 324 324 322 321 322 322 322 323 323 322 322 321 321 321 322 322 322 322 322 321
312 312 311 313 313 315 316 318 320 324 323 324 317 320 318 318 319 319 319 317 314 319 324 325 323 323 322 322 321 322 322 323 324 323 321 321 320 320 320 322 322 321 321 321
312 314 312 313 313 314 319 321 319 325 323 328 322 324 319 326 320 322 321 318 316 322 324 325 323 322 322 321 321 322 322 323 323 324 322 321 321 321 320 320 320 321 321 320
312 314 312 317 314 315 316 319 325 320 325 328 325 325 330 329 326 323 319 318 318 326 324 324 324 321 321 321 321 322 322 323 323 323 323 323 322 321 321 320 320 320 320 320
313 313 313 317 318 318 320 318 320 323 323 329 331 331 327 327 325 324 321 320 323 326 325 324 324 322 322 322 322 322 322 322 322 323 323 323 322 322 322 321 320 319 319 319
313 315 314 313 313 316 318 318 321 325 328 325 325 323 326 323 322 323 321 322 321 325 325 324 323 322 322 321 321 321 321 322 322 323 323 323 323 322 322 321 321 320 319 318
311 313 312 309 314 318 319 319 318 320 321 323 323 322 323 322 321 322 321 324 322 324 323 322 323 322 321 321 321 321 321 321 322 322 322 323 322 322 322 322 321 320 319 318
309 310 311 311 310 314 314 316 316 316 322 324 322 323 324 323 321 322 322 324 323 323 323 323 322 323 323 323 322 322 322 322 321 322 322 322 322 322 321 322 322 322 321 320
308 309 311 311 311 312 313 314 314 315 316 319 317 322 324 323 322 322 322 322 319 317 317 317 318 319 320 320 321 323 323 323 322 322 321 321 322 322 322 322 322 322 321 321
309 309 310 310 309 311 313 310 313 314 316 317 317 319 320 323 322 322 320 319 316 315 313 312 312 313 313 312 312 312 313 318 322 322 322 322 321 321 321 322 322 322 322 321
309 309 310 307 307 308 311 314 316 317 317 315 318 318 323 324 324 322 321 315 311 310 308 307 306 307 306 306 306 305 307 309 312 312 313 315 320 321 321 321 320 320 321 321
308 308 308 307 307 305 311 314 315 318 318 317 319 318 321 317 313 314 313 309 306 305 303 302 301 301 301 301 301 301 302 303 303 303 303 303 307 309 312 317 321 320 320 320
307 307 307 306 307 306 308 315 316 315 318 315 320 319 315 311 309 306 306 304 302 300 299 298 297 297 298 298 298 298 298 297 297 297 296 296 299 300 301 303 307 310 314 318
306 305 306 307 308 307 312 314 313 313 319 314 318 317 315 315 312 305 301 301 299 297 295 295 294 293 294 296 296 296 295 293 292 292 292 292 293 293 294 295 296 300 303 304
307 307 309 307 307 308 311 317 314 319 318 313 314 315 311 307 305 300 297 297 296 295 294 293 291 291 291 293 294 294 293 291 289 288 288 288 289 290 291 292 293 294 294 295
307 308 308 307 309 309 314 315 314 313 311 310 309 307 305 301 298 296 295 293 293 293 292 291 290 289 289 289 291 291 292 290 289 288 287 286 286 286 287 289 289 290 291 290
311 308 308 308 308 310 310 313 310 306 307 306 307 304 302 298 296 294 292 290 289 289 289 289 289 288 287 287 288 288 289 289 288 286 285 285 285 285 285 286 286 286 287 287
304 304 311 310 306 305 305 302 301 299 298 299 299 299 297 295 293 291 289 288 288 287 287 288 287 287 286 286 286 286 287 287 287 286 285 284 284 283 284 285 285 285 285 285
300 301 308 308 305 304 300 298 298 296 294 293 293 293 292 291 290 288 287 286 286 285 285 285 285 285 284 284 283 284 285 286 285 285 284 283 283 283 282 282 283 283 283 284
297 299 302 305 301 300 299 296 293 292 291 290 289 288 288 288 287 286 285 284 283 282 282 282 282 283 283 282 282 282 283 283 284 284 283 283 282 282 281 280 279 280 280 281

GFSCGP_925_thetae_084.txt.gz
Theta_e
307 306 306 305 307 308 310 311 310 309 310 312 311 312 313 312 311 310 310 310 310 309 308 314 323 325 326 327 328 327 325 324 326 326 328 329 328 327 326 326 327 326 325 326
313 309 306 305 305 306 307 307 308 309 310 311 312 313 313 312 312 313 311 311 311 310 320 322 323 324 325 323 324 324 323 322 323 324 324 326 328 327 327 326 327 326 324 326
314 314 313 310 310 309 309 311 313 314 314 311 312 314 312 312 313 313 312 312 312 311 316 325 325 324 324 322 322 323 322 321 322 323 324 324 325 326 326 328 326 325 324 324
313 311 314 312 312 310 316 315 316 315 315 315 315 319 313 314 315 315 314 313 313 311 317 325 325 324 325 323 322 322 323 321 321 322 324 324 325 325 324 326 325 324 325 322
312 315 317 317 316 315 316 316 317 316 316 316 315 317 314 314 315 315 314 313 313 311 319 325 325 324 325 323 322 321 323 321 322 323 323 324 324 324 325 325 325 324 323 321
310 311 312 311 313 314 314 315 315 315 317 318 314 316 315 315 315 315 315 315 315 312 321 324 323 325 324 322 320 321 321 321 321 322 322 324 324 324 324 323 323 323 322 321
312 312 312 313 313 313 314 316 315 316 321 319 314 316 316 315 315 315 316 316 315 313 321 324 324 325 323 321 320 320 321 320 321 322 321 322 323 323 323 323 322 323 323 322
311 310 311 312 312 314 315 316 317 321 321 321 319 316 316 323 322 321 320 317 315 312 321 324 324 324 323 322 320 320 319 320 321 321 321 321 321 322 323 322 322 322 322 322
311 312 311 313 312 313 317 319 317 321 319 323 321 319 322 324 323 322 321 320 320 316 319 324 323 324 322 321 321 320 320 321 320 322 320 320 320 319 320 322 322 322 323 323
311 312 312 315 313 313 315 318 324 321 320 323 321 322 327 325 323 322 322 321 323 320 317 323 323 323 322 321 321 320 321 322 322 322 322 320 320 319 319 319 321 322 322 322
311 312 313 316 317 316 318 319 320 320 323 324 322 323 326 325 322 322 322 323 323 319 323 324 322 321 322 321 320 320 321 322 322 322 322 321 320 321 320 320 320 320 320 321
313 313 313 312 311 314 316 316 316 323 322 322 320 320 325 325 320 321 321 322 322 323 324 323 321 321 320 320 319 319 321 322 322 322 323 322 322 321 321 320 321 320 320 320
312 312 310 307 312 316 318 317 317 316 319 322 326 320 321 320 321 319 320 321 319 322 323 322 322 321 321 320 319 319 321 321 321 322 322 321 322 322 322 321 321 320 319 319
308 310 309 308 308 310 310 312 313 316 316 314 319 318 315 320 321 320 322 319 317 319 323 323 322 321 321 321 320 320 321 321 321 322 322 322 321 321 321 321 321 321 320 319
306 309 310 309 309 310 310 310 311 313 313 315 312 314 315 317 321 321 320 316 315 315 316 317 318 319 319 320 321 321 321 321 321 321 322 322 322 322 321 321 321 321 321 320
308 309 309 310 308 308 310 308 306 307 309 312 313 315 314 316 322 321 315 312 312 310 310 310 310 311 311 311 311 311 312 318 321 321 321 320 321 321 322 322 321 321 321 321
308 306 306 305 305 307 306 309 313 312 313 314 317 315 318 321 323 320 313 308 307 306 305 305 305 305 303 303 303 304 305 308 310 310 309 312 317 320 320 320 321 321 321 322
307 307 307 307 305 303 304 313 314 313 313 311 316 317 315 316 310 307 306 305 303 301 300 299 300 299 299 299 299 299 299 299 299 299 299 302 304 306 309 313 314 317 318 319
305 306 306 304 306 304 305 314 311 311 312 313 313 315 316 308 305 302 302 300 299 297 296 295 295 296 296 297 295 294 293 293 294 294 294 295 296 298 300 301 302 304 306 309
305 304 306 306 307 303 302 314 312 313 314 309 314 317 312 314 312 302 298 298 296 294 293 292 292 291 293 295 294 292 291 290 289 290 290 290 292 292 293 293 295 296 297 296
307 306 307 307 308 306 308 312 313 316 314 304 306 303 303 302 302 298 296 295 293 292 292 291 290 289 289 292 293 291 289 288 287 287 287 288 289 290 290 291 292 292 291 291
307 308 307 308 309 308 309 313 314 311 304 301 300 298 298 296 295 294 292 291 291 290 290 290 289 288 287 288 290 290 289 288 287 286 285 286 286 286 288 289 289 289 289 288
309 308 308 307 308 305 302 304 302 301 300 302 299 298 296 295 293 291 290 289 288 288 288 288 287 286 286 286 286 288 288 287 286 285 284 284 285 285 285 285 286 286 286 286
298 302 304 309 304 301 300 298 296 295 295 295 295 295 294 292 290 289 288 287 286 286 286 286 285 285 284 283 284 285 286 286 285 284 283 283 282 283 283 283 284 284 285 285
297 298 299 306 304 300 296 295 294 293 292 290 290 290 290 289 287 287 286 285 284 283 283 283 283 283 283 282 282 283 284 285 284 284 283 282 281 281 281 281 282 282 282 283
295 296 298 301 300 298 295 292 291 290 288 288 288 287 286 286 285 284 283 281 281 281 281 281 281 281 281 281 281 281 282 282 282 282 282 281 280 280 279 279 279 279 280 280

GFSCGP_925_thetae_087.txt.gz
Theta_e
307 309 309 308 309 307 309 311 311 310 309 309 310 311 312 312 313 314 314 315 316 316 317 315 313 319 325 327 328 328 328 329 328 328 328 328 327 326 326 326 326 325 326 327
311 311 309 308 307 308 308 308 309 310 309 312 314 315 314 314 313 313 314 315 316 316 316 316 320 323 324 326 327 327 327 327 327 327 328 328 328 327 326 326 325 325 325 327
313 313 311 308 308 308 308 310 311 313 314 315 314 315 314 313 313 313 313 314 315 316 317 317 323 324 325 325 326 325 326 325 324 325 325 326 326 327 327 326 327 326 326 326
313 312 314 312 312 311 313 312 313 316 317 315 315 316 313 314 315 315 316 316 315 315 316 317 322 325 325 325 324 325 324 325 324 324 324 324 325 326 326 326 326 326 326 325
312 315 315 315 315 312 316 316 316 315 317 317 316 318 315 315 316 317 317 317 317 317 318 318 323 325 325 324 322 323 323 322 322 322 323 324 324 325 325 326 325 323 323 320
310 311 314 314 314 315 315 314 315 316 316 319 316 317 316 316 317 321 322 320 317 318 317 319 325 326 326 323 322 321 321 322 321 321 322 323 324 324 325 324 322 320 320 320
313 313 312 313 314 314 314 316 319 319 319 317 315 317 317 316 323 324 324 322 322 320 318 326 327 327 326 323 322 321 321 322 322 321 322 323 324 324 324 324 323 321 319 320
311 312 313 313 313 315 315 316 317 317 321 320 319 320 317 324 322 322 322 323 324 325 323 324 327 327 326 323 321 322 322 322 321 321 321 322 323 323 324 323 323 323 321 319
311 313 311 313 313 314 317 318 317 320 319 320 318 320 318 323 323 322 323 323 324 324 324 322 326 327 325 323 321 321 321 321 321 320 321 321 321 322 322 323 323 322 322 322
311 316 313 314 313 313 316 317 320 319 320 321 319 320 321 326 324 322 323 324 324 323 325 321 324 326 324 324 321 321 320 321 320 320 320 320 320 320 321 322 322 322 322 322
311 313 315 316 316 317 318 318 317 320 322 323 323 320 326 324 321 323 322 322 323 322 325 325 325 325 324 322 321 320 320 320 320 321 321 320 319 319 319 320 320 322 322 322
313 313 314 313 311 314 316 316 316 318 321 321 321 321 322 316 319 320 322 321 320 319 325 325 322 322 322 321 320 320 320 320 320 320 322 321 320 321 320 320 320 320 321 321
312 312 309 316 316 316 316 317 313 313 313 318 321 320 320 312 315 318 321 319 317 316 323 323 322 321 321 320 320 320 320 322 322 321 322 321 321 321 321 321 321 320 320 320
310 311 308 307 309 311 312 311 310 314 314 312 313 312 312 311 312 317 318 316 314 312 313 319 321 321 321 320 320 320 322 322 322 323 323 322 321 320 320 321 321 321 320 320
309 311 311 310 309 310 310 310 310 311 310 310 308 309 310 312 313 318 314 312 310 308 308 310 312 315 318 320 320 320 321 322 322 322 322 322 322 322 322 321 321 320 319 318
309 310 310 309 308 307 307 307 307 307 308 309 310 313 313 314 316 316 312 309 306 304 304 304 304 306 307 309 310 310 314 322 321 321 321 321 321 322 322 321 321 321 320 319
309 309 310 308 306 307 305 307 308 309 311 314 313 313 311 316 314 312 308 305 302 300 300 300 300 300 301 301 302 304 304 306 306 306 307 311 316 316 317 320 321 321 321 321
308 307 308 308 306 303 305 305 311 314 312 311 312 313 313 313 306 303 304 302 299 297 296 296 296 297 296 296 296 296 297 298 298 298 298 300 302 304 306 310 311 313 315 316
306 308 308 308 307 305 307 313 311 313 311 307 307 308 308 306 302 300 299 297 296 294 293 292 292 294 295 293 292 292 292 293 292 292 293 294 296 297 297 297 299 301 304 302
306 307 308 307 306 305 303 310 311 313 314 304 302 302 313 308 310 299 297 295 294 292 291 291 290 290 292 293 291 290 290 290 289 289 290 291 291 292 292 293 292 292 294 293
306 305 306 306 306 306 307 308 311 314 311 303 300 298 296 297 298 295 293 292 291 290 290 289 288 288 288 291 291 290 289 288 288 288 288 288 289 289 289 290 290 290 289 289
307 308 308 306 308 307 303 308 310 308 301 300 297 296 294 293 291 291 290 290 290 289 288 287 287 286 286 287 289 289 288 287 287 286 286 287 287 287 288 288 288 288 287 287
309 305 304 309 308 301 299 299 297 298 298 298 296 294 292 291 290 289 288 288 287 286 286 286 285 285 284 284 285 287 286 286 285 285 285 285 285 285 286 286 287 287 287 286
297 297 302 302 300 297 296 295 294 293 292 292 292 291 290 290 288 287 286 285 285 284 284 284 284 283 283 283 283 284 285 285 285 284 284 284 284 284 284 284 284 284 285 285
295 296 297 302 300 297 293 292 291 291 290 289 288 288 288 286 285 284 284 283 283 282 282 282 282 282 282 282 282 282 283 284 284 283 283 282 282 282 282 281 282 282 282 283
294 295 297 297 296 293 291 290 288 287 287 287 286 285 284 284 283 283 282 281 281 281 280 280 280 280 280 280 280 280 281 282 283 282 282 281 281 280 280 280 279 278 279 280

GFSCGP_925_thetae_090.txt.gz
Theta_e
306 308 310 310 309 309 308 309 310 312 312 310 311 311 311 313 314 315 315 316 316 317 319 319 319 319 320 324 329 332 336 334 334 333 333 333 330 329 327 327 328 328 327 328
308 309 308 309 309 309 309 308 307 308 310 312 313 314 316 315 315 316 316 316 317 317 317 319 319 319 324 325 329 331 334 332 334 334 334 331 329 329 327 327 327 327 326 327
310 311 309 309 310 311 311 310 311 310 311 314 316 316 315 316 316 316 316 317 317 317 318 318 319 319 324 327 329 331 333 332 334 333 332 331 329 328 327 327 326 326 326 327
313 312 313 312 312 310 311 310 311 311 315 317 316 314 313 314 315 317 319 321 321 320 319 318 318 320 324 327 329 330 332 333 332 331 331 330 329 328 328 327 326 326 326 326
312 313 312 313 312 311 311 315 315 316 317 316 316 318 315 315 317 320 322 324 324 323 320 320 319 320 322 327 329 330 332 331 330 330 329 328 327 327 329 328 327 326 326 325
310 313 313 313 312 314 315 317 316 315 315 319 316 317 314 318 320 323 325 325 326 325 325 321 320 320 325 328 327 328 331 331 330 329 327 327 327 326 327 326 325 325 325 325
310 311 314 314 317 315 315 314 318 320 320 316 317 317 316 318 325 326 326 326 326 327 327 326 325 327 327 328 324 327 330 329 328 327 326 326 326 327 327 324 323 320 320 321
312 312 312 314 314 314 315 315 316 315 316 316 317 320 320 324 324 324 324 324 325 326 328 327 326 328 329 326 323 325 327 328 326 325 325 325 326 326 326 324 322 320 320 319
308 309 311 313 312 314 316 319 316 319 318 320 316 317 322 323 324 323 323 323 324 326 329 328 326 328 329 327 323 324 327 328 326 324 324 325 325 325 325 323 323 320 320 319
312 311 313 314 314 316 317 316 320 320 321 320 317 318 321 325 322 321 322 323 324 325 329 329 324 327 329 327 323 324 327 327 324 324 323 324 324 324 325 324 323 322 320 319
313 314 317 316 317 317 318 318 319 320 321 324 319 321 326 321 318 318 321 322 323 325 326 328 327 326 328 326 323 323 325 324 323 323 322 323 322 323 323 323 322 322 322 320
313 314 317 316 316 315 316 316 318 320 323 320 321 320 321 319 314 313 317 321 321 318 318 324 324 326 325 323 323 322 323 322 323 322 322 322 321 322 322 322 322 322 322 322
314 314 316 316 315 315 316 318 316 315 315 319 320 319 321 314 312 314 316 320 318 314 313 313 322 323 323 322 322 322 322 322 323 322 322 322 322 322 323 323 323 324 323 322
311 313 311 312 314 315 316 314 313 315 317 314 315 313 311 311 315 317 318 318 315 310 308 309 309 317 322 322 321 321 322 322 322 322 323 323 323 323 323 323 322 322 323 323
312 313 311 310 310 309 309 309 310 312 311 311 309 310 311 314 316 316 318 315 312 307 305 305 304 306 309 320 321 321 323 323 324 324 322 322 322 322 322 322 322 321 320 322
309 311 310 308 308 308 308 307 308 308 308 310 311 313 311 314 314 316 311 309 308 304 301 300 301 301 302 304 311 312 320 323 323 323 322 323 323 323 323 322 322 322 321 320
309 310 307 308 306 306 306 307 308 308 309 311 313 313 312 313 313 310 308 304 303 300 298 297 298 297 297 298 301 303 304 307 307 307 308 313 316 318 319 322 323 323 323 322
309 308 309 308 307 307 311 309 311 310 312 310 310 310 309 309 304 300 299 301 299 298 295 294 294 295 294 294 295 296 297 298 298 298 299 301 303 305 307 310 310 312 315 315
308 308 309 309 307 305 311 311 310 312 312 305 304 304 303 304 300 298 296 295 295 294 293 291 290 291 293 292 292 292 292 292 292 293 294 295 296 297 297 297 298 298 299 297
308 307 309 307 307 305 310 309 310 312 316 302 301 299 297 306 307 296 293 292 292 290 290 289 289 288 290 291 291 290 290 290 290 290 291 291 292 292 292 292 291 291 292 289
308 307 308 307 308 308 306 307 309 316 310 301 299 296 293 293 294 292 291 290 289 288 288 287 287 287 287 289 289 289 289 289 288 289 289 290 290 290 290 289 289 289 288 288
309 310 310 307 309 311 300 307 309 303 301 300 297 295 293 292 291 290 289 288 288 287 287 286 285 285 285 287 288 288 287 287 288 288 288 288 289 290 290 289 289 288 288 287
310 304 307 305 304 299 297 297 296 296 296 296 295 293 292 290 289 288 288 288 287 286 286 286 285 284 284 284 286 286 286 287 287 287 287 288 288 288 288 289 289 289 289 289
301 299 305 305 299 297 296 295 293 293 292 292 291 291 289 288 287 286 286 286 285 285 285 285 285 284 284 283 284 285 286 286 285 285 286 285 284 285 286 285 285 286 287 288
298 298 299 301 299 298 293 292 291 291 290 288 288 288 287 286 285 285 285 284 283 283 283 283 283 283 282 282 282 282 284 285 285 285 284 284 284 283 282 281 282 282 281 283
295 296 300 301 296 295 292 290 289 288 287 287 287 285 285 285 285 284 283 282 282 282 281 281 281 281 281 281 281 281 282 284 285 284 284 283 283 283 282 281 279 278 279 279

GFSCGP_925_thetae_096.txt.gz
Theta_e
312 310 308 308 309 309 310 311 312 312 311 312 313 313 312 315 315 313 314 316 316 317 317 317 320 320 320 321 320 324 340 345 343 342 340 339 338 337 336 337 337 335 333 332
309 313 311 309 308 309 311 311 312 312 311 311 310 311 311 311 312 313 313 313 314 315 316 317 317 320 321 321 321 326 335 345 342 340 339 337 336 336 335 333 334 334 333 331
307 309 311 311 310 308 311 312 311 311 311 310 311 310 312 313 314 314 314 315 316 317 318 319 320 320 320 323 322 325 330 344 342 340 337 336 335 335 335 334 332 331 331 329
309 308 306 308 311 310 310 311 311 312 311 311 310 313 312 315 316 315 315 316 318 323 325 325 324 323 321 324 323 323 327 332 342 338 337 337 338 335 333 332 331 329 328 328
308 308 309 307 309 311 311 311 311 312 312 312 312 313 313 315 315 316 321 324 325 326 326 327 326 325 322 321 325 324 326 330 341 338 337 337 337 333 331 331 330 329 328 329
307 307 308 309 307 311 313 311 312 312 313 315 313 314 314 315 316 320 325 325 326 327 327 327 327 325 323 320 324 327 329 332 339 338 337 339 335 334 333 331 332 330 328 327
309 308 310 309 305 312 314 314 318 320 319 319 314 314 315 315 324 325 324 325 326 327 328 329 327 327 324 322 324 331 331 333 337 336 337 338 335 333 334 331 330 331 328 327
312 311 309 310 311 315 316 315 319 320 320 318 314 315 318 318 323 323 324 324 325 325 325 326 326 330 328 326 333 332 332 333 337 336 337 336 334 333 332 329 330 330 328 326
310 310 310 310 312 313 317 318 318 320 317 322 325 315 322 321 323 322 322 323 324 323 322 322 323 327 329 334 334 332 332 332 335 335 334 333 333 330 328 329 329 326 324 325
307 310 311 311 311 313 316 315 317 318 327 326 327 322 327 325 322 318 318 322 322 320 319 317 319 319 328 330 329 329 331 333 334 333 333 331 329 328 328 328 325 324 322 323
305 309 311 314 314 315 313 317 316 317 319 322 322 326 324 320 316 317 320 321 321 318 315 312 311 313 316 328 326 326 329 330 331 331 330 328 327 327 327 326 323 323 322 321
306 314 313 318 314 314 311 315 318 319 319 318 324 327 320 318 315 319 320 320 318 315 311 308 306 306 307 313 326 325 326 328 329 329 327 326 326 326 327 325 322 322 321 320
307 310 315 316 316 314 312 312 315 318 318 323 324 326 317 316 318 318 317 316 315 312 308 305 303 303 303 304 310 325 325 326 326 326 325 325 325 325 325 324 323 322 320 319
306 307 308 313 316 314 314 314 317 319 320 319 319 320 317 315 316 315 314 313 312 309 305 302 301 300 299 300 302 306 323 324 324 324 324 325 324 324 323 323 323 322 320 319
308 311 312 313 313 318 319 318 318 318 317 315 313 315 314 313 313 311 309 309 307 304 302 300 298 298 297 297 297 300 304 322 323 323 323 324 325 324 324 325 323 323 321 320
309 315 314 315 316 316 317 315 316 312 312 311 312 313 310 309 305 304 302 301 300 298 296 296 295 295 295 294 295 296 298 304 323 322 323 324 324 326 325 325 325 324 323 322
311 313 313 310 307 309 311 309 309 314 312 312 313 310 306 306 300 297 296 295 295 294 293 293 292 292 292 292 292 293 294 298 304 310 312 317 317 320 320 322 322 322 318 318
311 312 310 309 310 316 312 311 313 311 307 306 306 305 303 300 295 293 293 292 291 291 291 290 290 290 290 290 290 291 292 293 295 297 300 303 306 307 308 311 309 311 311 308
309 312 312 312 315 314 313 309 311 313 307 303 303 300 300 299 297 293 291 291 290 289 289 288 287 288 289 289 289 289 289 290 291 292 292 294 297 297 298 298 297 297 298 296
307 309 312 311 309 314 307 304 307 309 307 301 299 297 298 298 301 294 292 291 290 288 287 287 286 286 287 288 288 288 288 288 289 289 291 290 291 291 291 291 291 291 292 289
312 311 313 311 314 309 301 304 307 313 305 299 297 294 293 293 293 292 291 290 289 288 287 286 285 285 285 287 287 287 287 286 287 288 288 288 290 289 289 289 289 289 288 288
307 311 310 312 313 310 298 302 303 301 299 298 295 293 292 291 291 290 289 288 287 287 286 285 285 284 284 285 287 286 286 285 285 285 286 286 286 286 288 289 289 289 288 288
307 305 307 303 303 298 296 297 295 295 295 294 294 292 291 290 289 288 288 287 286 286 285 285 284 284 283 284 285 286 286 286 285 283 283 283 284 285 285 285 286 287 288 288
304 302 305 304 299 296 295 294 293 292 291 291 291 290 289 288 288 287 286 286 285 285 285 284 284 283 283 283 283 285 285 285 286 284 283 281 281 281 282 281 282 282 284 283
299 301 302 300 298 295 292 292 292 291 290 289 289 289 288 287 287 286 286 285 285 285 284 283 283 283 282 282 283 283 284 285 285 285 284 282 281 279 279 280 280 280 281 282
297 296 300 299 297 294 291 291 290 289 289 289 288 287 287 287 286 285 284 283 283 283 282 282 282 281 281 281 281 282 283 283 285 284 284 283 284 281 280 278 278 278 278 279

GFSCGP_925_thetae_099.txt.gz
Theta_e
302 307 310 304 303 305 306 308 307 308 309 310 310 307 308 309 310 309 310 308 308 312 313 314 315 317 318 319 319 319 343 344 344 343 342 340 339 339 339 337 337 337 337 337
302 303 306 309 307 306 306 306 306 307 309 310 308 307 306 307 307 308 308 308 308 308 310 311 313 314 316 319 320 321 344 344 343 343 341 340 339 338 337 338 336 335 334 334
306 305 307 307 309 310 309 307 306 307 309 308 308 309 307 309 309 309 310 309 310 309 309 310 312 313 314 319 320 330 344 343 342 341 339 338 338 337 336 336 337 336 334 332
305 307 307 307 307 306 305 309 308 307 309 310 309 310 308 308 310 310 311 313 311 310 311 317 321 321 320 319 320 331 344 343 341 340 338 338 336 335 335 335 334 334 333 332
301 302 304 306 306 307 308 307 311 309 309 310 309 308 309 310 311 312 315 311 312 313 323 324 323 322 324 323 322 332 343 342 340 339 338 336 335 334 334 334 333 332 331 331
300 303 305 307 307 306 306 308 312 313 311 312 312 311 310 311 312 314 322 325 325 324 323 323 323 323 324 324 321 324 341 342 340 339 337 336 335 335 332 332 331 331 329 328
305 306 306 307 307 308 309 309 315 317 317 315 312 312 312 313 313 320 326 323 322 321 321 320 320 320 321 322 322 324 328 340 339 337 336 336 335 335 333 332 330 329 329 328
308 308 306 307 307 311 309 310 317 317 318 316 313 314 314 313 315 323 323 321 320 319 318 316 316 317 317 325 324 327 335 338 337 337 337 337 336 335 333 332 331 330 328 327
307 304 304 304 309 311 313 315 310 318 319 322 321 320 322 321 323 321 322 319 318 315 313 312 311 312 312 325 326 329 331 335 337 337 337 336 336 335 333 332 331 330 329 328
307 306 304 305 309 313 314 314 317 319 322 323 326 326 324 320 319 321 320 316 314 311 309 307 307 308 308 310 321 326 329 330 334 335 335 336 335 332 330 329 329 328 327 326
303 306 306 308 312 314 315 315 316 318 318 325 326 326 313 317 322 321 316 313 310 307 305 304 303 304 304 305 307 314 326 327 331 333 332 331 329 328 328 328 327 325 324 323
306 308 308 308 308 312 314 314 316 317 319 319 322 321 314 317 318 315 314 312 308 305 302 301 300 300 300 300 301 304 310 326 328 328 329 328 327 327 327 326 324 322 322 321
305 307 305 307 313 313 315 314 315 318 317 321 323 320 315 316 311 310 309 307 304 302 300 298 297 298 297 298 298 300 302 307 326 327 327 326 326 326 326 325 323 320 321 320
305 307 305 306 309 310 313 314 316 318 319 322 321 317 313 310 306 304 303 301 300 298 297 296 295 295 294 295 296 297 298 301 311 325 325 325 325 325 325 324 322 321 321 320
306 309 308 307 307 309 310 313 318 320 317 320 314 309 309 303 302 299 299 298 297 296 294 294 293 293 292 293 293 295 296 298 304 322 324 325 324 324 323 323 322 322 320 320
307 310 313 315 314 315 317 317 314 312 312 312 311 307 304 300 297 296 295 294 294 293 292 291 291 291 291 291 292 293 294 295 298 304 318 323 325 324 323 323 323 322 321 319
310 311 314 316 314 314 317 313 309 306 305 307 307 302 302 297 295 293 292 292 291 291 290 289 289 290 289 290 290 291 292 292 293 295 298 308 317 319 319 319 319 315 313 315
310 312 313 312 311 315 310 307 306 304 301 301 300 299 299 294 292 292 291 290 289 289 288 288 287 287 288 288 289 290 290 291 290 291 292 295 303 303 304 306 306 305 305 303
309 311 313 313 316 312 307 303 303 309 302 299 298 296 298 295 297 291 291 289 288 288 287 286 286 286 287 287 287 287 288 289 289 288 290 290 291 294 295 293 292 293 294 294
310 310 311 311 313 312 304 299 301 302 300 297 295 294 293 295 293 290 289 289 287 286 286 285 284 285 285 287 287 286 285 285 287 287 287 288 290 289 289 289 289 288 288 287
307 308 308 310 310 306 298 298 300 298 301 296 294 292 291 290 290 289 288 287 286 285 284 284 284 284 284 286 286 286 285 284 283 284 286 287 287 288 289 289 288 288 287 286
305 307 305 306 305 304 295 297 298 299 296 294 292 291 288 287 287 287 286 286 285 285 284 283 283 283 284 284 286 286 286 284 283 282 282 283 284 285 286 287 287 287 287 286
304 306 302 302 300 296 294 293 293 292 292 292 292 289 287 286 285 286 286 285 285 284 284 283 282 282 283 283 284 285 285 284 283 282 281 281 282 282 282 283 285 285 285 284
299 300 300 300 295 294 294 292 291 290 290 290 289 288 287 286 286 285 285 285 284 283 283 282 282 281 282 282 283 283 285 284 284 283 281 280 280 280 281 281 281 282 282 282
297 298 300 298 294 292 291 291 290 290 289 288 288 287 287 286 285 284 283 283 282 282 282 281 281 280 280 281 281 282 283 284 284 284 283 281 280 279 279 279 280 280 281 281
296 295 297 295 294 291 290 289 289 288 288 288 287 286 286 285 284 283 283 282 281 280 280 279 279 279 279 279 280 281 282 282 282 283 283 283 282 280 279 278 278 279 279 280

GFSCGP_925_thetae_102.txt.gz
Theta_e
301 299 301 306 302 304 303 302 302 303 304 306 305 306 307 309 304 305 307 306 306 307 309 311 313 315 316 316 316 317 331 338 343 343 342 340 340 342 342 342 341 340 340 339
301 301 301 304 307 305 304 304 304 304 305 305 305 305 307 305 306 305 305 304 304 305 306 306 309 311 314 316 316 316 328 335 342 342 342 340 340 340 340 341 341 339 339 338
305 305 306 306 305 305 306 307 307 307 307 306 305 306 307 307 306 307 307 307 306 305 306 307 307 308 310 312 315 316 324 337 340 342 341 340 339 338 338 338 338 338 338 336
303 304 305 303 303 304 305 305 306 306 305 308 307 308 308 308 308 309 308 308 308 308 309 312 319 320 322 320 315 316 327 338 341 342 340 339 338 337 337 337 336 335 335 333
300 299 298 300 300 301 302 306 306 306 306 312 309 309 309 308 309 308 308 317 318 319 321 321 319 320 321 322 323 323 332 340 341 341 339 338 337 336 336 335 335 336 335 335
299 299 298 300 304 306 306 307 307 309 313 313 311 312 310 309 310 309 323 323 320 317 316 316 316 316 316 321 326 330 341 341 340 339 338 337 336 335 334 334 333 333 334 334
303 304 303 304 305 306 307 307 310 311 314 313 310 311 310 313 313 312 321 319 317 314 312 311 312 312 312 313 322 322 341 340 339 338 337 337 336 334 334 332 332 331 331 331
306 304 304 303 303 303 303 311 311 312 314 315 311 312 315 320 321 321 319 315 311 309 308 308 309 309 309 309 311 323 335 340 338 337 336 335 335 333 333 332 332 331 330 330
306 305 303 303 303 309 311 312 310 312 312 315 319 316 319 319 319 316 314 311 308 305 304 304 304 304 305 305 306 310 323 331 336 335 334 334 334 334 332 332 332 330 330 329
305 304 303 303 304 307 312 312 311 313 314 316 320 323 325 316 319 315 309 307 304 301 300 300 301 300 301 301 303 305 309 316 330 334 335 335 335 334 333 332 331 331 330 329
303 304 303 304 308 311 314 315 314 314 317 316 322 321 310 311 311 310 307 303 301 299 298 297 297 297 298 298 299 301 304 307 314 331 333 334 334 334 333 331 330 330 329 328
305 304 305 305 304 305 312 314 314 313 314 318 319 318 309 306 305 304 302 301 299 297 295 294 295 295 295 295 296 298 300 302 306 320 327 330 330 329 328 328 327 326 324 323
304 303 305 304 311 311 314 315 315 316 316 320 322 318 307 304 301 300 299 298 296 295 294 292 292 293 293 293 294 295 297 299 303 314 326 327 327 327 326 324 323 323 322 321
305 304 305 306 306 307 309 311 313 316 318 316 312 311 305 301 299 297 296 296 295 294 292 291 291 292 291 292 292 293 295 296 299 305 325 326 326 326 325 324 323 322 321 321
305 309 308 306 306 306 306 313 314 316 315 314 309 307 302 298 296 295 294 293 293 292 291 291 290 290 290 291 291 292 293 294 296 299 307 315 325 325 325 323 322 321 321 320
304 308 309 309 309 308 311 312 308 308 309 309 306 304 298 295 293 292 292 291 291 290 290 289 289 289 289 289 289 291 291 292 294 294 295 301 313 323 323 323 322 321 320 319
304 308 312 315 313 314 310 307 304 303 302 302 304 302 296 293 292 290 290 289 289 288 288 287 287 288 288 288 288 288 289 290 291 292 292 294 297 302 310 315 317 313 312 313
306 309 313 314 313 309 306 303 301 300 299 298 298 299 294 291 290 290 289 287 287 286 286 286 286 286 287 287 286 286 286 287 289 289 290 290 292 293 295 297 301 301 302 300
307 309 312 315 312 309 305 300 299 304 298 296 295 295 295 293 291 288 287 287 286 285 285 284 284 285 285 286 286 285 284 285 285 287 288 289 289 290 290 289 290 293 293 293
307 310 311 313 310 309 301 296 297 300 297 295 293 291 290 295 290 288 286 286 285 284 284 283 283 284 284 285 285 284 283 283 283 283 284 286 288 288 288 288 287 287 289 288
305 307 306 308 307 304 295 296 299 299 297 294 291 289 288 288 287 286 286 285 284 284 283 282 282 283 283 284 285 284 283 282 282 282 283 283 284 286 286 287 286 286 286 286
304 305 303 303 303 303 293 294 298 296 294 292 289 287 286 285 285 284 284 284 283 283 283 282 281 282 281 282 283 284 284 282 282 281 281 282 282 283 283 285 285 285 285 285
302 302 300 299 297 294 292 291 291 292 291 291 288 286 285 283 284 283 284 284 283 282 281 281 280 280 281 281 282 283 284 284 282 281 280 280 281 281 282 282 282 283 283 284
297 298 297 296 294 293 292 290 289 289 289 288 287 286 285 284 283 282 282 282 282 281 280 280 280 279 279 280 281 282 283 283 283 282 281 280 279 280 281 281 281 282 282 282
295 295 297 295 293 291 290 290 289 288 287 287 286 285 284 284 283 282 282 281 280 279 278 278 278 278 278 279 280 281 282 282 282 282 282 280 279 279 279 280 280 281 281 282
295 294 295 294 292 290 290 289 288 288 288 286 285 285 285 284 283 282 281 279 278 277 277 277 276 277 277 278 279 280 281 281 281 281 281 281 281 280 279 278 279 280 280 281

GFSCGP_925_thetae_105.txt.gz
Theta_e
302 299 300 302 304 306 306 305 305 306 305 303 304 303 304 304 304 304 305 305 305 305 306 307 309 310 311 311 312 313 323 338 342 342 341 339 339 339 340 339 337 336 337 339
301 301 300 301 303 305 305 305 305 304 304 305 305 306 306 305 304 304 305 305 304 303 303 305 307 308 309 309 311 313 319 332 341 341 342 340 339 339 339 339 339 338 338 338
304 305 304 302 303 303 304 305 305 305 304 304 304 305 305 306 305 305 306 304 304 309 308 304 304 305 309 310 310 310 317 330 338 340 341 340 339 338 337 337 338 339 339 339
299 301 300 299 299 300 299 301 302 302 304 305 305 306 306 307 307 308 307 313 317 315 315 314 317 318 318 320 323 319 312 329 336 340 340 338 338 337 338 337 339 338 339 339
299 298 298 298 298 298 299 300 303 306 306 305 306 307 307 307 307 308 312 318 315 314 313 312 313 313 313 315 320 324 315 325 335 340 339 338 337 337 336 336 337 337 337 337
298 299 299 298 301 302 304 304 304 304 306 308 305 307 308 307 308 309 317 314 311 309 308 309 309 310 311 311 313 321 328 327 336 339 339 337 337 336 335 335 335 335 334 336
301 302 302 303 304 303 304 306 306 305 307 307 305 307 307 318 319 318 316 311 308 305 304 306 306 306 307 306 308 313 328 338 338 340 339 338 337 335 335 335 335 334 333 333
304 302 303 302 302 302 301 304 307 307 309 309 309 313 318 317 314 311 309 306 304 303 301 302 303 303 302 303 304 307 311 318 338 338 337 337 336 335 334 334 333 332 332 331
304 304 301 300 301 302 307 302 303 308 308 310 308 309 317 309 309 306 304 303 302 299 297 297 298 299 300 300 300 303 306 310 321 337 336 334 335 334 334 333 332 332 332 332
302 302 301 300 302 301 306 305 308 310 313 312 311 315 313 308 307 306 303 302 300 297 295 294 295 296 296 298 298 300 303 305 309 327 333 332 333 333 332 332 332 332 331 330
302 303 302 302 302 302 310 312 311 311 312 312 313 314 308 305 304 303 301 299 297 295 293 293 293 294 294 295 296 297 300 302 305 312 326 331 332 332 332 331 330 330 330 329
302 301 304 302 301 302 303 306 314 315 314 314 316 310 306 302 301 299 298 297 295 293 292 292 292 292 292 293 294 295 297 300 302 306 318 328 331 332 331 330 329 329 329 328
303 302 301 302 309 308 311 311 311 316 316 315 315 310 303 300 297 296 295 294 293 292 291 291 290 291 291 291 292 293 294 296 299 304 314 325 327 327 327 328 328 327 325 324
302 301 302 302 303 305 308 308 309 313 317 312 310 305 301 297 295 294 293 292 292 291 290 289 289 290 290 290 290 291 292 293 296 299 301 311 320 326 326 325 324 323 321 321
305 306 306 304 304 305 308 310 311 312 314 310 306 302 298 295 293 292 291 290 290 289 288 288 288 289 289 289 288 289 290 292 293 295 296 299 305 324 324 322 321 321 321 320
305 303 306 306 306 309 305 303 303 306 307 307 302 298 295 292 291 289 289 288 288 288 287 287 287 287 288 288 287 287 287 289 290 292 293 294 297 304 311 319 320 320 320 319
304 304 308 312 309 306 300 302 301 300 299 301 303 297 293 291 289 289 287 287 287 287 286 286 286 286 287 287 286 285 286 286 287 289 290 291 292 292 294 298 304 305 309 312
304 305 307 313 311 306 304 301 299 298 297 296 297 294 291 289 288 287 287 286 285 285 285 285 285 285 286 285 285 284 284 284 285 285 286 288 290 290 289 290 290 292 294 296
305 306 312 313 308 306 306 298 298 301 297 294 294 294 293 290 292 287 286 285 285 284 284 283 283 284 284 285 284 283 282 283 283 284 284 284 287 288 289 287 287 288 288 289
305 306 311 310 310 308 300 294 295 298 295 293 291 290 290 293 291 286 285 284 284 283 283 282 282 282 283 284 284 283 282 281 281 282 283 283 284 285 286 287 287 286 286 286
306 306 305 307 306 302 293 293 298 299 297 291 289 287 286 285 285 285 284 283 282 282 281 280 281 281 281 282 283 284 283 281 280 280 281 282 283 283 283 284 285 286 286 286
302 303 301 303 303 304 291 293 297 294 292 289 287 285 283 283 283 284 283 282 281 280 280 279 279 279 280 281 282 282 283 282 281 280 280 281 282 282 283 283 283 283 284 285
301 299 298 297 295 292 291 291 291 291 290 288 286 285 284 282 282 282 282 281 280 279 278 279 278 278 278 279 280 281 281 282 281 280 280 280 280 281 282 282 283 283 283 284
296 297 295 294 292 292 290 289 288 288 287 287 286 285 284 282 281 281 280 279 278 277 277 277 278 277 277 278 279 279 281 282 281 281 280 280 279 280 280 281 281 282 283 283
294 295 295 293 291 290 289 288 287 287 287 286 284 284 283 282 281 279 276 277 277 277 276 276 276 277 277 278 279 280 280 281 281 280 280 281 280 279 279 279 279 280 281 282
295 294 292 293 290 290 288 288 287 286 285 285 284 284 283 282 280 279 278 277 276 276 275 276 276 276 276 277 278 279 280 280 280 280 280 279 279 279 279 279 279 278 278 279

GFSCGP_925_thetae_108.txt.gz
Theta_e
301 299 302 303 303 304 302 304 305 305 304 304 303 303 304 304 302 302 303 303 303 303 304 304 304 305 306 307 309 310 311 313 328 339 339 338 337 336 335 334 333 335 333 339
301 300 300 299 301 303 302 303 303 303 303 303 302 302 302 303 303 303 304 304 303 303 311 314 313 308 306 305 305 308 309 311 322 335 339 338 338 338 337 336 336 335 334 334
303 304 302 301 302 302 302 303 303 303 301 300 300 301 301 302 303 304 305 305 310 315 313 312 312 312 313 314 317 317 309 310 317 334 339 339 339 338 336 336 336 336 335 334
299 300 300 299 298 299 297 299 300 299 299 299 303 302 301 302 304 304 305 305 313 312 310 309 309 310 311 310 311 315 321 314 318 333 338 338 337 337 336 336 337 338 336 336
300 299 299 299 299 298 298 298 298 299 303 303 302 301 300 302 303 308 314 312 308 306 307 307 306 306 306 307 307 309 316 321 318 334 337 338 338 336 335 336 335 336 338 336
299 299 299 298 299 300 301 302 303 302 302 303 301 299 301 304 314 313 312 309 307 304 303 302 302 303 303 303 304 305 312 325 318 333 337 338 337 336 335 336 335 334 335 335
301 301 301 301 302 301 301 301 303 302 308 304 301 302 305 312 309 307 306 304 302 300 300 299 298 299 300 301 301 303 307 315 325 334 337 337 336 335 335 335 335 334 334 334
302 301 302 300 301 301 300 301 304 305 306 305 303 306 316 309 305 304 303 302 299 297 297 296 296 297 297 299 300 301 303 308 315 336 336 337 336 335 334 334 334 333 332 333
300 303 299 299 299 300 302 302 301 302 302 304 305 307 310 304 303 303 302 300 297 295 294 294 294 294 295 296 298 300 301 304 308 321 336 337 335 335 334 333 334 333 332 332
302 302 299 299 300 300 302 304 305 307 307 310 308 311 308 304 303 301 299 298 295 294 293 292 292 292 292 293 295 298 299 301 304 310 324 335 335 334 334 333 334 332 332 332
301 302 300 301 301 299 305 306 305 305 309 310 308 307 305 302 300 298 297 296 294 293 291 291 291 291 291 292 293 295 297 299 301 305 316 330 333 333 331 332 332 331 330 331
300 300 303 301 300 301 301 303 305 306 314 312 311 307 302 299 297 296 294 293 292 292 290 290 290 290 290 290 291 292 294 296 298 302 310 326 330 330 330 330 331 330 329 330
302 302 300 301 306 308 308 309 311 309 309 316 307 304 299 297 294 293 292 291 291 290 289 288 288 289 289 289 289 290 291 293 296 298 302 310 316 327 327 326 327 328 328 328
301 300 300 300 300 301 304 306 308 309 310 309 305 304 297 295 292 291 290 290 290 289 288 288 287 288 288 288 288 288 288 290 293 295 297 299 304 316 323 324 325 326 326 325
300 303 302 303 303 303 306 305 303 312 312 310 304 299 296 293 291 290 289 288 288 288 287 287 287 287 287 287 286 286 287 288 290 293 293 294 297 300 317 319 321 320 320 320
306 303 304 303 304 307 303 302 300 300 304 301 299 296 293 291 290 289 287 287 287 287 286 286 286 286 287 285 285 285 285 286 287 289 291 291 293 292 297 303 304 311 310 311
303 304 305 308 305 304 303 301 300 298 297 300 302 296 292 290 288 287 286 286 286 286 285 285 284 285 285 285 284 284 284 285 286 286 288 289 292 291 290 291 293 295 296 298
304 304 305 308 307 306 301 300 297 296 295 295 295 293 291 288 287 286 286 285 284 284 283 283 283 283 284 285 283 283 282 283 284 284 285 286 288 289 288 289 288 288 289 289
303 305 307 312 307 302 303 297 297 300 295 293 293 293 292 289 291 286 285 284 283 282 282 281 282 282 282 283 284 282 282 281 282 282 283 284 285 285 286 287 287 288 287 286
306 305 308 310 308 306 298 294 294 296 295 291 290 290 289 292 291 286 284 283 282 281 281 279 280 280 281 282 282 283 281 281 280 281 282 283 284 284 284 284 285 286 286 286
305 306 306 307 305 300 293 292 295 300 295 290 288 286 286 285 283 283 283 281 280 280 279 278 278 279 279 280 281 281 282 280 279 279 280 281 282 283 284 284 285 285 285 285
301 302 301 302 304 303 291 294 298 293 289 287 285 283 283 281 281 281 281 280 278 277 277 277 277 278 278 279 280 281 280 281 280 280 280 280 280 281 282 283 284 284 285 285
301 297 297 296 295 291 290 291 290 290 288 286 285 283 280 278 279 279 279 278 277 276 276 277 277 277 277 277 278 279 279 280 281 280 280 279 280 279 280 281 282 283 283 283
297 295 294 293 292 290 289 288 287 287 286 285 284 282 281 280 278 277 275 276 276 276 276 276 276 276 276 278 278 278 279 280 280 279 279 279 279 278 279 279 280 281 282 281
293 294 294 292 291 290 288 286 287 286 284 283 283 282 281 279 278 276 274 275 275 276 276 275 275 275 276 277 278 278 278 279 279 278 278 278 278 278 278 278 278 279 279 280
295 294 290 288 288 288 288 284 285 284 284 283 283 282 281 280 279 278 277 276 275 274 275 274 274 274 275 276 276 277 277 278 278 277 276 275 275 276 276 277 277 277 277 277

GFSCGP_925_thetae_114.txt.gz
Theta_e
308 308 309 309 309 308 307 307 307 307 308 307 308 308 307 307 307 307 307 308 308 311 314 314 314 314 314 314 315 317 318 319 313 315 327 330 336 336 338 339 339 339 340 340
308 308 309 308 307 306 307 307 307 307 307 306 305 305 306 307 306 306 306 311 314 313 312 311 310 310 311 311 313 314 314 315 317 316 315 327 331 334 334 336 339 340 339 339
307 307 306 306 306 306 307 307 307 306 304 304 305 305 307 306 306 309 313 312 311 310 309 308 307 307 307 307 308 309 310 312 313 316 319 316 328 331 333 336 339 340 338 338
306 306 305 305 305 305 306 305 303 303 304 305 305 305 307 308 307 311 311 310 309 307 306 305 304 303 303 303 304 305 307 308 310 313 317 319 321 330 333 334 336 336 338 338
305 304 304 305 305 304 304 303 304 304 304 305 305 306 308 306 306 311 309 308 307 305 304 303 302 300 300 301 301 301 303 304 307 311 314 319 319 327 331 334 334 335 336 337
305 303 303 304 303 303 303 303 304 305 305 306 306 305 307 309 311 308 306 304 304 303 302 301 299 298 299 299 298 298 299 301 303 306 310 316 323 324 330 331 335 335 336 335
304 304 303 303 302 304 304 304 305 306 309 307 305 305 305 311 308 305 304 302 302 300 300 298 298 297 296 295 295 295 295 297 299 303 306 312 319 324 331 331 335 336 336 334
305 304 303 303 303 304 305 304 305 302 304 305 305 305 308 308 306 304 302 301 300 298 297 296 295 294 293 293 294 294 293 294 296 299 304 308 316 325 330 332 333 335 336 334
303 301 302 303 302 302 303 303 303 303 304 305 305 305 308 306 305 303 301 300 298 296 295 294 293 292 292 290 291 291 291 292 294 298 302 307 316 328 332 333 334 335 336 334
301 301 300 302 302 302 301 303 306 305 308 308 307 307 315 306 303 300 299 297 295 294 293 292 291 290 290 289 288 289 289 291 293 296 302 305 313 327 333 334 335 335 336 335
302 301 300 301 301 302 303 303 304 306 307 310 312 315 304 301 298 297 298 296 295 293 292 291 290 288 288 288 287 287 288 290 292 296 301 305 311 331 334 333 333 335 336 334
301 303 303 303 303 303 302 303 305 308 310 308 311 312 299 297 296 295 295 295 294 292 291 290 288 287 287 287 286 286 287 289 291 294 299 301 304 322 332 332 332 334 334 335
304 304 304 305 308 307 309 305 304 307 309 310 312 311 299 297 295 294 293 293 293 292 291 289 288 287 286 286 286 285 286 288 290 292 296 298 298 303 309 323 331 332 332 331
304 303 303 305 302 302 304 306 307 308 310 310 312 306 299 296 294 292 292 292 292 291 290 289 288 286 286 286 285 284 285 286 288 291 292 295 294 296 298 302 310 315 320 322
303 303 304 304 303 303 305 306 306 306 305 308 308 303 297 294 293 292 291 291 290 290 288 288 287 287 286 286 285 284 284 285 287 288 290 291 292 292 292 293 296 298 303 303
302 303 305 305 306 306 307 303 305 303 301 302 301 298 295 293 292 292 290 289 289 288 287 287 286 286 286 286 285 285 284 284 285 286 287 288 290 290 291 290 291 291 292 293
307 305 307 310 305 306 307 303 302 301 300 303 307 298 295 293 291 289 289 289 288 287 286 285 286 285 285 285 286 285 285 284 284 285 285 286 287 289 288 289 289 288 288 289
306 306 307 308 308 312 303 300 300 299 298 299 298 296 294 291 289 288 287 287 286 285 285 284 284 284 283 285 285 286 286 285 284 284 285 285 286 286 287 287 287 287 286 286
304 306 309 310 309 305 303 301 301 303 299 296 297 296 294 292 293 289 286 285 284 283 282 282 282 282 282 283 284 285 284 284 283 283 283 284 285 286 286 286 286 286 285 285
306 305 308 308 309 310 304 298 297 299 304 295 295 296 295 294 299 291 285 284 283 281 281 280 280 280 280 281 283 282 282 282 282 282 282 283 284 285 285 285 286 286 286 285
309 309 308 309 312 305 297 296 297 306 303 294 295 295 296 294 292 286 284 282 281 281 280 279 279 278 278 279 280 281 280 280 280 280 281 282 282 283 284 284 284 285 285 285
307 308 309 308 310 308 294 297 302 296 293 292 292 290 289 287 285 284 283 282 281 280 280 278 278 278 278 278 279 279 279 278 279 280 280 280 281 281 282 283 283 283 284 284
306 302 305 301 301 293 293 295 294 293 292 291 290 288 286 286 285 284 283 282 281 280 280 279 278 278 277 278 278 279 278 278 278 279 279 280 280 280 280 280 281 281 282 282
299 297 298 299 294 293 292 292 292 292 291 289 288 286 286 284 283 283 283 282 281 280 279 279 279 279 278 278 278 278 278 279 279 278 279 279 279 280 278 279 279 278 279 280
300 298 297 294 293 292 291 290 290 289 288 287 286 285 284 283 282 282 282 281 280 279 279 279 279 279 278 278 278 278 278 278 279 279 279 279 279 279 279 277 276 277 275 276
298 298 299 303 295 295 292 289 289 288 287 286 286 284 283 282 282 281 281 280 280 279 279 279 278 278 278 278 277 278 278 278 278 279 279 278 278 278 278 278 278 275 274 274

GFSCGP_925_thetae_117.txt.gz
Theta_e
310 310 311 312 312 312 312 312 311 310 310 310 310 310 310 310 310 310 310 310 310 312 316 314 312 312 313 314 314 314 316 317 319 321 317 320 334 336 339 341 341 339 340 343
311 312 312 311 311 311 311 309 309 310 310 310 310 309 309 309 310 310 310 310 315 314 313 311 310 310 310 310 311 312 312 313 315 317 319 318 320 329 335 337 339 341 341 342
311 312 310 308 309 310 309 308 309 309 309 308 308 308 310 311 309 309 313 313 312 312 311 310 308 307 307 307 308 308 309 310 312 313 315 317 320 319 330 336 338 340 342 343
308 309 308 309 308 308 308 308 308 307 307 308 310 310 311 311 311 311 313 312 312 310 308 308 307 306 305 304 305 306 306 306 308 310 312 316 318 321 324 333 336 336 341 342
308 307 307 307 307 308 308 307 306 307 307 307 308 308 310 311 310 313 312 310 308 308 306 305 304 302 302 302 302 302 303 303 305 307 309 312 316 319 322 322 335 336 338 340
308 307 306 307 307 306 306 306 306 306 306 308 309 309 310 314 314 311 309 307 306 305 304 302 300 299 299 299 299 299 300 301 302 304 305 307 310 315 319 324 327 334 336 338
308 308 307 305 306 307 306 307 309 310 310 310 310 310 309 313 310 307 307 306 304 303 301 300 299 297 296 295 296 295 296 297 298 300 302 303 306 310 316 320 325 332 335 337
308 309 308 306 306 306 306 307 309 309 309 309 307 308 312 310 308 307 305 303 301 300 298 297 295 294 293 292 293 292 292 294 295 296 297 299 302 305 312 318 323 327 335 337
306 306 305 305 305 305 304 305 305 306 306 307 306 307 311 309 308 305 303 301 299 298 296 295 293 291 290 291 290 290 290 291 292 293 294 296 299 304 308 317 323 328 332 336
304 304 304 303 304 304 304 304 305 305 307 308 307 308 314 306 304 302 301 300 298 296 294 293 291 290 289 289 289 289 288 289 290 291 293 296 299 304 308 317 326 330 332 336
303 304 304 302 303 303 304 304 303 305 309 312 313 318 305 301 300 300 300 299 298 295 293 293 291 288 288 288 287 287 287 288 289 290 293 296 301 304 309 320 328 333 332 332
303 304 305 303 303 304 304 305 305 308 307 310 310 313 301 299 299 298 297 297 296 294 293 293 290 289 288 287 287 286 286 286 288 290 292 298 298 302 309 320 329 332 332 332
303 303 304 304 305 307 309 307 305 307 310 311 313 313 300 299 298 296 295 296 295 293 292 291 290 289 289 288 287 286 286 286 287 289 291 295 295 297 298 300 305 320 328 329
303 304 306 307 307 306 308 307 307 308 309 309 311 311 301 299 297 295 294 294 293 292 291 290 289 289 289 288 288 287 286 285 286 288 290 292 293 293 293 294 296 298 301 304
302 304 306 304 304 304 305 307 308 310 309 311 311 307 299 297 296 294 293 292 292 291 289 289 289 289 288 288 289 288 286 285 286 287 288 289 290 291 290 290 290 291 292 293
304 304 306 305 306 307 310 309 308 308 307 304 305 302 297 296 294 293 292 291 290 289 288 288 288 287 287 287 289 289 287 286 286 287 287 287 288 288 289 288 288 288 288 288
305 307 307 310 307 307 310 308 306 306 303 305 306 300 297 296 293 291 291 290 288 288 287 286 287 286 286 287 287 288 288 286 286 286 286 287 287 287 287 287 287 286 286 286
309 308 309 310 308 312 305 303 303 304 303 302 300 299 297 294 292 290 289 288 287 286 285 285 284 284 284 286 285 287 287 286 285 285 286 286 286 286 287 287 287 286 286 285
307 308 311 311 311 308 304 302 303 303 302 302 300 297 296 294 293 290 288 287 285 284 283 282 282 283 282 283 283 284 284 284 284 284 285 285 286 286 286 286 286 286 286 286
306 306 308 311 310 312 307 303 302 302 306 299 300 298 297 296 302 293 287 286 284 282 281 281 280 280 280 281 281 281 281 282 282 283 283 284 284 284 285 285 286 286 287 287
309 309 309 309 312 308 302 300 300 308 305 299 299 299 298 297 292 288 286 284 283 282 281 280 279 279 280 280 280 280 280 280 281 281 282 282 282 282 283 283 284 285 285 285
310 311 312 309 313 313 298 300 304 300 298 298 297 295 292 289 287 286 285 284 283 282 281 280 280 279 279 280 280 280 280 280 281 281 281 282 280 281 281 280 281 282 282 283
308 307 309 305 304 296 297 299 298 297 297 296 294 291 290 288 287 286 286 285 283 282 282 281 280 280 280 280 280 280 280 281 280 281 281 281 282 279 279 280 278 279 280 281
302 301 304 301 297 295 295 295 296 296 294 293 292 290 289 287 286 285 285 284 283 282 282 282 282 281 280 280 280 280 280 281 281 281 281 281 281 281 279 278 278 276 277 278
304 301 301 298 295 294 294 294 293 292 291 290 290 289 288 287 286 285 285 284 283 282 282 281 281 281 280 280 280 279 280 280 281 281 281 281 281 281 281 278 277 276 275 275
302 304 303 306 297 298 295 292 291 291 290 289 289 288 287 286 286 285 284 283 283 282 282 281 281 280 280 279 279 279 279 280 280 281 281 280 281 281 280 280 280 278 276 275

GFSCGP_925_thetae_120.txt.gz
Theta_e
310 310 310 311 313 314 314 314 313 314 314 312 312 312 311 312 312 312 312 311 312 312 315 312 311 310 310 310 310 311 311 312 313 315 318 320 321 321 339 341 341 340 342 343
310 312 311 313 314 313 312 312 313 312 311 311 311 311 311 311 311 311 311 313 315 314 312 311 310 309 308 308 307 307 309 309 310 311 313 315 316 318 321 335 340 341 341 342
313 314 314 313 311 310 311 312 312 310 310 310 310 310 310 311 313 312 313 314 313 312 310 309 307 306 305 305 304 305 306 306 307 307 309 312 314 317 319 321 326 340 340 341
311 311 311 311 311 310 310 310 310 309 309 309 309 309 309 310 311 312 314 313 310 309 308 306 305 303 302 302 301 301 301 302 303 305 306 309 312 315 317 319 322 334 340 340
310 309 309 309 308 309 309 309 309 308 308 308 308 309 310 311 311 314 312 309 308 307 305 304 302 300 299 298 298 297 298 298 299 301 303 305 307 310 313 316 319 322 327 338
308 309 309 308 308 308 308 307 307 307 308 309 308 309 310 314 314 311 308 307 305 304 302 301 299 297 296 295 294 294 294 295 295 296 298 301 302 305 307 310 315 319 324 329
309 309 309 309 307 307 307 307 309 310 312 313 311 311 315 312 309 307 306 305 302 301 299 298 296 294 293 292 292 292 292 292 292 293 295 297 298 300 303 305 310 315 319 325
309 310 310 309 308 307 307 307 309 309 312 311 309 308 312 310 307 305 304 303 300 298 297 295 294 292 291 290 290 290 290 290 290 291 292 294 295 297 299 302 306 311 317 322
309 309 307 306 306 306 306 307 306 308 307 308 307 307 312 308 305 304 303 301 299 297 295 294 292 291 290 289 289 289 289 288 288 289 290 292 293 295 297 300 303 307 312 319
307 307 306 307 306 305 305 305 307 306 307 308 308 309 312 306 303 302 301 300 298 296 294 293 292 290 290 289 288 288 288 287 287 288 290 291 294 296 298 300 303 306 309 317
304 304 305 306 306 305 305 306 305 305 305 308 311 313 305 302 301 300 299 298 297 295 294 293 291 290 290 289 289 288 287 287 287 288 290 292 296 298 300 303 307 307 310 315
305 305 306 306 306 305 304 304 305 309 307 306 308 313 302 300 300 298 297 297 295 294 293 292 290 289 289 289 289 289 287 287 287 288 290 292 293 295 295 298 302 311 314 318
304 304 305 303 305 304 303 305 306 307 309 309 311 311 301 300 298 297 295 295 294 292 291 290 290 289 289 289 289 288 287 287 287 288 289 290 291 292 292 293 295 296 300 302
305 304 306 305 307 306 309 311 309 309 310 309 310 308 302 299 297 296 294 293 292 291 289 289 289 288 288 288 289 289 287 287 287 287 288 288 289 289 290 291 290 291 293 293
303 303 305 304 303 302 305 306 306 310 309 311 311 309 301 298 296 295 293 292 291 290 288 288 288 287 287 287 288 289 287 286 287 287 287 287 288 288 288 288 289 289 289 291
303 303 306 305 304 305 306 307 306 309 310 310 307 306 298 296 295 294 292 291 289 289 287 287 286 286 286 286 287 288 287 286 286 286 287 287 287 287 287 287 287 287 287 288
305 308 305 306 308 309 310 311 311 311 308 307 307 303 297 296 293 291 291 289 288 287 286 285 285 284 284 285 285 286 286 285 285 286 285 286 286 287 287 287 287 286 286 286
309 307 305 309 310 311 307 305 305 306 305 305 300 299 298 294 291 290 289 288 286 285 284 283 283 282 282 283 282 283 284 284 284 284 285 285 285 285 286 287 287 286 286 285
308 308 309 311 310 310 305 303 305 304 305 303 301 298 295 293 291 289 288 286 284 283 282 281 281 281 281 282 281 281 282 282 283 283 283 283 283 284 284 285 286 286 286 285
307 307 309 309 313 313 308 304 304 304 306 302 300 298 296 294 298 291 287 285 283 282 281 280 280 280 280 281 281 281 281 281 282 282 281 281 282 281 282 283 283 284 285 285
307 308 309 308 309 309 304 303 303 307 307 302 300 299 298 297 293 288 286 285 283 282 281 280 280 280 280 280 280 281 281 281 282 281 282 280 280 281 279 280 280 281 282 282
308 308 309 308 310 312 301 301 304 302 302 301 298 296 291 289 288 286 285 284 283 283 282 281 280 280 280 280 280 280 281 281 282 282 281 282 280 279 278 277 277 278 279 280
310 309 309 304 305 299 299 301 300 300 300 297 295 291 289 287 286 286 286 285 283 283 283 282 281 280 280 280 280 280 280 282 281 282 282 282 282 280 279 277 276 276 277 277
305 303 306 303 299 297 298 298 298 297 296 295 292 291 289 288 287 286 286 285 284 283 283 282 282 281 280 281 280 280 281 281 282 281 282 282 282 281 279 278 276 276 275 275
306 303 304 300 297 296 296 297 296 294 293 292 291 290 289 288 287 286 285 284 284 283 282 282 281 281 280 280 280 279 280 281 282 282 281 282 282 281 280 278 277 276 276 276
304 306 303 306 299 299 297 295 293 292 292 291 290 289 288 287 286 286 285 284 284 283 282 282 281 280 280 279 279 279 279 279 280 281 281 280 281 281 281 280 280 279 278 277

GFSCGP_925_thetae_123.txt.gz
Theta_e
308 307 306 306 306 308 309 311 310 309 311 310 309 308 307 307 307 306 307 307 310 309 308 306 305 303 303 303 302 303 303 304 305 306 307 307 309 311 313 315 318 336 336 336
307 308 308 309 310 311 312 310 309 310 311 310 307 306 306 307 307 307 308 309 308 307 305 304 303 301 300 300 299 299 299 300 300 302 303 305 306 308 311 313 316 319 331 338
308 309 311 311 311 311 310 309 309 309 308 306 305 306 306 307 307 312 309 307 306 304 303 301 300 298 298 297 296 296 296 296 297 298 299 301 304 305 308 310 313 316 319 327
309 310 311 310 309 309 308 308 309 309 307 306 306 306 306 307 309 310 307 305 303 301 300 299 297 296 295 294 293 293 293 293 294 295 295 296 298 303 305 306 308 310 313 318
309 309 308 308 308 308 308 308 307 307 304 304 305 304 306 306 311 308 305 303 301 299 298 297 295 293 293 292 291 291 291 291 291 291 292 293 294 298 301 302 304 306 308 313
307 305 305 306 308 307 307 306 306 305 304 305 306 305 307 310 309 306 304 301 299 297 295 294 293 292 291 290 289 289 289 290 289 290 290 291 292 294 297 299 300 302 305 308
306 307 306 307 307 307 306 305 306 308 308 308 308 308 315 308 305 304 303 301 298 296 294 293 292 291 290 289 289 289 289 289 289 288 288 289 291 292 294 296 298 300 302 305
307 307 308 308 307 306 306 306 308 310 308 306 306 308 311 305 303 303 301 299 297 295 293 292 291 290 289 289 289 289 289 288 288 288 288 288 290 291 292 294 296 298 300 303
307 308 306 306 306 305 306 304 305 306 304 306 305 308 307 304 302 302 300 298 295 293 292 291 290 289 289 289 289 289 288 288 287 287 288 289 290 292 293 294 295 297 299 301
307 306 307 306 306 305 304 304 304 305 307 307 305 308 313 305 302 301 300 298 295 293 291 290 289 288 288 289 289 289 288 287 287 288 288 290 292 294 295 297 298 299 300 302
304 304 304 305 305 305 305 304 305 304 304 305 304 301 305 301 301 300 298 297 294 292 290 288 288 288 288 288 288 289 288 287 287 287 288 290 291 293 294 296 297 299 302 304
304 304 304 305 304 304 303 304 305 303 305 305 306 304 301 299 300 298 296 295 293 291 288 288 288 287 287 288 288 288 287 287 287 287 288 289 289 290 292 292 293 295 297 304
304 303 303 304 304 306 308 309 309 309 306 307 306 303 301 300 298 296 294 293 292 290 288 288 287 287 286 287 287 288 286 286 286 287 287 288 288 288 289 290 290 290 292 293
304 304 303 303 304 304 303 304 307 310 311 306 304 300 302 300 297 295 293 292 290 289 288 287 286 286 286 286 286 287 285 285 286 286 287 287 287 288 287 288 288 288 289 289
301 303 300 302 304 303 303 302 303 304 306 306 302 305 300 299 296 294 292 291 289 288 286 286 286 284 284 284 284 285 284 284 285 285 285 286 287 287 287 287 286 287 287 287
302 301 298 296 303 304 304 303 304 302 304 303 302 303 298 296 294 292 291 289 288 287 285 285 284 283 283 283 282 283 283 283 283 284 283 284 285 286 286 286 286 285 285 285
301 299 297 301 305 309 305 302 303 304 306 307 308 302 297 295 293 291 290 288 286 285 284 283 282 281 281 282 281 281 282 282 282 282 282 281 283 283 284 285 286 284 284 284
301 300 302 303 304 309 301 304 305 306 306 301 299 298 296 293 290 289 288 286 285 284 282 281 281 281 280 281 281 281 281 281 281 280 281 281 280 281 282 283 284 285 283 282
303 301 301 304 307 306 305 303 305 304 305 302 300 297 293 291 289 288 286 284 283 282 281 280 280 280 280 280 280 280 281 281 281 280 279 280 278 279 279 280 281 281 282 281
304 303 302 307 310 312 306 304 303 304 304 303 299 295 293 291 297 289 286 283 282 281 280 280 280 280 280 280 280 281 280 281 281 281 280 279 278 277 277 278 279 280 278 279
308 306 306 305 307 307 304 303 304 305 302 300 298 295 293 293 291 286 285 283 281 281 280 280 280 280 280 280 281 281 281 281 282 281 281 279 278 277 276 276 276 277 278 277
307 305 305 306 309 309 301 301 304 300 299 299 297 295 291 287 285 284 283 282 283 282 280 280 280 280 279 280 280 280 281 281 282 281 281 280 279 278 277 276 276 275 275 276
307 305 304 304 301 298 299 299 300 298 296 294 292 289 287 284 284 283 283 283 282 282 281 280 280 281 280 279 280 280 281 282 281 282 281 281 280 278 277 276 276 276 275 275
304 303 301 299 297 298 298 298 297 296 294 291 289 287 286 284 284 283 283 283 282 282 282 281 280 280 279 279 279 279 280 281 281 280 281 280 280 279 278 277 276 276 275 275
301 300 300 298 296 296 296 296 294 293 292 290 288 287 285 285 284 283 282 282 282 282 282 281 280 279 278 279 279 278 279 279 280 280 279 280 280 279 279 278 278 277 277 276
299 297 297 296 295 295 293 293 293 292 291 290 288 287 286 285 284 284 283 283 282 282 281 280 279 278 277 277 278 278 278 278 278 279 279 278 279 279 278 278 278 278 277 277

GFSCGP_925_thetae_126.txt.gz
Theta_e
307 305 305 305 304 305 306 306 307 307 308 309 308 306 307 307 305 307 308 306 305 303 301 299 297 296 295 294 294 294 294 294 295 297 298 299 300 302 304 305 307 310 313 317
304 306 307 307 307 307 308 308 309 307 309 308 307 305 305 306 308 306 304 303 301 300 298 297 295 294 293 292 292 292 292 292 293 294 294 295 296 298 299 302 305 307 308 311
304 306 308 308 308 309 309 308 308 308 307 306 305 305 306 307 307 305 302 300 299 298 296 295 294 292 292 291 290 290 290 290 291 291 291 292 294 295 297 299 301 303 304 306
307 308 309 309 310 308 307 307 307 306 304 304 304 304 304 307 306 304 301 298 297 295 294 293 292 291 290 290 289 289 288 289 290 289 290 290 291 292 293 294 297 299 301 303
308 308 307 307 307 307 307 306 306 305 304 304 303 303 303 307 307 304 300 298 296 294 293 292 292 290 289 289 289 288 288 288 289 289 288 289 289 290 291 292 294 296 298 299
307 306 305 305 306 306 306 305 304 303 303 305 305 303 303 308 306 303 300 298 296 294 292 292 290 289 289 289 289 288 289 288 288 288 288 288 288 288 289 291 292 294 296 298
305 305 304 305 304 305 305 303 305 306 307 307 305 305 309 305 303 301 300 297 295 293 292 290 289 289 288 288 288 288 289 288 288 288 288 288 288 288 289 290 292 293 294 296
305 306 306 306 305 305 304 304 306 310 310 306 305 305 308 303 302 301 299 296 294 292 290 289 289 288 288 288 288 289 288 288 287 287 287 288 289 290 291 292 293 294 295 296
306 306 305 304 305 305 305 304 304 305 304 305 304 308 305 303 302 301 299 296 293 291 289 288 288 288 287 287 288 289 287 287 287 287 288 289 290 291 293 293 294 295 296 297
306 306 305 305 304 304 304 303 304 305 308 307 304 305 307 304 303 300 298 295 292 290 288 288 287 287 287 287 287 288 287 286 287 287 287 288 289 290 292 293 295 296 299 299
303 303 304 303 303 303 303 302 303 304 305 305 304 299 297 298 299 298 296 294 292 289 287 287 287 286 286 286 285 287 286 286 286 286 287 288 288 289 290 291 292 292 294 296
303 302 303 303 303 303 303 303 304 304 305 303 304 303 301 299 298 296 295 294 292 289 287 286 286 285 285 285 284 285 285 285 285 285 286 287 288 288 288 288 289 290 291 291
302 302 302 303 302 305 306 307 308 307 303 304 301 300 300 299 296 295 294 292 290 289 287 286 285 284 284 284 283 284 283 284 283 284 284 285 287 287 287 287 287 288 289 289
303 302 302 304 303 303 302 303 302 307 304 306 302 297 302 301 297 295 293 291 289 288 287 286 284 283 283 283 282 282 283 283 282 283 283 283 284 286 286 285 285 285 286 287
300 302 298 301 303 303 302 302 302 301 303 307 300 302 298 299 296 294 291 290 289 287 286 284 283 283 282 282 282 282 282 282 281 282 281 281 282 284 285 284 283 284 283 284
300 300 294 293 302 303 302 302 301 302 302 300 299 303 297 295 292 292 291 289 288 286 284 283 282 282 281 281 281 281 281 281 280 280 280 280 280 282 282 284 283 282 282 282
299 297 294 298 303 305 306 303 301 299 301 302 303 302 295 295 294 291 289 288 286 284 283 282 282 281 281 281 281 281 281 281 280 279 279 278 279 279 280 280 281 280 280 280
299 299 299 303 301 306 301 303 303 304 304 301 299 297 296 295 290 289 288 286 285 283 282 281 281 280 280 280 280 280 281 281 280 279 279 278 277 278 278 279 278 278 278 278
301 300 300 301 305 304 305 303 304 303 303 300 298 296 292 290 288 287 285 284 282 281 280 280 280 280 280 281 280 280 280 281 280 279 279 278 277 276 276 277 278 277 277 277
302 301 300 304 307 308 304 305 303 303 300 299 298 294 292 290 294 289 284 282 281 280 280 280 280 280 280 281 281 281 281 281 280 279 278 278 277 276 276 276 276 276 276 276
305 304 304 304 306 305 304 302 302 301 300 299 295 293 291 291 292 286 284 281 280 280 280 280 280 280 280 281 281 281 281 281 281 280 279 278 277 276 276 276 275 275 276 276
307 306 306 306 306 305 300 301 303 299 297 297 295 293 290 285 284 283 282 281 280 280 280 280 279 279 279 280 281 280 280 281 280 280 280 279 278 277 276 276 275 275 275 276
307 304 302 302 302 297 298 299 298 297 296 295 294 291 286 284 283 282 282 282 281 280 280 280 280 279 279 279 280 279 280 280 280 280 279 279 279 278 277 276 276 275 275 275
305 303 302 301 298 297 298 296 296 295 292 291 291 288 286 284 283 282 283 282 282 281 280 279 279 278 278 278 279 279 280 280 279 279 279 278 278 278 277 276 276 276 275 275
301 301 299 297 294 296 295 294 292 290 288 288 288 287 285 284 283 282 282 282 281 281 281 279 278 278 278 278 278 278 279 279 279 278 278 278 277 277 277 278 277 276 276 275
298 298 298 298 295 295 290 291 290 289 288 287 286 285 285 284 283 283 282 282 281 281 279 278 277 277 277 278 278 277 277 278 278 277 276 276 276 276 276 276 275 276 275 275

GFSCGP_925_thetae_129.txt.gz
Theta_e
305 304 305 303 303 304 305 305 304 303 305 307 307 306 306 307 304 303 301 300 299 297 296 294 293 292 291 290 290 290 290 290 291 292 291 294 295 294 297 297 299 302 305 306
302 304 305 305 305 306 306 306 306 306 306 306 306 305 305 305 303 301 300 298 297 296 294 294 292 291 290 289 289 289 289 289 289 290 289 290 291 293 294 295 297 298 299 302
303 304 305 306 306 307 307 307 307 306 305 304 304 303 306 305 303 301 298 297 295 294 293 292 291 290 289 289 289 288 288 288 288 289 289 289 289 290 292 293 292 294 295 297
307 307 307 307 307 307 308 306 306 305 304 304 303 303 303 306 303 301 298 295 294 293 292 292 290 289 289 288 288 288 288 288 289 288 288 288 288 288 289 289 290 291 293 295
308 307 307 307 307 306 305 305 305 304 303 303 302 302 304 305 305 301 298 296 294 292 291 290 289 289 288 288 288 288 289 288 288 288 288 288 288 288 288 288 289 290 291 293
306 306 305 305 305 305 305 304 303 301 302 304 304 302 301 307 305 301 298 296 293 292 290 290 289 288 287 287 288 288 289 287 288 287 287 288 288 288 289 290 290 291 292 293
304 304 304 304 304 304 303 303 305 305 306 306 304 304 302 303 302 301 298 295 292 291 289 288 287 287 287 287 287 288 287 287 287 287 287 287 288 289 290 291 291 292 293 294
304 306 305 304 304 304 302 303 305 308 309 307 304 305 305 302 301 299 297 294 292 290 288 287 287 287 286 287 286 287 287 286 286 287 287 287 288 289 290 292 293 294 294 295
304 305 305 304 304 304 304 304 303 304 304 304 303 306 304 302 301 300 297 294 291 289 287 287 287 286 286 286 285 286 286 285 285 286 286 287 288 289 290 291 292 293 295 297
305 306 305 304 304 302 304 303 304 305 308 309 305 303 305 303 303 301 297 293 291 288 287 286 286 285 285 285 284 285 284 284 284 285 285 286 287 288 288 289 290 291 292 293
302 304 304 303 303 303 302 302 303 304 304 306 306 301 296 300 300 298 295 292 290 287 285 284 285 284 284 284 283 283 283 283 283 284 284 284 285 286 287 287 288 289 290 290
301 302 302 303 303 302 302 303 303 304 304 303 303 304 301 296 296 295 294 293 290 287 285 284 284 283 283 283 282 282 282 282 282 283 283 283 284 286 285 285 285 287 288 288
302 301 302 304 302 303 303 305 304 305 303 305 301 302 299 297 295 294 292 291 288 287 285 284 283 283 282 283 282 282 282 281 281 282 282 282 282 284 284 283 284 284 285 287
302 301 303 307 304 302 303 304 305 302 302 305 303 301 301 298 295 293 292 290 287 285 284 283 283 282 282 282 282 281 281 280 280 280 280 280 280 282 283 282 281 282 283 284
300 302 298 301 302 302 302 302 302 301 302 302 302 302 298 299 296 293 291 289 288 286 285 283 283 282 282 282 281 281 281 280 279 279 278 279 279 280 280 280 280 280 281 282
298 301 293 292 300 301 301 301 301 299 300 300 297 301 297 295 292 291 290 289 288 285 284 283 282 282 281 281 281 281 281 280 279 278 278 277 277 278 279 278 278 279 279 280
298 295 294 298 302 302 302 303 302 300 301 301 302 300 295 294 294 292 290 288 287 285 283 282 282 281 281 280 281 281 280 280 279 278 278 277 276 276 277 277 277 277 277 278
296 295 298 299 300 300 299 301 302 302 302 300 299 296 296 294 291 290 288 286 285 283 282 281 280 280 280 280 280 280 280 279 279 278 278 277 276 276 276 276 276 276 277 277
298 299 300 303 302 301 303 304 304 304 303 300 298 297 292 289 288 287 287 285 283 281 280 280 280 280 280 281 280 280 280 279 278 278 277 277 276 276 275 275 276 276 276 276
300 299 301 303 303 305 303 305 302 301 299 298 297 294 291 290 292 287 285 283 281 280 280 280 280 280 280 280 280 280 280 279 278 277 277 276 276 276 275 275 275 276 276 276
302 300 302 304 305 304 302 302 301 299 300 297 295 292 290 291 288 285 284 282 280 280 280 279 279 279 280 280 280 280 280 279 279 278 277 277 276 275 275 275 275 275 276 276
304 304 304 305 306 305 301 301 302 298 297 295 293 291 288 285 284 282 281 280 280 279 279 279 279 279 280 280 280 279 279 279 279 279 278 277 276 276 275 275 275 275 275 275
308 305 304 304 304 298 298 298 298 296 296 293 292 290 285 284 282 281 281 281 280 279 279 278 278 278 279 280 280 279 279 279 278 278 277 277 277 276 275 275 275 274 275 275
305 302 303 304 300 298 297 296 297 295 294 292 291 287 285 284 281 281 281 281 280 279 278 278 278 278 277 278 279 279 278 278 278 277 277 277 277 277 276 275 275 274 275 275
301 303 304 300 295 296 295 294 293 290 289 290 288 287 285 283 282 282 282 282 280 279 278 278 278 277 277 277 278 279 278 277 277 277 276 276 275 275 275 275 275 274 274 275
300 302 301 301 297 298 292 290 290 289 288 288 287 286 284 284 283 283 282 282 281 280 279 278 277 277 277 277 277 278 277 276 276 276 275 275 274 274 274 273 273 274 274 274